     2.11           OBSERVATION DATA    G (GPS)             RINEX VERSION / TYPE
teqc 2010Oct21 OPUS Account 20111028 16:37:37UTC            PGM / RUN BY / DATE
E 1527                                                      MARKER NAME
3066                                                        MARKER NUMBER
CSMIDDLETON NGS                                             OBSERVER / AGENCY
4820152812 TRIMBLE R7 2.32                                  REC # / TYPE / VERS
60244996 TRM41249.00 NONE                                   ANT # / TYPE
  -734920.7287 -5584739.6935  2981821.7763                  APPROX POSITION XYZ
        2.0030        0.0000        0.0000                  ANTENNA: DELTA H/E/N
     1     1                                                WAVELENGTH FACT L1/2
     5    L1    L2    C1    P1    P2                        # / TYPES OF OBSERV
    15                                                      LEAP SECONDS
  2011     8    24     0     0   30.0000000     GPS         TIME OF FIRST OBS
                                                            END OF HEADER
 11  8 24  0  0 30.0000000  0  9G17G05G10G04G12G09G02G25G30
  23250261.94957  18129397.18855  23211098.5784                   23211098.0864
  -7961571.74657  -6190606.24655  22182861.9924                   22182861.4144
  -7481743.94558  -5819767.86356  20985334.8284                   20985332.6134
   5779189.37558   4517876.98455  21713962.6414                   21713961.0904
  -8403104.47758  -6543824.39856  21668281.7814                   21668279.6254
  11511878.36357   8991229.93454  23651573.3834                   23651575.9574
  -6824716.11358  -5305383.49256  20746379.7034                   20746375.3094
  -1054104.40257   -809693.89854  24424079.1414                   24424081.6374
   -405041.68456   -303744.14852  24346150.7974                   24346150.1054
 11  8 24  0  1  0.0000000  0  9G17G05G10G04G12G09G02G25G30
  23345248.28147  18203412.44544  23229173.6804                   23229173.3984
  -8008708.57447  -6227336.12946  22173892.0314                   22173891.6054
  -7440456.73448  -5787595.98446  20993191.4224                   20993189.8244
   5899180.15248   4611376.27345  21736796.2974                   21736795.0824
  -8422758.06248  -6559138.83646  21664542.0234                   21664539.6484
  11632275.38747   9085045.68844  23674484.5784                   23674486.0554
  -6782470.73048  -5272464.98846  20754418.7814                   20754414.1804
  -1110635.64847   -853744.14143  24413321.7894                   24413324.0514
   -463677.21246   -349434.10843  24334992.5864                   24334993.1604
 11  8 24  0  1 30.0000000  0  9G17G05G10G04G12G09G02G25G30
  23440417.80547  18277570.44145  23247283.9454                   23247283.0274
  -8055527.68047  -6263818.42246  22164982.8594                   22164982.1174
  -7398510.54348  -5754910.61746  21001173.3444                   21001171.8244
   6019347.50048   4705013.13745  21759663.3054                   21759662.0634
  -8441973.67647  -6574112.00046  21660885.2034                   21660883.1294
  11752894.39847   9179034.46544  23697437.4304                   23697439.7424
  -6739902.20748  -5239294.68746  20762519.2974                   20762514.9884
  -1166985.23846   -897652.83243  24402598.2584                   24402600.7194
   -522074.18046   -394938.18443  24323880.4144                   24323879.9964
 11  8 24  0  2  0.0000000  0  9G17G05G10G04G12G09G02G25G30
  23535764.75447  18351866.69545  23265428.0944                   23265427.2734
  -8102032.12947  -6300055.53546  22156132.9304                   22156132.5234
  -7355911.21547  -5721716.30946  21009279.5784                   21009278.3954
   6139683.53548   4798781.44945  21782562.6414                   21782561.2504
  -8460755.27347  -6588746.96546  21657311.2974                   21657308.6054
  11873725.72747   9273188.63344  23720431.1884                   23720433.6254
  -6697017.69948  -5205878.15646  20770679.9064                   20770675.7664
  -1223156.88746   -941422.83644  24391909.6254                   24391911.1914
   -580236.35246   -440259.31243  24312812.2274                   24312812.2194
 11  8 24  0  2 30.0000000  0  9G17G05G10G04G12G09G02G25G30
  23631280.44947  18426294.44944  23283604.3444                   23283603.3954
  -8148228.04747  -6336052.23446  22147342.1564                   22147341.5234
  -7312667.83248  -5688020.13746  21017508.7584                   21017507.0234
   6260176.87148   4892672.34045  21805491.7814                   21805490.5004
  -8479109.16447  -6603048.65246  21653818.7504                   21653816.0394
  11994756.64847   9367498.33644  23743462.5634                   23743464.3594
  -6653827.73848  -5172223.61746  20778898.6884                   20778894.5204
  -1279157.14546   -985059.32443  24381252.8594                   24381254.9344
   -638169.78146   -485402.20343  24301787.3444                   24301787.9694
 11  8 24  0  3  0.0000000  0  9G17G05G10G04G12G09G02G25G30
  23726970.63347  18500858.16045  23301813.6024                   23301812.7854
  -8194107.79747  -6371802.57046  22138611.1954                   22138610.7624
  -7268775.16448  -5653818.03546  21025861.3834                   21025859.7114
   6380830.27748   4986687.96145  21828451.0554                   21828449.5864
  -8497028.50847  -6617011.73446  21650408.5784                   21650405.9924
  12115988.88347   9461964.91844  23766532.9924                   23766533.7734
  -6610328.35548  -5138327.97346  20787176.5084                   20787171.7814
  -1334978.50046  -1028556.35544  24370630.5784                   24370632.4654
   -695866.94546   -530360.97743  24290808.4534                   24290808.4844
 11  8 24  0  3 30.0000000  0  9G17G05G10G04G12G09G02G25G30
  22247416.03147  17347958.39845  23020263.8834                   23020263.0204
  -9815092.48047  -7634907.40246  21830148.0084                   21830147.2384
  -8799654.35247  -6846710.88746  20734544.7734                   20734542.7034
   4926223.18048   3853227.85245  21551648.7814                   21551647.0434
 -10089934.38347  -7858237.05146  21347288.7814                   21347286.0004
  10662000.03947   8328986.51644  23489847.7034                   23489849.6454
  -8141942.10248  -6331793.20346  20495719.7664                   20495715.5044
  -2966042.97746  -2299515.60543  24060249.5554                   24060250.5204
  -2328749.55546  -1802736.98443  23980081.2274                   23980081.0744
 11  8 24  0  4  0.0000000  0  9G17G05G10G04G12G09G02G25G30
  22343454.14147  17422793.22745  23038539.2424                   23038539.0634
  -9860333.87547  -7670160.30546  21821538.7894                   21821538.7344
  -8754465.00048  -6811498.37146  20743143.8134                   20743142.0274
   5047188.17648   3947486.26245  21574667.8674                   21574666.7774
 -10106979.71948  -7871519.09846  21344044.9144                   21344042.6414
  10783621.52747   8423756.40244  23512991.9304                   23512993.5274
  -8097830.27748  -6297420.32046  20504114.2584                   20504109.8914
  -3021501.57047  -2342730.00444  24049695.5164                   24049697.4964
  -2385968.32046  -1847322.94943  23969193.0314                   23969192.7664
 11  8 24  0  4 30.0000000  0  9G17G05G10G04G12G09G02G25G30
  22439668.47347  17497765.35545  23056847.9534                   23056847.8324
  -9905250.41847  -7705160.08646  21812991.3054                   21812990.4614
  -8708625.61347  -6775779.33646  20751866.6724                   20751864.9534
   5168307.20348   4041864.69145  21597715.8984                   21597714.3594
 -10123583.42648  -7884457.01246  21340885.3754                   21340882.6294
  10905433.79747   8518674.98844  23536172.2894                   23536172.5594
  -8053412.68448  -6262809.18046  20512566.3674                   20512562.0314
  -3076773.77047  -2385799.14844  24039177.8134                   24039179.3874
  -2442942.53146  -1891718.34843  23958351.2344                   23958350.0864
 11  8 24  0  5  0.0000000  0  9G17G05G10G04G12G09G02G25G30
  22536071.16847  17572884.27045  23075192.8284                   23075192.5394
  -9949828.08647  -7739895.81646  21804508.6334                   21804507.4384
  -8662124.60248  -6739544.74646  20760715.8674                   20760713.4494
   5289589.69148   4136370.49245  21620794.9844                   21620793.7814
 -10139731.69147  -7897040.03946  21337812.7344                   21337809.6294
  11027445.12947   8613748.67644  23559389.7344                   23559392.0704
  -8008679.03548  -6227951.75846  20521079.1024                   20521074.3204
  -3131845.25447  -2428711.91844  24028698.0864                   24028699.4614
  -2499657.72746  -1935911.89843  23947558.3754                   23947557.5984
 11  8 24  0  5 30.0000000  0  9G17G05G10G04G12G09G02G25G30
  22632653.14547  17648142.88344  23093572.6484                   23093571.6024
  -9994072.87147  -7774372.14846  21796088.8834                   21796088.0944
  -8614971.20348  -6702801.80546  20769688.6564                   20769686.4844
   5411024.51248   4230994.99245  21643903.8204                   21643902.5634
 -10155431.42648  -7909273.57446  21334824.7734                   21334822.2854
  11149642.81347   8708967.53544  23582643.5784                   23582645.6094
  -7963639.48848  -6192855.97346  20529649.2974                   20529645.1524
  -3186722.74247  -2471473.49244  24018255.5634                   24018256.5634
  -2556120.29746  -1979908.62143  23936814.1724                   23936813.1764
 11  8 24  0  6  0.0000000  0  9G17G05G10G04G12G09G02G25G30
  22729406.91047  17723535.36344  23111983.5784                   23111983.1804
 -10037990.29747  -7808593.39846  21787731.6484                   21787731.1764
  -8567172.95747  -6665556.39546  20778784.1804                   20778782.1174
   5532601.64848   4325730.37945  21667038.9614                   21667038.2854
 -10170688.15648  -7921161.89846  21331921.5554                   21331918.8984
  11272015.23847   8804322.59843  23605929.7194                   23605931.7664
  -7918303.42648  -6157529.14146  20538277.0554                   20538272.6414
  -3241411.80546  -2514088.23044  24007848.0944                   24007849.4534
  -2612335.68046  -2023712.70343  23926116.0084                   23926115.3554
 11  8 24  0  6 30.0000000  0  9G17G05G10G04G12G09G02G25G30
  22826331.36047  17799060.85944  23130427.6644                   23130427.7154
 -10081579.20747  -7842558.66446  21779437.1804                   21779435.9694
  -8518731.64148  -6627809.89546  20788002.5084                   20788000.9264
   5654317.20348   4420573.64845  21690200.6094                   21690198.9614
 -10185501.66048  -7932704.86746  21329102.5394                   21329100.1094
  11394557.33647   8899809.83244  23629249.8284                   23629250.9534
  -7872673.83248  -6121973.58646  20546959.9064                   20546955.4654
  -3295911.60246  -2556555.50444  23997476.2344                   23997478.5594
  -2668302.82446  -2067323.34443  23915465.8524                   23915465.0004
 11  8 24  0  7  0.0000000  0  9G17G05G10G04G12G09G02G25G30
  22923445.85247  17874734.43444  23148908.6254                   23148907.5354
 -10124818.03147  -7876251.15246  21771208.9534                   21771208.5234
  -8469628.71548  -6589547.85546  20797346.4924                   20797344.4574
   5776187.83248   4515537.74645  21713392.3054                   21713390.6684
 -10199851.10548  -7943886.23446  21326372.0084                   21326369.5744
  11517284.40247   8995441.18844  23652603.7424                   23652605.6844
  -7826733.25048  -6086175.71146  20555702.0004                   20555697.3204
  -3350200.94147  -2598858.78144  23987145.4614                   23987147.2034
  -2724000.32846  -2110723.86743  23904867.1094                   23904865.9384
 11  8 24  0  7 30.0000000  0  9G17G05G10G04G12G09G02G25G30
  23020747.22747  17950553.64544  23167424.2114                   23167423.5944
 -10167707.96547  -7909671.76246  21763047.2734                   21763046.1954
  -8419868.36348  -6550773.53546  20806815.4924                   20806813.7074
   5898207.73048   4610618.16045  21736611.6334                   21736610.2304
 -10213737.69948  -7954706.92646  21323729.5084                   21323726.8134
  11640188.89847   9091210.82444  23675991.5394                   23675993.4384
  -7780486.92248  -6050139.58246  20564502.0474                   20564497.8874
  -3404281.11747  -2640999.08244  23976854.1954                   23976856.0864
  -2779429.25446  -2153915.11343  23894319.3054                   23894318.6214
 11  8 24  0  8  0.0000000  0  9G17G05G10G04G12G09G02G25G30
  23118220.96547  18026507.17244  23185972.8054                   23185972.1724
 -10210260.94547  -7942829.82046  21754949.3834                   21754948.5354
  -8369464.73448  -6511497.95346  20816407.0474                   20816404.7934
   6020360.28648   4705801.94045  21759856.2274                   21759855.0474
 -10227173.83248  -7965176.62546  21321172.6024                   21321170.3524
  11763252.97347   9187104.78944  23699410.1484                   23699411.7624
  -7733950.60548  -6013877.49246  20573358.0864                   20573353.4454
  -3458164.13747  -2682985.76844  23966600.8204                   23966603.1884
  -2834601.39146  -2196906.26243  23883819.9064                   23883819.4024
 11  8 24  0  8 30.0000000  0  9G17G05G10G04G12G09G02G25G30
  23215892.29747  18102614.65244  23204559.2194                   23204558.0314
 -10252449.28947  -7975703.75846  21746921.3444                   21746920.5124
  -8318393.35548  -6471702.05946  20826125.1884                   20826123.4614
   6142668.09848   4801106.71945  21783130.9064                   21783129.7664
 -10240133.10248  -7975274.74246  21318706.7664                   21318704.2424
  11886497.88747   9283139.69144  23722862.8984                   23722864.7154
  -7687100.76648  -5977371.10246  20582273.1804                   20582268.5904
  -3511822.81247  -2724797.65244  23956389.8284                   23956391.2074
  -2889489.51246  -2239676.09843  23873374.8674                   23873374.5984
 11  8 24  0  9  0.0000000  0  9G17G05G10G04G12G09G02G25G30
  23313744.76647  18178863.30944  23223179.7194                   23223179.1524
 -10294287.55147  -8008304.89546  21738959.7504                   21738958.5554
  -8266671.52048  -6431399.30546  20835967.9614                   20835965.8404
   6265112.36348   4896517.82845  21806431.1804                   21806430.0594
 -10252629.91448  -7985012.50446  21316328.3134                   21316326.0514
  12009903.11747   9379299.50844  23746346.4454                   23746348.4344
  -7639955.96948  -5940634.88346  20591244.5784                   20591240.3484
  -3565271.67646  -2766446.05544  23946218.5164                   23946220.6644
  -2944107.80546  -2282235.71143  23862981.4774                   23862981.0234
 11  8 24  0  9 30.0000000  0  9G17G05G10G04G12G09G02G25G30
  23411780.52047  18255254.77044  23241835.1414                   23241834.5164
 -10335771.61348  -8040630.02046  21731065.5314                   21731064.4304
  -8214297.70348  -6390588.52746  20845934.2274                   20845932.2774
   6387692.45348   4992034.77345  21829757.5704                   21829756.4064
 -10264660.50448  -7994386.97746  21314039.3754                   21314036.6954
  12133466.67246   9475582.68844  23769859.5004                   23769861.3284
  -7592515.27348  -5903668.08646  20600272.0314                   20600267.6844
  -3618506.39147  -2807927.60544  23936088.7504                   23936090.2234
  -2998451.81647  -2324581.63343  23852639.6954                   23852639.5474
 11  8 24  0 10  0.0000000  0  9G17G05G10G04G12G09G02G25G30
  23510005.19147  18331793.43444  23260526.2894                   23260526.4694
 -10376893.16447  -8072672.69146  21723240.1564                   21723239.0354
  -8161267.10548  -6349265.96946  20856025.4534                   20856023.6844
   6510411.64848   5087660.11745  21853110.1254                   21853108.7424
 -10276217.84048  -8003392.68746  21311840.0864                   21311837.2624
  12257190.40246   9571990.70743  23793403.7504                   23793404.8524
  -7544775.07448  -5866467.91046  20609356.5394                   20609352.3204
  -3671519.35947  -2849236.35244  23926000.7344                   23926002.4304
  -3052513.66447  -2366707.72343  23842352.7894                   23842352.0594
 11  8 24  0 10 30.0000000  0  9G17G05G10G04G12G09G02G25G30
  23608414.46947  18408475.96144  23279253.1174                   23279253.0474
 -10417654.19548  -8104434.43446  21715483.1334                   21715482.5904
  -8107584.69948  -6307435.49246  20866240.8984                   20866238.9654
   6633263.11748   5183388.52045  21876487.8594                   21876486.8794
 -10287304.10948  -8012031.32846  21309730.5394                   21309727.3834
  12381065.81647   9668516.94544  23816976.2114                   23816978.3164
  -7496741.25048  -5829038.93046  20618497.2664                   20618492.8954
  -3724312.86347  -2890374.09444  23915954.4614                   23915955.8554
  -3106295.48047  -2408615.55143  23832117.5704                   23832117.4494
 11  8 24  0 11  0.0000000  0  9G17G05G10G04G12G09G02G25G30
  23707008.09047  18485302.14144  23298015.6254                   23298014.8914
 -10458052.73048  -8135913.71146  21707795.5394                   21707794.9574
  -8053250.96548  -6265097.49646  20876580.2504                   20876578.2734
   6756244.50848   5279218.16445  21899890.7814                   21899889.2854
 -10297918.14148  -8020301.99646  21307710.4614                   21307707.5864
  12505089.35947   9765158.53544  23840577.2274                   23840579.9104
  -7448415.84448  -5791382.75046  20627693.6414                   20627689.3284
  -3776884.58247  -2931339.03144  23905950.2974                   23905951.5434
  -3159794.84046  -2450303.30543  23821936.6724                   23821937.0594
 11  8 24  0 11 30.0000000  0  9G17G05G10G04G12G09G02G25G30
  23805795.60547  18562279.38344  23316813.7274                   23316813.2974
 -10498077.17248  -8167101.49246  21700179.6094                   21700178.3674
  -7998257.30148  -6222245.25446  20887045.2034                   20887043.3204
   6879362.84848   5375154.52745  21923319.3594                   21923318.0594
 -10308048.67248  -8028195.89846  21305782.7584                   21305779.8594
  12629266.50447   9861919.88743  23864207.0084                   23864208.4344
  -7399791.14148  -5753493.35546  20636946.4774                   20636941.8284
  -3829223.20347  -2972122.33244  23895990.3754                   23895991.8834
  -3213000.09046  -2491761.89143  23811812.8594                   23811812.1214
 11  8 24  0 12  0.0000000  0  9G17G05G10G04G12G09G02G25G30
  23904771.30547  18639403.24244  23335648.3444                   23335648.2274
 -10537730.84447  -8198000.36746  21692633.1024                   21692632.3554
  -7942610.00848  -6178883.69946  20897634.3984                   20897632.3594
   7002609.96948   5471191.23045  21946772.3914                   21946771.1764
 -10317699.45748  -8035715.98046  21303946.3204                   21303943.3954
  12753587.55546   9958793.39144  23887865.3524                   23887866.8284
  -7350874.48048  -5715376.45346  20646254.8204                   20646250.2034
  -3881332.30947  -3012726.78544  23886074.7734                   23886075.9884
  -3265914.65646  -2532993.93043  23801743.8364                   23801743.0394
 11  8 24  0 12 30.0000000  0  9G17G05G10G04G12G09G02G25G30
  24003934.62947  18716673.27744  23354518.4844                   23354518.2544
 -10577012.57848  -8228609.41846  21685158.2894                   21685157.1524
  -7886310.93748  -6135014.25446  20908347.6954                   20908345.7344
   7125982.53548   5567325.68445  21970249.0864                   21970247.9024
 -10326870.37148  -8042862.12946  21302200.9774                   21302198.5984
  12878047.62146  10055775.14844  23911549.2584                   23911551.6024
  -7301668.70748  -5677034.27346  20655618.5234                   20655614.2704
  -3933210.59447  -3053151.36344  23876202.6884                   23876204.3754
  -3318537.20346  -2573998.44944  23791729.7664                   23791729.2704
 11  8 24  0 13  0.0000000  0  9G17G05G10G04G12G09G02G25G30
  24103289.28547  18794092.41044  23373425.5784                   23373425.2074
 -10615915.93448  -8258923.62946  21677755.3134                   21677754.0044
  -7829356.48448  -6090634.13346  20919185.5864                   20919184.2114
   7249482.59448   5663559.48445  21993750.3984                   21993749.3484
 -10335555.12148  -8049629.44946  21300548.4924                   21300545.7464
  13002647.21147  10152865.68443  23935259.6804                   23935261.5314
  -7252170.72748  -5638464.40646  20665037.5084                   20665033.0274
  -3984851.68047  -3093391.11744  23866375.5634                   23866376.8484
  -3370860.94546  -2614770.09043  23781772.2584                   23781771.8094
 11  8 24  0 13 30.0000000  0  9G17G05G10G04G12G09G02G25G30
  24202838.25447  18871662.98044  23392368.8444                   23392369.2304
 -10654435.68048  -8288938.92246  21670424.8524                   21670423.5084
  -7771744.82048  -6045741.89546  20930148.6884                   20930146.9304
   7373110.41448   5759892.82845  22017276.4924                   22017275.0234
 -10343749.35248  -8056014.53546  21298989.2034                   21298986.5234
  13127385.14547  10250064.00844  23958997.0864                   23958998.2464
  -7202379.92648  -5599666.36346  20674512.4774                   20674507.9694
  -4036250.75047  -3133442.26644  23856594.3444                   23856595.7584
  -3422881.07046  -2655305.20343  23771873.8984                   23771872.9104
 11  8 24  0 14  0.0000000  0  9G17G05G10G04G12G09G02G25G30
  24302581.85247  18949385.19544  23411349.7194                   23411349.8634
 -10692569.81248  -8318653.73846  21663168.2664                   21663166.9614
  -7713476.64848  -6000338.09846  20941236.9844                   20941235.1804
   7496863.84447   5856324.05545  22040825.6954                   22040824.3714
 -10351451.34848  -8062016.06246  21297523.2344                   21297520.8754
  13252257.60547  10347367.17244  23982758.9304                   23982761.8984
  -7152297.95348  -5560641.43746  20684042.9064                   20684038.6524
  -4087405.54347  -3173303.07444  23846859.5474                   23846861.4774
  -3474595.12146  -2695601.79743  23762032.4614                   23762032.1994
 11  8 24  0 14 30.0000000  0  9G17G05G10G04G12G09G02G25G30
  24402511.33247  19027252.25044  23430365.5634                   23430365.8094
 -10730324.22748  -8348072.66446  21655983.7894                   21655982.5944
  -7654561.86748  -5954430.44546  20952448.2894                   20952446.3524
   7620731.71548   5952844.43445  22064396.8524                   22064395.9844
 -10358668.01248  -8067639.40646  21296150.4454                   21296147.5474
  13377252.28147  10444765.47743  24006544.5944                   24006546.9144
  -7101934.97348  -5521397.54746  20693626.0554                   20693621.7854
  -4138322.47747  -3212978.50844  23837170.2194                   23837172.2734
  -3526009.28147  -2735664.69143  23752248.2344                   23752247.7774
 11  8 24  0 15  0.0000000  0  9G17G05G10G04G12G09G02G25G30
  24502634.55947  19105270.28944  23449418.6484                   23449418.4804
 -10767689.28548  -8377188.20346  21648873.4304                   21648872.1994
  -7594993.18448  -5908013.27046  20963783.4694                   20963781.3244
   7744719.72348   6049458.44145  22087991.1884                   22087989.8634
 -10365390.18748  -8072877.42246  21294870.6564                   21294868.3754
  13502373.02747  10542262.13744  24030354.5474                   24030356.9224
  -7051285.06248  -5481930.06246  20703264.7734                   20703260.3014
  -4188991.74247  -3252460.94544  23827528.0234                   23827529.9694
  -3577113.59047  -2775486.18443  23742524.0944                   23742522.8954
 11  8 24  0 15 30.0000000  0  9G17G05G10G04G12G09G02G25G30
  24602950.55947  19183438.50444  23468508.0234                   23468508.4414
 -10804663.54748  -8405999.22746  21641837.0704                   21641835.7464
  -7534772.49648  -5861088.03946  20975243.0554                   20975240.9534
   7868824.85247   6146163.70745  22111608.0314                   22111606.7624
 -10371616.73848  -8077729.24246  21293685.8204                   21293683.0944
  13627615.55946  10639853.60443  24054186.6484                   24054190.0784
  -7000350.45348  -5442240.74646  20712957.1884                   20712952.4774
  -4239411.80947  -3291749.19144  23817933.7664                   23817935.1524
  -3627906.34447  -2815064.87144  23732857.9224                   23732857.1994
 11  8 24  0 16  0.0000000  0  9G17G05G10G04G12G09G02G25G30
  24703450.61747  19261750.13744  23487632.6174                   23487632.4924
 -10841253.60248  -8434510.86746  21634874.1884                   21634873.0434
  -7473909.55948  -5813662.35246  20986825.0784                   20986822.8714
   7993035.70347   6242951.34045  22135244.0704                   22135242.7274
 -10377355.01648  -8082200.59446  21292593.8284                   21292591.0904
  13752967.04347  10737529.95744  24078041.2344                   24078043.1564
  -6949141.87548  -5402337.94546  20722702.0944                   20722697.3984
  -4289589.33647  -3330848.46944  23808385.1094                   23808386.7234
  -3678394.05147  -2854405.86744  23723251.1954                   23723250.4774
 11  8 24  0 16 30.0000000  0  9G17G05G10G04G12G09G02G25G30
  24804153.05547  19340219.50044  23506795.8594                   23506796.1484
 -10877438.99648  -8462707.18746  21627988.2274                   21627987.1094
  -7412387.18448  -5765722.82846  20998532.2274                   20998530.3284
   8117368.48047   6339833.99245  22158904.2114                   22158902.5664
 -10382585.17248  -8086275.99646  21291598.5554                   21291596.0044
  13878441.84447  10835302.44544  24101918.1804                   24101920.4884
  -6897642.58648  -5362208.61346  20732501.6644                   20732497.6484
  -4339503.98847  -3369742.91444  23798886.6884                   23798887.9654
  -3728556.21547  -2893493.19943  23713705.0234                   23713704.6484
 11  8 24  0 17  0.0000000  0  9G17G05G10G04G12G09G02G25G30
  24905030.60547  19418825.31344  23525992.1724                   23525992.2774
 -10913244.76247  -8490607.69146  21621174.8754                   21621173.5044
  -7350233.31648  -5717291.23446  21010359.6954                   21010357.9804
   8241793.89847   6436788.82445  22182581.6024                   22182580.2234
 -10387332.66448  -8089975.30546  21290695.2814                   21290692.6724
  14004008.94946  10933146.83244  24125812.2424                   24125815.5784
  -6845881.63348  -5321875.38346  20742351.8754                   20742346.8834
  -4389180.58647  -3408451.85244  23789433.8134                   23789434.9494
  -3778417.57847  -2932346.14843  23704217.1094                   23704215.8054
 11  8 24  0 17 30.0000000  0  9G17G05G10G04G12G09G02G25G30
  25006102.34147  19497582.44944  23545225.0634                   23545225.6254
 -10948649.68748  -8518195.85646  21614437.4454                   21614436.3094
  -7287430.29748  -5668353.80046  21022310.4224                   21022308.3834
   8366328.19547   6533828.49845  22206279.2974                   22206278.3484
 -10391577.45648  -8093282.89446  21289887.2664                   21289884.6254
  14129683.48046  11031074.88344  24149728.1254                   24149730.6024
  -6793841.67648  -5281324.75146  20752254.4144                   20752249.6564
  -4438598.29047  -3446959.06444  23780029.5164                   23780031.1994
  -3827957.01847  -2970948.24944  23694789.6094                   23694788.8014
 11  8 24  0 18  0.0000000  0  9G17G05G10G04G12G09G02G25G30
  25107375.10947  19576496.22744  23564497.0394                   23564497.2194
 -10983644.87148  -8545464.74246  21607777.7664                   21607776.5044
  -7223972.00448  -5618905.77346  21034386.4694                   21034384.5634
   8490976.15647   6630956.73845  22229999.2584                   22229997.7704
 -10395310.98848  -8096192.10546  21289176.9924                   21289174.3954
  14255468.53946  11129089.06343  24173664.2894                   24173667.0354
  -6741517.66448  -5240552.77346  20762211.5554                   20762206.8794
  -4487748.05947  -3485257.47744  23770676.6804                   23770677.8674
  -3877165.34847  -3009292.33244  23685425.6414                   23685425.0474
 11  8 24  0 18 30.0000000  0  9G17G05G10G04G12G09G02G25G30
  25208834.87547  19655555.71544  23583804.3054                   23583804.7464
 -11018242.11348  -8572423.53946  21601193.8524                   21601192.6134
  -7159873.66048  -5568959.01246  21046583.9534                   21046581.8954
   8615721.94947   6728161.22745  22253737.6954                   22253736.2464
 -10398545.46548  -8098712.44946  21288561.5634                   21288558.9264
  14381346.76246  11227175.86743  24197617.4694                   24197620.2344
  -6688925.12148  -5199571.54346  20772219.6724                   20772214.6764
  -4536641.37547  -3523356.07444  23761372.2664                   23761373.8874
  -3926054.02147  -3047387.31243  23676122.0784                   23676121.2074
 11  8 24  0 19  0.0000000  0  9G17G05G10G04G12G09G02G25G30
  25310486.05147  19734764.35944  23603147.8444                   23603148.0944
 -11052435.08648  -8599067.32046  21594687.3674                   21594685.8364
  -7095132.12948  -5518511.06646  21058903.9454                   21058902.2854
   8740567.33247   6825443.30145  22277495.2734                   22277494.4264
 -10401275.14548  -8100839.44146  21288042.1414                   21288039.1214
  14507318.24246  11325335.35243  24221590.2034                   24221591.8484
  -6636061.61748  -5158379.19146  20782278.9614                   20782274.3364
  -4585271.84047  -3561249.84844  23752118.4064                   23752119.1564
  -3974616.30947  -3085227.98844  23666881.5164                   23666880.7194
 11  8 24  0 19 30.0000000  0  9G17G05G10G04G12G09G02G25G30
  25412347.55547  19814136.89144  23622531.3594                   23622531.5354
 -11086202.32048  -8625379.35946  21588261.5784                   21588259.8984
  -7029729.58248  -5467548.04746  21071349.2664                   21071347.5664
   8865529.22347   6922816.15645  22301274.5864                   22301273.7854
 -10403479.45348  -8102557.06246  21287622.6094                   21287619.2664
  14633398.45747  11423579.54744  24245582.5394                   24245585.0204
  -6582909.73048  -5116962.10946  20792393.7034                   20792388.9414
  -4633618.36347  -3598922.38344  23742918.2274                   23742919.1524
  -4022831.18447  -3122797.90644  23657706.1644                   23657705.7894
 11  8 24  0 20  0.0000000  0  9G17G05G10G04G12G09G02G25G30
  25514392.33247  19893652.22744  23641950.3674                   23641950.3834
 -11119568.75848  -8651379.08646  21581912.0474                   21581910.6604
  -6963693.96148  -5416091.71946  21083915.6724                   21083914.1094
   8990578.51247   7020257.11345  22325070.4774                   22325069.2114
 -10405184.05148  -8103885.30146  21287298.1644                   21287295.2074
  14759556.57846  11521884.37543  24269589.0234                   24269592.5984
  -6529498.02048  -5075342.57446  20802557.2814                   20802552.5354
  -4681705.66447  -3636392.90644  23733767.1804                   23733768.6914
  -4070723.00846  -3160116.13744  23648591.4454                   23648591.5474
 11  8 24  0 20 30.0000000  0  9G17G05G10G04G12G09G02G25G30
  25616633.23847  19973320.39144  23661406.1024                   23661406.0084
 -11152519.18448  -8677054.64846  21575641.8984                   21575640.5744
  -6897013.50848  -5364132.92646  21096604.6564                   21096602.8364
   9115725.79747   7117774.44945  22348885.6804                   22348884.4264
 -10406374.48048  -8104812.88746  21287071.6724                   21287068.6564
  14885801.75447  11620257.17243  24293613.4064                   24293614.4804
  -6475815.40648  -5033511.94946  20812772.6804                   20812768.0274
  -4729518.61747  -3673649.65644  23724668.3834                   23724670.2734
  -4118276.78946  -3197170.93443  23639542.9694                   23639542.3484
 11  8 24  0 21  0.0000000  0  9G17G05G10G04G12G09G02G25G30
  24143650.48847  18825541.55144  23381106.6334                   23381107.0944
 -12760476.30147  -9930008.16046  21269657.9614                   21269656.6684
  -8405110.52748  -6539273.46146  20809623.1094                   20809621.3204
   7665550.10947   5987767.37545  22072926.2194                   22072925.2504
 -11982472.82048  -9332941.43446  20987149.5394                   20987147.0864
  13436711.09446  10491095.44943  24017860.2274                   24017863.1294
  -7997284.96148  -6219072.61346  20523246.7894                   20523241.6414
  -6352479.87947  -4938294.68444  23415829.1884                   23415830.3674
  -5740914.77047  -4461564.06644  23330764.9694                   23330764.6484
 11  8 24  0 21 30.0000000  0  9G17G05G10G04G12G09G02G25G30
  24246288.31646  18905519.02744  23400638.1644                   23400638.2584
 -12792584.42648  -9955027.38746  21263547.4224                   21263545.9414
  -8337139.68448  -6486309.16046  20822557.3364                   20822555.7464
   7790891.76647   6085436.16445  22096777.7344                   22096777.0514
 -11982625.82048  -9333060.64146  20987121.3284                   20987118.4144
  13563123.82046  10589598.73443  24041915.5704                   24041918.7464
  -7943060.66848  -6176819.89146  20533565.1954                   20533560.2194
  -6399732.85947  -4975115.07444  23406837.1254                   23406838.2704
  -5787780.44947  -4498082.69544  23321846.8674                   23321846.0004
 11  8 24  0 22  0.0000000  0  9G17G05G10G04G12G09G02G25G30
  24349129.78947  18985655.16844  23420208.3834                   23420208.2274
 -12824263.46948  -9979712.27046  21257519.2584                   21257518.1524
  -8268520.99648  -6432840.04746  20835615.2814                   20835613.2544
   7916332.12947   6183181.86745  22120648.6884                   22120647.4144
 -11982253.22348  -9332770.28546  20987191.9144                   20987188.9344
  13689619.36746  10688166.60544  24065987.3444                   24065989.7344
  -7888563.51248  -6134354.55546  20543935.9924                   20543930.9924
  -6446697.78947  -5011711.00444  23397899.7814                   23397901.1564
  -5834293.79747  -4534326.78544  23312995.5704                   23312994.9344
 11  8 24  0 22 30.0000000  0  9G17G05G10G04G12G09G02G25G30
  24452167.46546  19065944.21944  23439814.9454                   23439815.5704
 -12855518.20348 -10004066.52346  21251571.4844                   21251570.2504
  -8199262.46548  -6378872.36346  20848794.8834                   20848793.0164
   8041862.21147   6280997.46945  22144536.1954                   22144535.0274
 -11981360.51248  -9332074.65246  20987361.6414                   20987358.5824
  13816187.23046  10786790.78143  24090071.6254                   24090075.5634
  -7833802.30148  -6091683.45346  20554356.3364                   20554351.6524
  -6493379.52747  -5048086.26644  23389016.8134                   23389017.7934
  -5880459.58247  -4570300.02044  23304210.6174                   23304210.1884
 11  8 24  0 23  0.0000000  0  9G17G05G10G04G12G09G02G25G30
  24555401.76646  19146386.48844  23459460.7114                   23459460.6174
 -12886345.89148 -10028088.00846  21245705.0084                   21245703.7274
  -8129364.62148  -6324406.50446  20862095.9454                   20862094.1604
   8167480.44947   6378881.77345  22168440.5784                   22168439.5314
 -11979945.72748  -9330972.20346  20987631.0084                   20987628.3954
  13942824.50046  10885469.03543  24114170.1254                   24114172.9264
  -7778777.84048  -6048807.23046  20564827.4534                   20564822.6524
  -6539775.16447  -5084238.59444  23380188.0314                   23380188.7854
  -5926274.81246  -4606000.08244  23295492.6804                   23295491.4654
 11  8 24  0 23 30.0000000  0  9G17G05G10G04G12G09G02G25G30
  24658829.07446  19226979.16844  23479142.4774                   23479141.7544
 -12916748.05948 -10051777.92246  21239919.9534                   21239918.3284
  -8058832.86348  -6269446.68046  20875517.4224                   20875515.7934
   8293180.84847   6476830.09845  22192360.5234                   22192359.1684
 -11978010.96148  -9329464.57846  20987999.2274                   20987996.2034
  14069523.54347  10984195.49243  24138281.7194                   24138283.9454
  -7723495.53548  -6005730.08646  20575347.3754                   20575342.4304
  -6585886.19947  -5120169.14844  23371413.4064                   23371414.3244
  -5971740.89547  -4641428.08244  23286840.3134                   23286839.0004
 11  8 24  0 24  0.0000000  0  9G17G05G10G04G12G09G02G25G30
  24762455.44146  19307726.94144  23498861.9924                   23498860.9534
 -12946716.90248 -10075130.18746  21234216.7194                   21234215.4104
  -7987662.45748  -6213989.21146  20889061.0704                   20889059.1174
   8418967.50847   6574845.66445  22216296.7894                   22216296.1764
 -11975549.00448  -9327546.15646  20988467.1644                   20988464.7154
  14196286.53546  11082971.70743  24162403.4304                   24162407.0234
  -7667950.90648  -5962448.54346  20585916.6954                   20585912.2544
  -6631704.39847  -5155871.53944  23362694.5004                   23362695.3874
  -6016849.27047  -4676577.32844  23278256.2034                   23278255.0474
 11  8 24  0 24 30.0000000  0  9G17G05G10G04G12G09G02G25G30
  24866282.41846  19388631.03944  23518619.2194                   23518619.1254
 -12976248.62948 -10098141.84046  21228597.0784                   21228595.3984
  -7915853.25048  -6158033.96946  20902725.8054                   20902724.1884
   8544840.08647   6672928.16845  22240249.6024                   22240248.6454
 -11972557.10948  -9325214.78546  20989036.9844                   20989033.9734
  14323111.57846  11181796.30143  24186537.3674                   24186540.4344
  -7612144.42248  -5918962.96146  20596536.5314                   20596532.1214
  -6677226.05547  -5191342.83644  23354031.6804                   23354032.8014
  -6061596.29747  -4711445.02744  23269741.2274                   23269739.8164
 11  8 24  0 25  0.0000000  0  9G17G05G10G04G12G09G02G25G30
  24970306.49646  19469688.71544  23538414.4844                   23538414.0204
 -13005344.98448 -10120814.24646  21223060.0474                   21223058.8244
  -7843410.02748  -6101584.68046  20916511.4064                   20916509.9304
   8670792.63747   6771072.99245  22264217.5164                   22264216.4734
 -11969037.30948  -9322472.06246  20989706.7034                   20989703.9494
  14449991.38746  11280663.60543  24210682.2194                   24210684.3634
  -7556081.26248  -5875277.36346  20607205.0314                   20607200.3094
  -6722452.54747  -5226584.15644  23345425.2664                   23345426.0704
  -6105983.20746  -4746032.11744  23261294.0864                   23261293.2934
 11  8 24  0 25 30.0000000  0  9G17G05G10G04G12G09G02G25G30
  25074521.80147  19550895.41044  23558246.5164                   23558245.9104
 -13034009.30948 -10143150.00446  21217605.4534                   21217604.0354
  -7770340.07048  -6044647.02046  20930415.6564                   20930414.2194
   8796817.59047   6869274.24245  22288199.4304                   22288198.3054
 -11964993.88348  -9319321.32446  20990475.7584                   20990473.0474
  14576916.58646  11379566.18843  24234834.8984                   24234837.2734
  -7499768.79748  -5831397.51246  20617920.7504                   20617915.9104
  -6767387.30547  -5261598.18044  23336874.3054                   23336875.3954
  -6150013.34046  -4780341.19144  23252915.9304                   23252914.8914
 11  8 24  0 26  0.0000000  0  9G17G05G10G04G12G09G02G25G30
  25178938.85247  19632259.32044  23578115.4694                   23578116.3594
 -13062229.34448 -10165139.55546  21212235.3754                   21212233.7974
  -7696634.48448  -5987214.07046  20944441.3754                   20944439.7624
   8922923.40647   6967538.51645  22312196.4384                   22312195.2074
 -11960414.85248  -9315753.22346  20991347.2664                   20991344.0474
  14703894.07046  11478509.62943  24258998.3204                   24259000.8754
  -7443197.71548  -5787316.14546  20628686.0784                   20628681.7344
  -6812017.46147  -5296374.86344  23328381.7034                   23328382.3984
  -6193673.78546  -4814362.17644  23244607.2274                   23244606.5354
 11  8 24  0 26 30.0000000  0  9G17G05G10G04G12G09G02G25G30
  25283548.62547  19713773.39144  23598021.9064                   23598022.6994
 -13090012.07848 -10186788.36346  21206948.5784                   21206946.9964
  -7622303.28148  -5929293.62146  20958586.7664                   20958584.7074
   9049099.11747   7065857.23845  22336206.9694                   22336205.6644
 -11955308.27348  -9311774.04746  20992318.8134                   20992316.3834
  14830911.05146  11577483.76643  24283168.3284                   24283172.0234
  -7386378.95748  -5743041.77346  20639498.3754                   20639493.2194
  -6856349.90647  -5330919.57444  23319945.8524                   23319945.8404
  -6236971.19146  -4848100.29344  23236367.8914                   23236367.2424
 11  8 24  0 27  0.0000000  0  9G17G05G10G04G12G09G02G25G30
  25388357.71547  19795442.74644  23617967.1644                   23617966.9844
 -13117348.78548 -10208089.60946  21201746.5164                   21201744.6414
  -7547341.68448  -5870881.97346  20972851.3834                   20972849.1644
   9175349.37547   7164234.04745  22360231.7114                   22360230.9494
 -11949666.07448  -9307377.50446  20993392.5004                   20993390.0314
  14957970.96546  11676491.32443  24307347.0784                   24307351.5354
  -7329307.78548  -5698570.71946  20650358.3834                   20650353.8014
  -6900375.70347  -5365225.36345  23311567.4614                   23311568.5234
  -6279896.65246  -4881548.60944  23228199.4694                   23228198.5044
 11  8 24  0 27 30.0000000  0  9G17G05G10G04G12G09G02G25G30
  25493368.91047  19877269.58644  23637950.3054                   23637950.3404
 -13144235.03948 -10229039.85546  21196630.3284                   21196628.4454
  -7471748.75048  -5811978.35246  20987235.8914                   20987234.5784
   9301674.63747   7262669.29745  22384270.4384                   22384269.2814
 -11943483.87148  -9302560.17646  20994569.2034                   20994565.9414
  15085072.53146  11775531.39143  24331534.2974                   24331536.8014
  -7271982.92248  -5653901.99246  20661267.0634                   20661262.3524
  -6944090.09847  -5399288.50045  23303248.9224                   23303250.0984
  -6322445.25446  -4914703.26644  23220103.0944                   23220101.4454
 11  8 24  0 28  0.0000000  0  9G17G05G10G04G12G09G02G25G30
  25598584.21147  19959255.46544  23657972.0164                   23657972.1604
 -13170665.96148 -10249635.30546  21191600.0084                   21191598.7774
  -7395523.25448  -5752581.83646  21001741.3134                   21001739.2584
   9428075.76247   7361163.69945  22408323.6804                   22408322.7464
 -11936758.35948  -9297319.48846  20995849.0634                   20995846.0124
  15212214.68446  11874603.09043  24355728.3754                   24355731.4184
  -7214403.53948  -5609034.93746  20672224.2424                   20672219.1174
  -6987488.16447  -5433105.18745  23294990.1334                   23294991.5784
  -6364612.04747  -4947560.43744  23212078.3524                   23212077.4104
 11  8 24  0 28 30.0000000  0  9G17G05G10G04G12G09G02G25G30
  25704002.05946  20041399.15244  23678032.9384                   23678032.5864
 -13196641.40248 -10269875.83646  21186657.2034                   21186655.3834
  -7318668.54748  -5692695.02346  21016366.3754                   21016364.1844
   9554548.93447   7459714.21545  22432391.1024                   22432389.9264
 -11929489.91048  -9291655.73446  20997231.9774                   20997229.0394
  15339391.93046  11973702.09843  24379929.8594                   24379933.6134
  -7156573.09448  -5563972.25446  20683228.7274                   20683224.0984
  -7030569.54747  -5466675.10944  23286792.1564                   23286793.4024
  -6406396.55947  -4980119.74244  23204126.8284                   23204126.0394
 11  8 24  0 29  0.0000000  0  9G17G05G10G04G12G09G02G25G30
  25809616.99246  20123696.43444  23698129.9614                   23698130.5634
 -13222163.93048 -10289763.43446  21181800.4224                   21181798.7664
  -7241191.21548  -5632323.05546  21031109.3524                   21031107.2304
   9681087.18047   7558315.43045  22456469.9224                   22456469.0394
 -11921682.26648  -9285571.82846  20998717.6724                   20998715.1214
  15466595.89546  12072821.96543  24404135.8594                   24404138.8554
  -7098498.16848  -5518719.05946  20694280.1254                   20694275.8324
  -7073336.90647  -5500000.35945  23278654.1414                   23278655.1174
  -6447801.47347  -5012383.26244  23196248.2274                   23196247.5434
 11  8 24  0 29 30.0000000  0  9G17G05G10G04G12G09G02G25G30
  25915430.94946  20206148.77344  23718265.6804                   23718266.5084
 -13247231.38748 -10309296.44946  21177030.2664                   21177028.2384
  -7163091.95348  -5571466.45346  21045971.3444                   21045969.3554
   9807689.77047   7656966.77745  22480562.1884                   22480561.1294
 -11913333.03548  -9279065.90646  21000306.5864                   21000303.5664
  15593824.21146  12171960.77343  24428346.9774                   24428350.3984
  -7040179.26248  -5473275.76246  20705378.2274                   20705373.4184
  -7115786.73047  -5533078.16444  23270575.9614                   23270577.1844
  -6488823.20347  -5044348.23044  23188442.0234                   23188441.0944
 11  8 24  0 30  0.0000000  0  9G17G05G10G04G12G09G02G25G30
  26021449.38346  20288760.46944  23738440.6024                   23738441.2664
 -13271835.32048 -10328468.26646  21172348.1724                   21172346.5164
  -7084366.12148  -5510121.62946  21060952.6644                   21060950.6644
   9934360.71947   7755671.41045  22504667.0234                   22504665.6914
 -11904435.03148  -9272132.35946  21001999.7664                   21001997.0204
  15721079.37546  12271120.46943  24452562.9534                   24452566.1724
  -6981611.93448  -5427638.87946  20716522.7274                   20716518.1764
  -7157910.88347  -5565902.17645  23262559.7274                   23262561.2114
  -6529453.41447  -5076008.12544  23180710.0784                   23180709.1024
 11  8 24  0 30 30.0000000  0  9G17G05G10G04G12G09G02G25G30
  26127652.68846  20371516.20344  23758650.5634                   23758651.6214
 -13295993.62148 -10347292.84846  21167751.1564                   21167749.0474
  -7005034.73848  -5448304.94146  21076048.5634                   21076046.3324
  10061078.73447   7854412.70345  22528779.6954                   22528779.2114
 -11895006.58248  -9264785.49246  21003793.7584                   21003790.7974
  15848338.35246  12370283.18843  24476779.6804                   24476782.3634
  -6922817.45348  -5381824.99646  20727711.0164                   20727706.1804
  -7199726.67647  -5598485.90245  23254602.8134                   23254603.6804
  -6569709.41047  -5107376.43044  23173049.8984                   23173048.7974
 11  8 24  0 31  0.0000000  0  9G17G05G10G04G12G09G02G25G30
  26234072.32046  20454440.52344  23778901.6564                   23778902.1214
 -13319672.71948 -10365744.01246  21163244.6484                   21163243.1454
  -6925068.25848  -5385993.39146  21091265.7034                   21091264.1484
  10187873.17247   7953213.53944  22552908.9144                   22552907.2704
 -11885015.23048  -9257000.00046  21005695.2504                   21005692.2814
  15975629.02346  12469470.59043  24501001.6334                   24501005.1484
  -6863765.94948  -5335810.84046  20738948.3364                   20738943.6374
  -7241200.42247  -5630803.08245  23246710.4454                   23246711.6994
  -6609557.52747  -5138426.91444  23165467.2194                   23165465.6724
 11  8 24  0 31 30.0000000  0  9G17G05G10G04G12G09G02G25G30
  26340696.24246  20537524.04744  23799191.0084                   23799191.9654
 -13342882.94948 -10383829.84046  21158827.9384                   21158826.2664
  -6844480.61748  -5323197.80946  21106601.0634                   21106599.2274
  10314730.03547   8052063.03145  22577048.4774                   22577047.3094
 -11874471.71148  -9248784.24646  21007701.7114                   21007698.2074
  16102935.41046  12568670.21543  24525228.6954                   24525231.9964
  -6804471.16448  -5289607.10946  20750231.8364                   20750226.9844
  -7282341.94147  -5662861.37944  23238881.7344                   23238882.4614
  -6649007.52747  -5169167.18744  23157960.0164                   23157958.6414
 11  8 24  0 32  0.0000000  0  9G17G05G10G04G12G09G02G25G30
  26447522.19146  20620764.98844  23819519.8134                   23819520.5394
 -13365624.60948 -10401550.54346  21154500.5864                   21154498.3754
  -6763275.94948  -5259921.43746  21122053.8524                   21122052.3364
  10441645.14847   8150957.90645  22601199.9534                   22601199.0864
 -11863376.93448  -9240138.94146  21009812.8134                   21009809.8404
  16230252.02747  12667877.84843  24549455.8284                   24549459.1174
  -6744937.04348  -5243216.88746  20761560.5554                   20761555.9574
  -7323151.25447  -5694660.79344  23231115.8754                   23231116.5594
  -6688059.20347  -5199597.02744  23150528.0944                   23150527.2384
 11  8 24  0 32 30.0000000  0  9G17G05G10G04G12G09G02G25G30
  26554544.05946  20704158.57444  23839885.5704                   23839886.4304
 -13387901.20348 -10418908.86746  21150261.2664                   21150259.1684
  -6681461.32048  -5196169.75446  21137622.2664                   21137620.5704
  10568611.53947   8249892.71145  22625360.6804                   22625359.6294
 -11851735.63748  -9231067.78546  21012027.9614                   21012024.6764
  16357569.71946  12767086.33643  24573682.6414                   24573686.1604
  -6685170.70748  -5196645.72346  20772933.5474                   20772929.2074
  -7363631.61747  -5726203.86744  23223412.9924                   23223413.5904
  -6726715.85547  -5229719.08244  23143172.0234                   23143171.0984
 11  8 24  0 33  0.0000000  0  9G17G05G10G04G12G09G02G25G30
  26661759.09046  20787702.69544  23860287.3674                   23860288.8594
 -13409713.79748 -10435905.61746  21146110.3674                   21146108.6094
  -6599041.32448  -5131946.35546  21153306.3284                   21153304.6764
  10695624.21947   8348863.59445  22649530.3284                   22649529.7704
 -11839549.63348  -9221572.18046  21014346.8444                   21014343.6884
  16484882.21946  12866290.75443  24597910.3984                   24597913.5634
  -6625176.46948  -5149896.97746  20784350.0944                   20784345.8324
  -7403783.68747  -5757491.10545  23215772.1564                   23215772.6644
  -6764978.04747  -5259533.75044  23135891.2974                   23135890.4344
 11  8 24  0 33 30.0000000  0  9G17G05G10G04G12G09G02G25G30
  26769178.05546  20871405.71144  23880728.6884                   23880729.6564
 -13431049.55148 -10452530.82046  21142050.2504                   21142048.0514
  -6516007.25448  -5067244.47346  21169107.2114                   21169105.5124
  10822691.95747   8447877.37144  22673710.1724                   22673710.2344
 -11826807.09848  -9211642.92646  21016771.7814                   21016769.0084
  16612196.59846  12965496.62543  24622137.7664                   24622141.4964
  -6564945.50448  -5102963.76246  20795811.6254                   20795807.2234
  -7443594.62147  -5788512.51245  23208196.3834                   23208196.4804
  -6802832.91047  -5289031.01644  23128687.9304                   23128686.5354
 11  8 24  0 34  0.0000000  0  9G17G05G10G04G12G09G02G25G30
  26876805.38346  20955271.12144  23901209.7114                   23901210.5124
 -13451902.70348 -10468779.96546  21138081.9774                   21138080.2234
  -6432356.25848  -5002061.86746  21185025.4224                   21185023.5824
  10949817.62947   8546936.29744  22697901.5474                   22697901.1054
 -11813501.68748  -9201275.06246  21019303.5784                   21019300.5824
  16739514.21146  13064705.03143  24646366.0864                   24646369.3594
  -6504474.70348  -5055843.66046  20807319.0944                   20807314.4734
  -7483057.55147  -5819262.76644  23200686.7114                   23200687.4494
  -6840273.51247  -5318205.46544  23121563.1174                   23121562.0784
 11  8 24  0 34 30.0000000  0  9G17G05G10G04G12G09G02G25G30
  26984631.68046  21039291.55944  23921728.7274                   23921729.0354
 -13472280.50448 -10484658.69546  21134204.4844                   21134202.1884
  -6348099.39848  -4936407.16046  21201059.2974                   21201057.0864
  11076990.13747   8646031.71945  22722101.5864                   22722100.9734
 -11799642.43448  -9190475.63346  21021941.1804                   21021938.1214
  16866822.03546  13163905.84443  24670590.3834                   24670594.5704
  -6443774.96148  -5008545.17246  20818869.7114                   20818865.3634
  -7522179.43747  -5849747.26645  23193241.6564                   23193242.4574
  -6877306.78947  -5347062.50044  23114515.4454                   23114514.9264
 11  8 24  0 35  0.0000000  0  9G17G05G10G04G12G09G02G25G30
  27092651.67646  21123462.92644  23942284.3834                   23942284.9184
 -13492186.35948 -10500169.68746  21130416.1564                   21130414.4264
  -6263243.76248  -4870285.87146  21217206.8914                   21217204.5434
  11204202.64547   8745158.31345  22746309.9534                   22746309.5314
 -11785233.69948  -9179248.04346  21024682.9454                   21024680.1684
  16994111.62946  13263092.43843  24694814.2974                   24694816.6644
  -6382852.90248  -4961073.44146  20830462.3914                   20830458.1884
  -7560963.24647  -5879968.31645  23185861.4774                   23185862.4064
  -6913935.63747  -5375604.38744  23107545.6414                   23107544.5944
 11  8 24  0 35 30.0000000  0  9G17G05G10G04G12G09G02G25G30
  27200890.47346  21207804.79744  23962882.2734                   23962882.1374
 -13511592.75448 -10515291.49246  21126723.4614                   21126721.2774
  -6177765.85248  -4803679.69946  21233472.4614                   21233470.6024
  11331478.78947   8844334.46944  22770529.5164                   22770528.8594
 -11770248.18448  -9167571.00446  21027534.6024                   21027531.6914
  17121404.72346  13362281.76243  24719037.5864                   24719040.4534
  -6321684.87148  -4913410.05546  20842102.9774                   20842097.8714
  -7599381.36347  -5909904.42245  23178551.1414                   23178551.5124
  -6950132.44147  -5403809.64544  23100657.4064                   23100656.4734
 11  8 24  0 36  0.0000000  0  9G17G05G10G04G12G09G02G25G30
  27309328.28946  21292301.73044  23983516.3834                   23983516.8094
 -13530517.79748 -10530038.20746  21123121.8754                   21123119.9414
  -6091687.78948  -4736605.87546  21249852.7664                   21249850.7464
  11458796.69547   8943543.16844  22794757.5704                   22794756.5354
 -11754705.44548  -9155459.78146  21030492.1254                   21030489.8134
  17248678.37146  13461455.94944  24743256.0704                   24743260.6294
  -6260292.20348  -4865571.61746  20853785.5314                   20853781.2734
  -7637451.44147  -5939569.34045  23171306.1724                   23171306.7704
  -6985914.87547  -5431692.00444  23093848.2974                   23093846.3874
 11  8 24  0 36 30.0000000  0  9G17G05G10G04G12G09G02G25G30
  27417981.94946  21376966.84843  24004192.3444                   24004192.8634
 -13548943.17648 -10544395.58246  21119616.0164                   21119613.7974
  -6004994.51248  -4669052.66046  21266349.5704                   21266347.4224
  11586171.46147   9042796.20344  22818996.1884                   22818994.7624
 -11738587.11348  -9142900.03146  21033559.1174                   21033556.5314
  17375945.88346  13560625.30143  24767474.2274                   24767478.6804
  -6198659.87548  -4817546.43046  20865513.4064                   20865509.5044
  -7675154.52347  -5968948.28945  23164131.4454                   23164132.0594
  -7021263.98047  -5459236.70744  23087121.0634                   23087120.1134
 11  8 24  0 37  0.0000000  0  9G17G05G10G04G12G09G02G25G30
  27526837.37546  21461789.19544  24024907.5784                   24024908.0274
 -13566880.83248 -10558372.90646  21116202.0944                   21116200.0044
  -5917701.47348  -4601032.10246  21282960.8134                   21282959.0514
  11713587.81647   9142081.64144  22843243.2424                   22843241.7114
 -11721906.56648  -9129902.19146  21036733.4774                   21036730.5084
  17503189.70346  13659776.28543  24791688.7814                   24791691.3444
  -6136803.16448  -4769346.39146  20877284.8134                   20877280.4184
  -7712502.04747  -5998050.20345  23157024.3054                   23157025.1564
  -7056191.06647  -5486452.55544  23080475.4384                   23080473.8164
 11  8 24  0 37 30.0000000  0  9G17G05G10G04G12G09G02G25G30
  27635900.05546  21546773.02344  24045661.3834                   24045661.6644
 -13584323.50848 -10571964.53546  21112882.7504                   21112881.0704
  -5829805.15248  -4532541.44946  21299686.8524                   21299685.3674
  11841049.68047   9241402.51644  22867497.7114                   22867497.0744
 -11704656.96148  -9116460.93046  21040016.5004                   21040013.4104
  17630412.02746  13758910.52743  24815898.1334                   24815901.5824
  -6074717.87148  -4720968.23446  20889099.1484                   20889094.6054
  -7749486.25047  -6026868.99245  23149986.5944                   23149987.2854
  -7090688.41047  -5513333.53944  23073910.5474                   23073909.2814
 11  8 24  0 38  0.0000000  0  9G17G05G10G04G12G09G02G25G30
  27745159.38746  21631910.08644  24066453.1094                   24066453.3284
 -13601279.88748 -10585177.23446  21109656.1334                   21109654.1684
  -5741318.06248  -4463590.45746  21316525.7734                   21316523.4884
  11968544.68447   9340749.23444  22891759.3914                   22891758.5124
 -11686847.86348  -9102583.70746  21043404.9924                   21043401.8834
  17757599.49646  13858017.52343  24840100.7274                   24840106.0274
  -6012416.08648  -4672421.37946  20900954.5784                   20900950.3674
  -7786115.32447  -6055411.07845  23143016.1484                   23143016.8324
  -7124764.15647  -5539886.01244  23067425.9774                   23067424.2974
 11  8 24  0 38 30.0000000  0  9G17G05G10G04G12G09G02G25G30
  26279213.02347  20489614.14544  23787493.0704                   23787492.7814
 -15193154.52748 -11825598.95746  20806732.5234                   20806730.3754
  -7227644.99648  -5621767.27746  21033687.0944                   21033685.2624
  10520669.42247   8212534.68844  22616237.8284                   22616237.1724
 -13243883.34048 -10315858.08246  20747110.8134                   20747108.2424
  16309346.96546  12729508.86743  24564508.1174                   24564512.7234
  -7525303.18848  -5851294.43446  20613061.6174                   20613057.0944
  -9397794.00447  -7311264.55145  22836323.9384                   22836324.3244
  -8733823.03547  -6793698.07444  22761232.1804                   22761230.7584
 11  8 24  0 39  0.0000000  0  9G17G05G10G04G12G09G02G25G30
  26388888.96947  20575075.85544  23808363.2814                   23808363.0204
 -15209109.26248 -11838031.15246  20803696.2814                   20803694.3244
  -7137958.90247  -5551882.00046  21050753.8364                   21050751.8914
  10648249.46947   8311947.66844  22640515.2974                   22640514.3444
 -13224928.50048 -10301088.05946  20750717.9064                   20750714.9264
  16436477.88746  12828571.82043  24588701.0704                   24588704.9924
  -7462549.35548  -5802395.32846  20625003.4064                   20624998.9064
  -9433682.35547  -7339229.46145  22829494.2814                   22829495.0634
  -8767025.18047  -6819569.81644  22754913.8444                   22754912.6994
 11  8 24  0 39 30.0000000  0  9G17G05G10G04G12G09G02G25G30
  26498772.65647  20660699.45743  23829274.0004                   23829273.6724
 -15224561.28148 -11850071.62946  20800756.1024                   20800753.8014
  -7047676.82448  -5481532.32446  21067934.5314                   21067932.0354
  10775868.79347   8411391.23844  22664800.9614                   22664800.0594
 -13205400.25848 -10285871.23446  20754434.2504                   20754431.3244
  16563574.94146  12927608.50443  24612886.2034                   24612889.1644
  -7399572.53948  -5753322.47346  20636987.4614                   20636983.4184
  -9469197.71147  -7366903.74245  22822735.8054                   22822736.4454
  -8799787.85247  -6845099.10244  22748679.2734                   22748677.9774
 11  8 24  0 40  0.0000000  0  9G17G05G10G04G12G09G02G25G30
  26608867.06647  20746487.24243  23850223.8914                   23850224.0234
 -15239505.51648 -11861716.42246  20797912.0944                   20797909.9384
  -6956797.50048  -5410717.25846  21085227.5164                   21085225.5944
  10903529.26647   8510866.89844  22689094.3524                   22689093.2664
 -13185294.35948 -10270204.28546  20758260.0474                   20758257.2624
  16690638.31646  13026618.85243  24637064.1884                   24637068.7584
  -7336371.03148  -5704074.52746  20649014.3284                   20649009.9414
  -9504334.42647  -7394282.96545  22816049.8754                   22816050.6684
  -8832105.53547  -6870281.64844  22742529.6334                   22742528.2934
 11  8 24  0 40 30.0000000  0  9G17G05G10G04G12G09G02G25G30
  26719170.13746  20832437.62143  23871213.6174                   23871213.8794
 -15253942.02748 -11872965.59846  20795164.9614                   20795162.8874
  -6865324.87547  -5339439.88346  21102634.4844                   21102632.3984
  11031227.48847   8610371.98844  22713394.0004                   22713393.3954
 -13164611.98448 -10254088.12546  20762195.8054                   20762192.9454
  16817662.59846  13125598.64543  24661238.0234                   24661241.9534
  -7272948.24648  -5654654.14846  20661083.3134                   20661078.7234
  -9539092.11347  -7421366.85245  22809435.4844                   22809436.4184
  -8863977.83247  -6895117.14545  22736464.3674                   22736463.3054
 11  8 24  0 41  0.0000000  0  9G17G05G10G04G12G09G02G25G30
  26829673.82846  20918544.35543  23892241.6884                   23892242.5984
 -15267877.54348 -11883824.38346  20792513.2034                   20792510.9614
  -6773269.24648  -5267708.22746  21120151.7114                   21120149.9924
  11158953.63347   8709898.82844  22737699.0864                   22737698.4654
 -13143359.76248 -10237527.93746  20766240.1334                   20766237.1884
  16944636.46946  13224539.18044  24685400.1174                   24685405.2664
  -7209313.42248  -5605068.55146  20673192.5234                   20673188.0394
  -9573476.67647  -7448159.98845  22802892.5314                   22802892.3874
  -8895410.55947  -6919610.11744  22730482.7894                   22730481.3284
 11  8 24  0 41 30.0000000  0  9G17G05G10G04G12G09G02G25G30
  26940373.12946  21004803.46943  23913307.3134                   23913307.8244
 -15281315.84448 -11894295.73446  20789955.7424                   20789953.5354
  -6680637.70348  -5195527.79746  21137779.1254                   21137777.0124
  11286701.19547   8809442.34445  22762009.2734                   22762008.2114
 -13121542.71948 -10220527.62546  20770391.5704                   20770388.8954
  17071551.51646  13323433.85943  24709551.9534                   24709555.7154
  -7145473.05548  -5555322.79346  20685341.0004                   20685336.5634
  -9607490.78547  -7474664.47745  22796420.0004                   22796420.4384
  -8926406.49247  -6943762.73044  22724584.2114                   22724583.6454
 11  8 24  0 42  0.0000000  0  9G17G05G10G04G12G09G02G25G30
  27051291.95746  21091233.66443  23934414.2504                   23934415.1994
 -15294230.08248 -11904358.72346  20787498.0704                   20787496.2344
  -6587407.81648  -5122881.12946  21155520.1884                   21155518.2384
  11414493.03547   8909020.35944  22786327.0004                   22786327.0164
 -13099134.94148 -10203067.00046  20774655.5394                   20774652.8914
  17198429.137 6                  24733695.273
  -7081404.32048  -5505399.09846  20697533.1644                   20697528.5004
  -9641107.74247  -7500859.48445  22790022.5394                   22790023.0664
  -8956938.94147  -6967554.18445  22718773.8754                   22718773.3954
 11  8 24  0 42 30.0000000  0  9G17G05G10G04G12G09G02G25G30
  27162419.24646  21177826.29744  23955560.9844                   23955562.1484
 -15306629.85948 -11914020.83646  20785138.2734                   20785135.9104
  -6493592.82048  -5049778.53146  21173372.3444                   21173370.3794
  11542316.48047   9008622.99244  22810651.4224                   22810650.8554
 -13076147.06648 -10185154.35546  20779030.0704                   20779027.1884
  17325255.03546  13453248.84453  24757829.4304                   24757832.6334
  -7017120.00848  -5455307.39846  20709765.8754                   20709761.3244
  -9674336.51647  -7526752.00445  22783699.4454                   22783700.1604
  -8987016.97747  -6990991.54744  22713050.8524                   22713049.4264
 11  8 24  0 43  0.0000000  0  9G17G05G10G04G12G09G02G25G30
  27273753.88746  21264580.50443  23976747.4694                   23976748.6644
 -15318514.81648 -11923281.78546  20782876.9614                   20782874.4964
  -6399196.04748  -4976222.61746  21191335.5234                   21191334.0744
  11670168.85247   9108248.19544  22834980.5634                   22834980.0314
 -13052579.36348 -10166789.88746  20783514.7114                   20783511.8444
  17452024.70346  13552030.27044  24781954.1644                   24781958.7304
  -6952622.39548  -5405049.50046  20722039.5234                   20722035.2034
  -9707175.89847  -7552341.07445  22777450.4694                   22777451.2424
  -9016639.34447  -7014073.85944  22707413.3834                   22707412.4384
 11  8 24  0 43 30.0000000  0  9G17G05G10G04G12G09G02G25G30
  27385288.01646  21351490.18843  23997972.1804                   23997972.6764
 -15329890.89148 -11932146.20746  20780712.0004                   20780709.7344
  -6304227.30148  -4902220.99646  21209407.6564                   21209405.7344
  11798040.96947   9207888.80544  22859314.0234                   22859313.1884
 -13028438.85548 -10147979.09046  20788108.7274                   20788105.6524
  17578727.21546  13650759.34843  24806063.3524                   24806068.1134
  -6887920.89548  -5354632.72746  20734351.3284                   20734347.1484
  -9739631.41047  -7577631.02745  22771274.1254                   22771275.1684
  -9045811.62547  -7036805.46944  22701862.1644                   22701860.6724
 11  8 24  0 44  0.0000000  0  9G17G05G10G04G12G09G02G25G30
  27497029.19146  21438561.19943  24019234.9774                   24019236.4184
 -15340749.13748 -11940607.13346  20778645.7664                   20778643.6564
  -6208681.49248  -4827769.71546  21227589.6414                   21227587.0394
  11925938.95347   9307549.55144  22883652.4844                   22883651.8244
 -13003717.13748 -10128715.40246  20792812.9924                   20792810.0554
  17705366.93845  13749439.51242  24830161.6804                   24830166.9774
  -6823009.39548  -5304052.31246  20746703.6564                   20746699.5354
  -9771693.33247  -7602614.28945  22765173.0234                   22765173.2384
  -9074524.16847  -7059178.82044  22696398.7814                   22696396.7894
 11  8 24  0 44 30.0000000  0  8G17G05G10G04G12G02G25G30
  27608981.37146  21525796.60544  24040539.3754                   24040540.4924
 -15351083.70348 -11948659.98446  20776679.2274                   20776676.9844
  -6112556.38348  -4752867.03946  21245881.4224                   21245879.5514
  12053865.42647   9407232.47744  22907995.9224                   22907995.6644
 -12978409.19148 -10108994.91446  20797628.8834                   20797626.0274
  -6757884.64848  -5253305.73046  20759096.6094                   20759092.0984
  -9803354.89547  -7627285.57445  22759147.8204                   22759148.7194
  -9102770.22747  -7081188.68744  22691023.2344                   22691021.9844
 11  8 24  0 45  0.0000000  0  8G17G05G10G04G12G02G25G30
  27721131.55546  21613186.30543  24061880.3984                   24061882.4064
 -15360905.58648 -11956313.34846  20774810.1254                   20774807.9344
  -6015866.84448  -4677524.53545  21264280.8364                   21264279.0004
  12181806.43047   9506926.72344  22932341.6414                   22932341.6054
 -12952527.27748 -10088827.16846  20802554.1644                   20802551.2894
  -6692561.39148  -5202404.46146  20771527.2734                   20771522.7234
  -9834626.85947  -7651653.26645  22753196.8284                   22753197.7074
  -9130560.65647  -7102843.50444  22685734.6644                   22685733.5164
 11  8 24  0 45 30.0000000  0  8G17G05G10G04G12G02G25G30
  27833492.87146  21700740.54344  24083262.4924                   24083263.3524
 -15370200.27348 -11963555.91846  20773041.4384                   20773039.0864
  -5918601.73048  -4601733.55146  21282789.9454                   21282788.0314
  12309773.37547   9606641.16444  22956693.6174                   22956693.1524
 -12926057.19148 -10068201.11346  20807590.8914                   20807588.2934
  -6627027.80948  -5151339.31646  20783998.0394                   20783993.2774
  -9865493.74647  -7675705.30545  22747323.1024                   22747323.8794
  -9157880.00847  -7124131.27044  22680536.6174                   22680534.4304
 11  8 24  0 46  0.0000000  0  8G17G05G10G04G12G02G25G30
  27946072.46146  21788464.86744  24104686.0554                   24104687.0124
 -15378959.13348 -11970380.95346  20771373.9694                   20771371.9064
  -5820756.21548  -4525490.28546  21301409.0784                   21301407.1724
  12437772.13747   9706380.43044  22981051.2664                   22981050.3554
 -12898991.21148 -10047110.73046  20812741.5634                   20812738.6884
  -6561278.09848  -5100105.75046  20796509.4844                   20796504.9144
  -9895946.26247  -7699434.46145  22741527.9694                   22741528.6994
  -9184718.94947  -7145044.67644  22675428.7344                   22675427.6094
 11  8 24  0 46 30.0000000  0  8G17G05G10G04G12G02G25G30
  28058850.22746  21876343.60244  24126146.8834                   24126147.4924
 -15387200.38348 -11976802.64846  20769805.9924                   20769803.7934
  -5722352.62947  -4448812.17245  21320134.7734                   21320132.8594
  12565781.53547   9806127.96544  23005410.3834                   23005409.6604
 -12871348.77348 -10025571.15246  20818001.9614                   20817998.8834
  -6495333.14848  -5048720.05546  20809058.2344                   20809053.8554
  -9926001.91847  -7722854.38745  22735808.7584                   22735809.2704
  -9211095.16447  -7165597.52344  22670409.3284                   22670408.1134
 11  8 24  0 47  0.0000000  0  8G17G05G10G04G12G02G25G30
  28171831.26246  21964380.73444  24147646.2814                   24147647.6484
 -15394917.20748 -11982815.71146  20768337.7664                   20768335.1254
  -5623387.69148  -4371696.63345  21338967.0944                   21338965.0864
  12693805.35247   9905886.72744  23029772.3444                   23029771.6914
 -12843123.76648 -10003577.62946  20823372.5704                   20823369.7504
  -6429189.38748  -4997179.43446  20821645.3204                   20821641.2154
  -9955653.00847  -7745959.05945  22730166.1884                   22730166.8054
  -9237001.03547  -7185783.86344  22665480.1254                   22665478.5084
 11  8 24  0 47 30.0000000  0  8G17G05G10G04G12G02G25G30
  28285025.81347  22052584.20344  24169186.5864                   24169187.6954
 -15402097.73848 -11988410.87546  20766971.1954                   20766968.8054
  -5523853.58648  -4294137.57845  21357907.6804                   21357905.5354
  12821852.64547  10005663.77744  23054139.3054                   23054138.1054
 -12814305.25048  -9981121.62946  20828857.1644                   20828853.8364
  -6362837.72348  -4945476.81646  20834271.4844                   20834267.0824
  -9984887.31247  -7768738.96945  22724602.8984                   22724603.4844
  -9262424.32047  -7205594.16044  22660642.1334                   22660640.1604
 11  8 24  0 48  0.0000000  0  8G17G05G10G04G12G02G25G30
  28398420.25447  22140943.46144  24190765.0474                   24190765.6684
 -15408754.19948 -11993597.67646  20765704.4384                   20765702.1954
  -5423766.13747  -4216147.37146  21376954.0474                   21376952.0864
  12949908.30547  10105447.34444  23078507.7344                   23078506.6644
 -12784905.70348  -9958212.88346  20834451.2814                   20834448.4734
  -6296293.16048  -4893623.89546  20846934.4694                   20846929.7194
 -10013716.03947  -7791202.83645  22719116.7814                   22719117.1484
  -9287376.41447  -7225037.30144  22655894.0554                   22655892.1914
 11  8 24  0 48 30.0000000  0  8G17G05G10G04G12G02G25G30
  28512017.30947  22229460.59844  24212381.3914                   24212383.2234
 -15414881.83248 -11998372.40646  20764538.3364                   20764535.6884
  -5323124.71548  -4137725.47746  21396105.1724                   21396103.1684
  13077974.30947  10205238.98044  23102877.2424                   23102876.6884
 -12754922.33648  -9934849.21146  20840157.0394                   20840154.1844
  -6229554.03548  -4841619.36746  20859634.3914                   20859629.8444
 -10042133.88347  -7813346.55545  22713709.0864                   22713709.4104
  -9311852.01247  -7244109.15245  22651235.9694                   22651235.1414
 11  8 24  0 49  0.0000000  0  8G17G05G10G04G12G02G25G30
  28625819.53547  22318137.62144  24234038.0784                   24234039.0004
 -15420476.79348 -12002732.05946  20763473.4924                   20763471.3134
  -5221928.93448  -4058871.63745  21415361.9844                   21415360.5824
  13206051.80547  10305039.59444  23127249.7034                   23127249.0784
 -12724351.63348  -9911027.86346  20845974.4384                   20845971.4104
  -6162619.18848  -4789462.32446  20872371.6644                   20872366.9924
 -10070136.18447  -7835166.48045  22708380.3524                   22708380.6644
  -9335846.53547  -7262806.13345  22646670.0164                   22646668.4144
 11  8 24  0 49 30.0000000  0  8G17G05G10G04G12G02G25G30
  28739838.30147  22406983.36344  24255734.6414                   24255736.0824
 -15425525.91448 -12006666.38746  20762512.5084                   20762510.3324
  -5120169.39148  -3979578.48046  21434726.3054                   21434724.5434
  13334151.13347  10404857.20344  23151626.3984                   23151625.5084
 -12693181.18048  -9886739.19546  20851905.6564                   20851902.7194
  -6095478.16848  -4737144.63746  20885148.4224                   20885143.9614
 -10097708.94147  -7856651.69545  22703133.6254                   22703134.1024
  -9359346.22747  -7281117.52745  22642198.1334                   22642196.7854
 11  8 24  0 50  0.0000000  0  8G17G05G10G04G12G02G25G30
  28854061.95346  22495988.75444  24277471.0164                   24277472.0514
 -15430039.48048 -12010183.39846  20761653.7344                   20761651.4574
  -5017860.36348  -3899857.16446  21454195.0864                   21454193.6884
  13462259.08247  10504681.53544  23176005.1254                   23176004.4694
 -12661422.37548  -9861992.07846  20857949.3524                   20857946.6914
  -6028144.19948  -4684676.59846  20897961.4384                   20897957.0744
 -10124861.75847  -7877809.68045  22697966.3444                   22697966.7894
  -9382360.59847  -7299050.75845  22637818.8284                   22637817.1374
 11  8 24  0 50 30.0000000  0  8G17G05G10G04G12G02G25G30
  28968494.77346  22585157.16043  24299246.8524                   24299248.0394
 -15434011.43748 -12013278.37946  20760897.7974                   20760895.9694
  -4914999.34448  -3819705.71146  21473768.8134                   21473766.9964
  13590379.33247  10604515.47344  23200385.3204                   23200384.4534
 -12629070.07048  -9836782.48446  20864105.6884                   20864102.9304
  -5960613.68848  -4632055.40246  20910811.9144                   20910807.1334
 -10151587.65247  -7898635.00845  22692880.9064                   22692881.6684
  -9404882.83247  -7316600.51645  22633532.5634                   22633531.5004
 11  8 24  0 51  0.0000000  0  8G17G05G10G04G12G02G25G30
  29083123.27746  22674478.05943  24321060.1334                   24321060.5044
 -15437454.20748 -12015961.00446  20760242.7194                   20760240.0634
  -4811602.23448  -3739136.53545  21493444.6884                   21493442.5634
  13718497.00047  10704347.40244  23224764.8594                   23224764.4964
 -12596137.24248  -9811120.53946  20870372.8524                   20870369.9344
  -5892901.86748  -4579292.94146  20923696.8204                   20923692.6644
 -10177897.94547  -7919136.48445  22687874.1024                   22687874.5204
  -9426924.48047  -7333775.78145  22629338.4144                   22629337.0044
 11  8 24  0 51 30.0000000  0  8G17G05G10G04G12G02G25G30
  29197950.78146  22763954.02043  24342911.2894                   24342911.6804
 -15440362.39148 -12018227.06246  20759689.3594                   20759686.7234
  -4707667.79748  -3658148.66846  21513222.9534                   21513221.0044
  13846614.27047  10804179.00444  23249145.2894                   23249144.3284
 -12562620.02348  -9785003.21546  20876750.9304                   20876748.0204
  -5825006.17248  -4526387.19946  20936617.2664                   20936612.6644
 -10203786.89147  -7939309.64545  22682947.4844                   22682948.1844
  -9448479.72347  -7350572.02045  22625236.9384                   22625234.6174
 11  8 24  0 52  0.0000000  0  8G17G05G10G04G12G02G25G30
  29312993.77046  22853597.89543  24364802.9774                   24364802.8984
 -15442718.66448 -12020063.06646  20759240.9454                   20759238.2734
  -4603181.97348  -3576731.14145  21533105.7114                   21533103.8484
  13974746.47347  10904022.26244  23273527.8914                   23273527.2424
 -12528501.30948  -9758417.20746  20883243.5474                   20883240.8244
  -5756911.50848  -4473326.42646  20949575.3444                   20949570.6564
 -10229235.76647  -7959139.87945  22678104.3984                   22678105.0474
  -9469530.06647  -7366974.83645  22621230.6414                   22621228.6804
 11  8 24  0 52 30.0000000  0  8G17G05G10G04G12G02G25G30
  29428236.45746  22943397.39543  24386733.5084                   24386733.3674
 -15444537.05548 -12021479.94146  20758894.7194                   20758892.2464
  -4498162.93048  -3494898.13345  21553090.4304                   21553088.3714
  14102877.02347  11003864.24244  23297910.3054                   23297910.2074
 -12493796.00048  -9731374.09846  20889847.4614                   20889844.6684
  -5688634.64848  -4420123.67646  20962567.9384                   20962563.5004
 -10254257.93047  -7978637.63345  22673343.2734                   22673343.4574
  -9490088.94947  -7382994.71944  22617318.5314                   22617316.4304
 11  8 24  0 53  0.0000000  0  8G17G05G10G04G12G02G25G30
  29543696.17246  23033366.01243  24408703.1724                   24408704.9454
 -15445798.45748 -12022462.80546  20758654.6414                   20758652.2114
  -4392595.41448  -3412637.72745  21573179.1484                   21573177.5744
  14231022.21547  11103717.60944  23322295.2974                   23322295.5354
 -12458486.23048  -9703859.98846  20896566.9534                   20896563.8554
  -5620159.19548  -4366766.18446  20975598.5234                   20975593.4144
 -10278833.62947  -7997787.48445  22668666.2504                   22668666.4924
  -9510136.80147  -7398616.37145  22613503.6094                   22613501.7664
 11  8 24  0 53 30.0000000  0  8G17G05G10G04G12G02G25G30
  29659355.81346  23123490.41443  24430712.8914                   24430713.8674
 -15446518.41848 -12023023.77046  20758518.0864                   20758515.3874
  -4286498.68448  -3329964.95345  21593368.7344                   21593366.5354
  14359163.79747  11203568.17244  23346679.9614                   23346679.7854
 -12422588.61748  -9675887.81246  20903398.0704                   20903395.4884
  -5551503.45748  -4313268.21146  20988663.2504                   20988658.5514
 -10302977.62147  -8016600.93745  22664072.0474                   22664072.5664
  -9529688.48047  -7413851.37945  22609782.8674                   22609781.1374
 11  8 24  0 54  0.0000000  0  8G17G05G10G04G12G02G25G30
  29775217.39546  23213772.14842  24452760.6644                   24452761.4804
 -15446693.76248 -12023160.34846  20758484.3984                   20758482.1524
  -4179873.05148  -3246880.04345  21613658.8524                   21613656.7854
  14487302.67247  11303416.62144  23371064.6024                   23371064.0664
 -12386100.88348  -9647455.80146  20910341.6334                   20910339.0274
  -5482666.74648  -4259629.22346  21001762.2664                   21001757.6334
 -10326685.76647  -8035074.77045  22659560.2664                   22659560.7584
  -9548739.93747  -7428696.61744  22606157.4454                   22606155.7664
 11  8 24  0 54 30.0000000  0  8G17G05G10G04G12G02G25G30
  29891284.47746  23304214.02343  24474847.9384                   24474848.2934
 -15446319.81648 -12022868.92246  20758555.7034                   20758553.1454
  -4072717.48848  -3163382.20345  21634049.8834                   21634047.9384
  14615441.18047  11403264.79744  23395447.8834                   23395447.8954
 -12349018.99648  -9618560.81246  20917398.0784                   20917394.6524
  -5413646.88748  -4205847.52346  21014896.2894                   21014891.9104
 -10349952.35547  -8053204.53945  22655133.1174                   22655133.2504
  -9567285.62547  -7443147.74645  22602628.3134                   22602626.6484
 11  8 24  0 55  0.0000000  0  8G17G05G10G04G12G02G25G30
  30007563.00446  23394820.64843  24496974.4454                   24496975.2194
 -15445388.25848 -12022142.98447  20758732.7504                   20758730.3674
  -3965027.60548  -3079468.02045  21654542.6644                   21654540.6374
  14743585.34447  11503117.38344  23419833.3674                   23419832.2814
 -12311335.79348  -9589197.27046  20924568.7584                   20924565.5704
  -5344437.81648  -4151918.39546  21028066.5704                   21028062.0664
 -10372768.14147  -8070983.04345  22650790.9064                   22650791.3364
  -9585316.49247  -7457197.71945  22599196.8984                   22599195.2974
 11  8 24  0 55 30.0000000  0  8G17G05G10G04G12G02G25G30
  28548645.43846  22258001.73843  24219351.3204                   24219352.3714
 -17019309.83648 -13248575.34046  20459225.1884                   20459223.1684
  -5432214.10247  -4222730.22745  21375345.9454                   21375344.4144
  13296326.07047  10375382.84044  23144428.3834                   23144428.1994
 -13848461.23048 -10786957.32846  20632063.7664                   20632060.3054
  -6850450.56648  -5325434.82446  20741481.7344                   20741477.2234
 -11970543.72347  -9316002.92645  22346744.8524                   22346744.6454
 -11178243.05147  -8698439.14145  22296073.6334                   22296071.4024
 11  8 24  0 56  0.0000000  0  9G17G05G10G04G12G29G02G25G30
  28665346.55246  22348937.62943  24241559.6884                   24241560.2704
 -17017260.35548 -13246978.30546  20459615.2424                   20459612.7384
  -5323463.72747  -4137989.67245  21396040.5784                   21396039.1374
  13424477.04746  10475240.71144  23168815.0474                   23168814.4454
 -13809574.78548 -10756656.18746  20639463.3284                   20639460.5664
  -6355280.81256  -4945113.28953  24501905.7034                   24501906.0474
  -6780867.79348  -5271214.50046  20754722.8754                   20754718.3524
 -11992452.38347  -9333074.57045  22342575.6954                   22342575.8954
 -11195239.14547  -8711682.79345  22292839.3204                   22292837.6524
 11  8 24  0 56 30.0000000  0  9G17G05G10G04G12G29G02G25G30
  28782243.02046  22440025.78143  24263804.7734                   24263805.3634
 -17014665.43748 -13244956.25046  20460109.1954                   20460106.9144
  -5214202.60247  -4052851.13745  21416832.4144                   21416830.3754
  13552614.06346  10575087.67244  23193198.4614                   23193198.5124
 -13770102.20348 -10725898.30546  20646974.3984                   20646971.6804
  -6388406.25046  -4970925.25843  24495601.5474                   24495601.5124
  -6711115.65248  -5216862.19546  20767996.3594                   20767991.6374
 -12013919.89148  -9349802.45745  22338490.3754                   22338490.5004
 -11211730.55147  -8724533.18445  22289700.7814                   22289699.1214
 11  8 24  0 57  0.0000000  0  9G17G05G10G04G12G29G02G25G30
  28899348.19947  22531276.55944  24286088.6954                   24286089.8164
 -17011510.52348 -13242497.83246  20460709.4304                   20460706.9614
  -5104419.74247  -3967306.06245  21437723.1644                   21437721.7274
  13680749.71946  10674933.59444  23217582.1564                   23217581.9494
 -13730029.43448 -10694672.74646  20654600.1484                   20654597.5004
  -6421592.69147  -4996784.74643  24489286.9774                   24489286.3554
  -6641181.75848  -5162368.26246  20781304.1564                   20781299.9024
 -12034930.57047  -9366174.38745  22334492.0004                   22334492.3484
 -11227701.69947  -8736978.18045  22286661.2734                   22286659.6564
 11  8 24  0 57 30.0000000  0  9G17G05G10G04G12G29G02G25G30
  29016658.15246  22622686.91044  24308412.0164                   24308412.8484
 -17007798.41448 -13239605.24647  20461415.7504                   20461413.0274
  -4994121.33248  -3881359.26645  21458712.3754                   21458710.8014
  13808879.19146  10774774.68843  23241964.4384                   23241963.7544
 -13689360.12148 -10662982.34846  20662339.1414                   20662336.3134
  -6454843.51647  -5022694.37143  24482959.3444                   24482959.4534
  -6571071.17248  -5107736.63746  20794645.7734                   20794640.7774
 -12055486.14147  -9382191.67245  22330580.3524                   22330580.8164
 -11243154.44547  -8749019.23445  22283720.4844                   22283719.1214
 11  8 24  0 58  0.0000000  0  9G17G05G10G04G12G29G02G25G30
  29134173.01247  22714256.96143  24330774.2194                   24330775.6844
 -17003527.45348 -13236277.18747  20462228.5314                   20462225.9574
  -4883309.27348  -3795012.21545  21479799.4924                   21479797.7464
  13937001.71546  10874610.39543  23266345.0784                   23266345.0554
 -13648093.69948 -10630826.67246  20670191.6414                   20670188.9144
  -6488157.96547  -5048653.59043  24476619.8204                   24476619.6214
  -6500784.77048  -5052968.02346  20808021.1414                   20808016.6174
 -12075583.97747  -9397852.28545  22326755.7424                   22326756.2344
 -11258086.46547  -8760654.51245  22280879.1094                   22280877.2194
 11  8 24  0 58 30.0000000  0  9G17G05G10G04G12G29G02G25G30
  29251889.30947  22805983.95744  24353174.8524                   24353176.0824
 -16998700.03948 -13232515.52047  20463147.3524                   20463144.5704
  -4771990.04748  -3708269.96945  21500982.6954                   21500981.2774
  14065112.58246  10974436.97344  23290724.4384                   23290723.9384
 -13606233.87948 -10598208.60946  20678157.6254                   20678154.9964
  -6521539.18446  -5074664.82443  24470267.8444                   24470267.0234
  -6430327.50848  -4998066.27746  20821428.5004                   20821423.9774
 -12095225.89148  -9413157.64545  22323018.1724                   22323017.7854
 -11272499.71147  -8771885.57845  22278136.0634                   22278134.7704
 11  8 24  0 59  0.0000000  0  9G17G05G10G04G12G29G02G25G30
  29369808.06347  22897868.71544  24375614.4304                   24375615.4534
 -16993313.23448 -13228317.97346  20464171.7584                   20464169.7894
  -4660163.70748  -3621132.56645  21522262.8674                   21522260.7274
  14193212.88746  11074255.34044  23315101.0944                   23315101.0634
 -13563778.07448 -10565126.13746  20686236.6884                   20686233.6024
  -6554984.87546  -5100726.32843  24463902.3054                   24463902.3134
  -6359698.02048  -4943030.31646  20834868.7814                   20834864.2664
 -12114407.34447  -9428104.20745  22319368.0864                   22319367.8204
 -11286389.84747  -8782709.01745  22275493.0944                   22275491.5474
 11  8 24  0 59 30.0000000  0  9G17G05G10G04G12G29G02G25G30
  29487923.81647  22989906.94144  24398090.9384                   24398091.7464
 -16987371.34048 -13223687.88747  20465302.8444                   20465300.2464
  -4547838.51248  -3533606.45345  21543637.4384                   21543635.7464
  14321296.19146  11174060.43444  23339474.4844                   23339473.9224
 -13520731.62548 -10531583.43746  20694428.3364                   20694425.1414
  -6588499.60946  -5126841.61343  24457525.4774                   24457525.0634
  -6288903.18048  -4887865.51246  20848340.5314                   20848336.1294
 -12133131.84847  -9442694.71145  22315805.0554                   22315804.8554
 -11299760.47347  -8793127.64545  22272948.7424                   22272947.2624
 11  8 24  1  0  0.0000000  0  9G17G05G10G04G12G29G02G25G30
  29606245.99247  23082106.03544  24420606.7974                   24420607.3594
 -16980863.77348 -13218617.01247  20466540.9774                   20466538.6054
  -4435008.21948  -3445686.76245  21565108.5394                   21565106.4534
  14449370.68046  11273858.68443  23363845.8364                   23363845.7584
 -13477084.79348 -10497572.90246  20702733.8754                   20702730.6684
  -6622073.83246  -5153003.24643  24451135.0314                   24451135.9574
  -6217934.93748  -4832565.59046  20861845.3284                   20861840.8954
 -12151388.05547  -9456920.28945  22312330.8204                   22312331.2074
 -11312600.44947  -8803132.78545  22270504.9534                   22270503.6644
 11  8 24  1  0 30.0000000  0  9G17G05G10G04G12G29G02G25G30
  29724775.96547  23174467.05144  24443162.0554                   24443163.6484
 -16973788.22748 -13213103.56247  20467887.5234                   20467885.0314
  -4321673.43048  -3357373.95345  21586675.4224                   21586673.5744
  14577437.24647  11373650.74244  23388216.5004                   23388215.8754
 -13432836.68448 -10463093.84446  20711154.0084                   20711151.1254
  -6655705.41046  -5179209.59443  24444735.8204                   24444735.8324
  -6146792.53148  -4777129.94546  20875383.5474                   20875379.2704
 -12169172.18447  -9470778.03945  22308946.5084                   22308946.5784
 -11324906.34047  -8812721.76245  22268163.7424                   22268161.7854
 11  8 24  1  1  0.0000000  0  9G17G05G10G04G12G29G02G25G30
  29843502.28947  23266981.05544  24465754.9454                   24465755.8324
 -16966154.68748 -13207155.31247  20469340.1334                   20469337.5514
  -4207847.94148  -3268678.78545  21608335.8204                   21608333.5044
  14705483.51247  11473426.98444  23412583.2194                   23412582.7544
 -13387998.14848 -10428154.71946  20719686.3984                   20719683.2704
  -6689404.93046  -5205468.86743  24438323.1254                   24438323.1334
  -6075488.48048  -4721568.34446  20888951.9614                   20888947.6844
 -12186493.43747  -9484275.09845  22305650.4144                   22305650.3404
 -11336687.44947  -8821901.82045  22265921.9534                   22265920.3554
 11  8 24  1  1 30.0000000  0  8G05G10G04G12G29G02G25G30
 -16957961.59848 -13200771.05146  20470899.1094                   20470896.9384
  -4093533.81248  -3179602.86745  21630089.0704                   21630086.9144
  14833509.09447  11573187.10944  23436946.0784                   23436945.9224
 -13342568.43048 -10392754.93446  20728331.4384                   20728328.4304
  -6723171.35246  -5231780.32043  24431897.8754                   24431897.6604
  -6004023.27048  -4665881.16046  20902551.6334                   20902547.0004
 -12203349.26247  -9497409.48045  22302443.0554                   22302442.8014
 -11347941.37947  -8830671.08645  22263780.2584                   22263778.7274
 11  8 24  1  2  0.0000000  0  8G05G10G04G12G29G02G25G30
 -16949188.15648 -13193934.56647  20472568.5164                   20472565.7814
  -3978713.52048  -3090132.52745  21651938.1884                   21651936.4534
  14961533.19947  11672946.06644  23461307.9534                   23461307.6764
 -13296527.75048 -10356879.07446  20737092.7274                   20737089.8244
  -6756984.41846  -5258128.08643  24425463.7504                   24425462.8554
  -5932378.12948  -4610053.76646  20916185.0314                   20916180.6994
 -12219717.60947  -9510164.02045  22299328.0784                   22299327.8284
 -11358646.44147  -8839012.67245  22261743.2504                   22261741.4064
 11  8 24  1  2 30.0000000  0  8G05G10G04G12G29G02G25G30
 -16939857.55948 -13186663.93447  20474344.0314                   20474341.6054
  -3863414.46148  -3000289.14145  21673879.0394                   21673877.0784
  15089529.94947  11772683.71144  23485664.8914                   23485664.6604
 -13249900.41448 -10320546.09046  20745965.7114                   20745962.6684
  -6790867.88746  -5284530.72343  24419015.1884                   24419015.1024
  -5860578.56648  -4554106.05146  20929848.0864                   20929843.4804
 -12235621.09847  -9522556.32845  22296301.9774                   22296301.6374
 -11368825.36747  -8846944.28545  22259806.1334                   22259804.2114
 11  8 24  1  3  0.0000000  0  8G05G10G04G12G29G02G25G30
 -16929942.15648 -13178937.61346  20476231.1094                   20476228.5744
  -3747611.98448  -2910053.46545  21695915.5554                   21695913.5664
  15217525.77747  11872420.66044  23510022.0944                   23510021.2814
 -13202659.25048 -10283734.79346  20754955.3754                   20754952.2504
  -6824794.15247  -5310966.72743  24412559.0234                   24412559.2624
  -5788598.96148  -4498018.03946  20943545.2974                   20943541.3164
 -12251030.44947  -9534563.59045  22293369.5314                   22293369.5084
 -11378449.12947  -8854443.29345  22257974.7814                   22257973.5044
 11  8 24  1  3 30.0000000  0  8G05G10G04G12G29G02G25G30
 -16919450.72348 -13170762.43046  20478227.5164                   20478224.8754
  -3631318.91447  -2819435.50045  21718045.0864                   21718043.5354
  15345509.99247  11972148.56644  23534376.2734                   23534376.3914
 -13154814.20748 -10246452.94946  20764060.0314                   20764056.6374
  -6858772.58246  -5337443.35943  24406093.6024                   24406093.1804
  -5716450.04748  -4441798.09446  20957274.8754                   20957270.4144
 -12265953.56247  -9546191.96945  22290529.4224                   22290529.2664
 -11387525.87947  -8861516.06245  22256247.5164                   22256245.6414
 11  8 24  1  4  0.0000000  0  8G05G10G04G12G29G02G25G30
 -16908397.58248 -13162149.55947  20480330.7734                   20480328.0514
  -3514553.13348  -2728449.19945  21740265.0084                   21740263.1024
  15473466.36347  12071854.77344  23558726.0474                   23558725.5664
 -13106380.70348 -10208712.55946  20773276.3834                   20773273.4734
  -6892817.73046  -5363971.98843  24399614.5234                   24399614.3244
  -5644148.04748  -4385458.85946  20971033.2664                   20971028.9304
 -12280403.60547  -9557451.71545  22287779.7894                   22287780.3054
 -11396068.93447  -8868172.95745  22254621.7424                   22254620.1724
 11  8 24  1  4 30.0000000  0  8G05G10G04G12G29G02G25G30
 -16896763.98448 -13153084.38747  20482544.6644                   20482541.9344
  -3397299.19148  -2637082.52345  21762578.0234                   21762576.3714
  15601412.25447  12171552.79744  23583073.2814                   23583072.4534
 -13057341.02748 -10170499.83246  20782608.6414                   20782605.4144
  -6926911.08646  -5390538.14143  24393127.2344                   24393126.8874
  -5571676.14548  -4328987.25046  20984824.2894                   20984819.9104
 -12294360.64848  -9568327.31645  22285123.7584                   22285123.9104
 -11404058.73047  -8874398.75445  22253101.3984                   22253099.6684
 11  8 24  1  5  0.0000000  0  8G05G10G04G12G29G02G25G30
 -16884563.63748 -13143577.57847  20484866.2034                   20484863.5004
  -3279574.30148  -2545348.85245  21784979.8444                   21784978.2344
  15729331.85247  12271230.34044  23607415.2504                   23607415.6524
 -13007709.80948 -10131826.16846  20792052.8134                   20792050.1094
  -6961066.57846  -5417152.73443  24386627.2344                   24386627.0474
  -5499050.05948  -4272395.48046  20998644.3364                   20998639.9614
 -12307837.43447  -9578828.68445  22282559.1024                   22282559.5164
 -11411508.19947  -8880203.52345  22251683.6724                   22251682.1054
 11  8 24  1  5 30.0000000  0  8G05G10G04G12G29G02G25G30
 -16871798.57448 -13133630.75447  20487295.1724                   20487292.9454
  -3161383.82848  -2453252.39545  21807471.0474                   21807469.0864
  15857221.52347  12370884.58644  23631751.8364                   23631752.0944
 -12957489.88748 -10092693.77346  20801609.6024                   20801606.7424
  -6995286.59046  -5443817.60543  24380115.4304                   24380115.2344
  -5426273.37548  -4215686.37546  21012493.4534                   21012489.1644
 -12320834.69148  -9588956.38346  22280086.2814                   22280086.5084
 -11418418.35247  -8885588.02745  22250368.8054                   22250367.3524
 11  8 24  1  6  0.0000000  0  8G05G10G04G12G29G02G25G30
 -16858451.30148 -13123230.24647  20489835.4144                   20489832.6094
  -3042713.97747  -2360782.39545  21830053.2734                   21830051.3794
  15985097.18447  12470527.92244  23656085.6414                   23656085.9454
 -12906664.89148 -10053089.89146  20811281.1884                   20811278.3594
  -7029553.53946  -5470519.05144  24373594.7814                   24373594.2464
  -5353330.85948  -4158848.04746  21026374.0864                   21026369.7704
 -12333333.91048  -9598696.00445  22277707.6024                   22277707.8014
 -11424770.82447  -8890537.99645  22249159.7894                   22249157.4224
 11  8 24  1  6 30.0000000  0  8G05G10G04G12G29G02G25G30
 -16844529.61348 -13112382.14847  20492484.0164                   20492481.6884
  -2923576.16848  -2267947.75845  21852724.6884                   21852722.7854
  16112949.27747  12570152.87144  23680415.8984                   23680414.8404
 -12855243.43748 -10013021.23846  20821066.5234                   20821063.3244
  -7063875.45746  -5497263.34044  24367063.5784                   24367063.1174
  -5280232.03548  -4101887.93046  21040284.2664                   21040279.9344
 -12345341.65648  -9608052.66846  22275422.5554                   22275422.6524
 -11430572.56647  -8895058.82445  22248055.6024                   22248054.0704
 11  8 24  1  7  0.0000000  0  8G05G10G04G12G29G02G25G30
 -16830037.83648 -13101089.82047  20495241.6334                   20495239.1844
  -2803978.22348  -2174754.55145  21875483.0944                   21875481.2624
  16240771.93446  12669754.97343  23704738.9614                   23704739.0474
 -12803230.82048  -9972491.93746  20830964.1414                   20830960.9304
  -7098256.81246  -5524053.93444  24360520.7584                   24360520.2344
  -5206982.98048  -4044810.74246  21054223.3054                   21054218.8794
 -12356861.18047  -9617028.89846  22273230.7974                   22273230.4024
 -11435827.05547  -8899153.19945  22247055.9144                   22247054.5164
 11  8 24  1  7 30.0000000  0  8G05G10G04G12G29G02G25G30
 -16814962.40248 -13089342.69947  20498110.6644                   20498108.1564
  -2683910.02048  -2081194.93045  21898331.6564                   21898329.5664
  16368577.14147  12769343.43843  23729059.4224                   23729059.3834
 -12750614.64548  -9931492.33246  20840976.3284                   20840973.7344
  -7132684.52746  -5550880.66044  24353969.2734                   24353968.8014
  -5133572.28148  -3987607.60546  21068192.7894                   21068188.3834
 -12367877.99648  -9625613.39146  22271133.8834                   22271134.5124
 -11440520.08647  -8902810.09445  22246162.7974                   22246161.3444
 11  8 24  1  8  0.0000000  0  8G05G10G04G12G29G02G25G30
 -16799325.53948 -13077158.09047  20501086.2194                   20501083.8284
  -2563397.27348  -1987288.88745  21921264.1334                   21921262.1054
  16496341.05147  12868899.72343  23753372.6804                   23753372.8284
 -12697418.37548  -9890040.69946  20851099.4304                   20851096.5274
  -7167180.52046  -5577760.61744  24347405.0474                   24347404.0474
  -5060023.57848  -3930296.93046  21082188.4144                   21082184.2544
 -12378413.05547  -9633822.49646  22269128.8594                   22269128.7464
 -11444672.82047  -8906045.98045  22245372.6644                   22245371.0084
 11  8 24  1  8 30.0000000  0  8G05G10G04G12G29G02G25G30
 -16783100.09448 -13064514.85547  20504173.7584                   20504171.4414
  -2442416.20348  -1893017.93045  21944286.2504                   21944284.6134
  16624089.47347  12968443.94144  23777681.7114                   23777682.3524
 -12643615.35248  -9848116.27346  20861338.0314                   20861334.6684
  -7201717.60946  -5604672.58244  24340832.8914                   24340831.9144
  -4986311.11748  -3872858.65246  21096215.8524                   21096210.9384
 -12388437.81248  -9641633.96545  22267221.5234                   22267221.8204
 -11448257.02047  -8908838.82845  22244690.3914                   22244688.6024
 11  8 24  1  9  0.0000000  0  8G05G10G04G12G29G02G25G30
 -16766297.88348 -13051422.18747  20507371.1644                   20507368.6214
  -2320981.98048  -1798393.85945  21967394.2424                   21967391.9924
  16751809.11347  13067965.72344  23801986.5004                   23801986.0824
 -12589218.44548  -9805729.08246  20871689.2734                   20871686.2274
  -7236307.70346  -5631625.83644  24334250.7734                   24334249.9534
  -4912448.98448  -3815303.75046  21110271.2424                   21110266.8204
 -12397962.91847  -9649056.10245  22265408.6954                   22265408.9844
 -11451283.67647  -8911197.25045  22244114.7034                   22244112.7154
 11  8 24  1  9 30.0000000  0  8G05G10G04G12G29G02G25G30
 -16748921.36748 -13037882.00847  20510677.7734                   20510675.1644
  -2199100.21948  -1703421.06245  21990587.7424                   21990585.5004
  16879496.42647  13167462.31343  23826283.8364                   23826283.9264
 -12534231.03148  -9762881.74246  20882152.8134                   20882150.2974
  -7270952.63346  -5658621.84044  24327657.6884                   24327656.5704
  -4838440.82048  -3757635.06246  21124354.3444                   21124350.0314
 -12406989.50448  -9656089.76646  22263691.0944                   22263691.0354
 -11453754.19147  -8913122.29345  22243644.4614                   22243642.3364
 11  8 24  1 10  0.0000000  0  8G05G10G04G12G29G02G25G30
 -16730963.82848 -13023889.08647  20514094.4454                   20514092.0984
  -2076767.85248  -1608097.16045  22013866.7734                   22013865.0744
  17007156.31647  13266937.56343  23850577.1954                   23850576.5784
 -12478647.47348  -9719569.87946  20892730.4454                   20892727.4454
  -7305646.30146  -5685655.81243  24321055.5554                   24321055.5664
  -4764281.57048  -3699848.63346  21138466.8054                   21138462.0904
 -12415509.90648  -9662729.00046  22262069.9774                   22262069.6524
 -11455661.12547  -8914608.18445  22243281.7114                   22243279.5514
 11  8 24  1 10 30.0000000  0  8G05G10G04G12G29G02G25G30
 -16712434.85948 -13009450.90247  20517620.7034                   20517618.4574
  -1953997.68048  -1512432.10945  22037228.9614                   22037227.0164
  17134778.01647  13366383.05543  23874863.3364                   23874862.4024
 -12422478.58648  -9675801.91046  20903418.8204                   20903416.0234
  -7340397.94146  -5712734.95344  24314442.5234                   24314441.8834
  -4689982.80948  -3641953.50046  21152605.3834                   21152600.4304
 -12423532.35548  -9668980.23446  22260543.4064                   22260543.3014
 -11457013.08647  -8915661.62545  22243024.2114                   22243022.2464
 11  8 24  1 11  0.0000000  0  8G05G10G04G12G29G02G25G30
 -16693322.59048 -12994558.19147  20521257.4384                   20521255.0234
  -1830781.27348  -1416419.32845  22060676.2344                   22060674.8244
  17262372.00447  13465806.93043  23899143.3444                   23899142.6524
 -12365713.53148  -9631569.39846  20914220.4694                   20914217.9734
  -7375195.38346  -5739849.78544  24307821.4924                   24307820.2704
  -4615533.77348  -3583941.26646  21166772.5474                   21166767.8284
 -12431043.90648  -9674833.34846  22259113.5634                   22259113.9344
 -11457797.33647  -8916272.70745  22242875.1644                   22242872.8244
 11  8 24  1 11 30.0000000  0  8G05G10G04G12G29G02G25G30
 -16673636.67248 -12979218.47347  20525003.7274                   20525001.3674
  -1707131.97748  -1320069.24245  22084206.1174                   22084204.5864
  17389927.24247  13565200.62143  23923416.2114                   23923416.0124
 -12308362.68448  -9586880.41846  20925134.1414                   20925131.3524
  -7410048.34046  -5767007.87544  24301188.7584                   24301188.2664
  -4540945.89148  -3525820.83646  21180966.1174                   21180961.8054
 -12438052.98448  -9680294.94146  22257779.8284                   22257779.5514
 -11458022.71947  -8916448.29745  22242832.0314                   22242830.0864
 11  8 24  1 12  0.0000000  0  8G05G10G04G12G29G02G25G30
 -18228793.17248 -14191028.70347  20229067.1724                   20229064.9774
  -3158465.77347  -2450978.68745  21808026.5394                   21808024.4734
  15942030.15246  12436969.09043  23647890.9144                   23647890.2894
 -13825841.91448 -10769331.75846  20636367.3984                   20636364.5704
  -9020374.44146  -7021807.36744  23994753.7974                   23994752.6804
  -6041634.77748  -4695188.79746  20895394.3834                   20895390.0864
 -14019975.22748 -10912961.59846  21956749.9224                   21956750.2384
 -13033104.91047 -10143785.04345  21943103.8284                   21943101.5124
 11  8 24  1 12 30.0000000  0  8G05G10G04G12G29G02G25G30
 -18207948.28948 -14174785.91047  20233033.9694                   20233031.3204
  -3033948.53947  -2353952.29345  21831721.6484                   21831719.8134
  16069516.21947  12536308.82043  23672150.8204                   23672149.5594
 -13767310.82448 -10723723.11746  20647505.4774                   20647502.9654
  -9055325.44546  -7049041.84844  23988102.3914                   23988102.2234
  -5966761.60948  -4636846.07446  20909642.0234                   20909637.5084
 -14025963.74648 -10917627.94546  21955610.4224                   21955610.4384
 -13032197.81647 -10143078.18745  21943276.5944                   21943274.4304
 11  8 24  1 13  0.0000000  0  8G05G10G04G12G29G02G25G30
 -18186524.79348 -14158092.24247  20237110.8054                   20237108.3244
  -2909002.92247  -2256592.06645  21855497.9144                   21855495.7274
  16196964.97747  12635619.53543  23696403.7424                   23696402.1564
 -13708191.89548 -10677656.40646  20658755.4454                   20658753.0824
  -9090325.88646  -7076314.84244  23981442.1254                   23981441.6994
  -5891748.92248  -4578394.63346  20923916.6884                   20923912.0744
 -14031440.89548 -10921895.82445  21954568.2814                   21954568.0824
 -13030723.83647 -10141929.60945  21943557.1804                   21943555.1724
 11  8 24  1 13 30.0000000  0  8G05G10G04G12G29G02G25G30
 -18164524.32048 -14140948.98447  20241297.0784                   20241294.5434
  -2783634.41447  -2158902.32445  21879354.2344                   21879352.6564
  16324373.37147  12734898.75443  23720648.6024                   23720647.3444
 -13648488.27048 -10631134.08646  20670116.9454                   20670114.4184
  -9125377.80146  -7103627.94144  23974771.7424                   23974771.3014
  -5816600.17648  -4519837.16446  20938217.2664                   20938212.4964
 -14036407.52748 -10925765.90245  21953623.1414                   21953623.0744
 -13028684.21947 -10140340.27045  21943945.3914                   21943943.0634
 11  8 24  1 14  0.0000000  0  8G05G10G04G12G29G02G25G30
 -18141941.97748 -14123352.32447  20245594.4384                   20245592.1484
  -2657840.60947  -2060881.18445  21903292.5314                   21903290.5704
  16451746.05547  12834150.15243  23744887.0864                   23744885.8954
 -13588194.93048 -10584152.25046  20681590.0394                   20681587.5744
  -9160474.73046  -7130976.11344  23968093.0084                   23968092.3634
  -5741310.96148  -4461170.24246  20952544.0634                   20952539.6454
 -14040856.77048 -10929232.82446  21952776.1024                   21952776.3164
 -13026072.34447 -10138305.01645  21944442.0474                   21944440.3874
 11  8 24  1 14 30.0000000  0  8G05G10G04G12G29G02G25G30
 -18118786.78148 -14105309.28147  20250000.7734                   20249998.1844
  -2531634.11747  -1962538.47745  21927308.8284                   21927307.0124
  16579072.36746  12933365.39843  23769116.0234                   23769115.7734
 -13527323.14548 -10536719.67246  20693173.7734                   20693171.0004
  -9195626.06246  -7158366.66844  23961403.8284                   23961403.2664
  -5665892.12148  -4402402.31646  20966895.5474                   20966891.2034
 -14044796.72748 -10932302.89546  21952026.5704                   21952026.6024
 -13022896.75847 -10135830.50845  21945046.3984                   21945044.3444
 11  8 24  1 15  0.0000000  0  8G05G10G04G12G29G02G25G30
 -18095039.89548 -14086805.17247  20254519.6414                   20254517.0514
  -2404999.42647  -1863862.09045  21951406.6094                   21951404.6884
  16706370.08646  13032558.34843  23793340.1174                   23793339.7974
 -13465854.73448 -10488822.19146  20704870.8674                   20704868.1644
  -9230812.35946  -7185784.50844  23954708.5474                   23954707.3984
  -5590326.25448  -4343519.83246  20981275.7814                   20981270.8554
 -14048207.35548 -10934960.49645  21951377.5944                   21951377.6094
 -13019137.66847 -10132901.32445  21945761.7974                   21945759.2234
 11  8 24  1 15 30.0000000  0  8G05G10G04G12G29G02G25G30
 -18070719.75848 -14067854.39147  20259147.4304                   20259144.8794
  -2277957.94547  -1764868.73045  21975581.4694                   21975580.1024
  16833620.05146  13131714.10243  23817554.0314                   23817554.8404
 -13403808.25448 -10440474.28146  20716677.9144                   20716675.1454
  -9266051.00447  -7213243.11344  23948002.2344                   23948001.4344
  -5514632.66848  -4284537.82046  20995679.4064                   20995675.0204
 -14051105.45748 -10937218.74646  21950826.1094                   21950825.7234
 -13014812.33247 -10129530.91845  21946584.8204                   21946582.8634
 11  8 24  1 16  0.0000000  0  8G05G10G04G12G29G02G25G30
 -18045824.10248 -14048455.14147  20263885.2424                   20263882.3554
  -2150510.61347  -1665559.12945  21999833.9844                   21999831.9384
  16960823.45746  13230833.55543  23841760.3674                   23841760.6484
 -13341183.17648 -10391675.50446  20728594.6804                   20728592.2464
  -9301339.71546  -7240740.71944  23941287.8674                   23941286.6054
  -5438810.48848  -4225455.61346  21010107.8054                   21010103.5984
 -14053487.76648 -10939075.07446  21950372.8054                   21950372.7774
 -13009917.68747 -10125716.88745  21947516.2734                   21947514.2154
 11  8 24  1 16 30.0000000  0  8G05G10G04G12G29G02G25G30
 -18020337.96948 -14028595.78947  20268735.1484                   20268732.5704
  -2022645.84047  -1565924.25045  22024166.1564                   22024164.2304
  17087994.07846  13329927.46943  23865960.3054                   23865960.6954
 -13277965.54748 -10342415.01246  20740624.7274                   20740622.4184
  -9336662.98446  -7268265.27744  23934565.5784                   23934564.5274
  -5362846.03148  -4166262.53546  21024563.2034                   21024558.8594
 -14055338.07848 -10940516.85546  21950020.5864                   21950020.4694
 -13004438.02047 -10121447.00445  21948559.0784                   21948556.7934
 11  8 24  1 17  0.0000000  0  8G05G10G04G12G29G02G25G30
 -17994262.46548 -14008277.17647  20273696.9064                   20273694.3324
  -1894367.95347  -1465967.48045  22048576.5864                   22048574.3524
  17215130.10246  13428994.43443  23890153.7584                   23890154.0594
 -13214157.72348 -10292694.62946  20752767.1024                   20752764.4924
  -9372021.30146  -7295817.13344  23927836.9534                   23927836.2814
  -5286741.50848  -4106960.31246  21039045.8914                   21039041.4344
 -14056656.08248 -10941543.86746  21949769.8984                   21949769.9024
 -12998373.35547 -10116721.27345  21949713.2664                   21949710.8284
 11  8 24  1 17 30.0000000  0  8G05G10G04G12G29G02G25G30
 -17967614.09448 -13987512.18447  20278767.9304                   20278765.1214
  -1765696.66047  -1365704.13745  22073061.8914                   22073060.0784
  17342214.24246  13528020.97343  23914337.7504                   23914337.5944
 -13149776.84048 -10242527.70746  20765018.6174                   20765015.7304
  -9407430.57446  -7323408.71144  23921098.5864                   23921097.6134
  -5210514.91448  -4047562.96146  21053550.9144                   21053546.6484
 -14057456.94148 -10942167.89146  21949617.2814                   21949617.2544
 -12991739.08647 -10111551.69945  21950975.2894                   21950973.6134
 11  8 24  1 18  0.0000000  0  8G05G10G04G12G29G02G25G30
 -17940381.89848 -13966292.25447  20283950.0004                   20283947.0084
  -1636624.01247  -1265128.05145  22097623.7664                   22097621.9534
  17469256.50446  13627014.91044  23938512.7424                   23938512.9104
 -13084812.75448 -10191906.34446  20777380.5704                   20777378.1254
  -9442878.82846  -7351030.66044  23914353.2504                   23914351.8014
  -5134155.81648  -3988062.37146  21068081.6334                   21068077.4654
 -14057728.43448 -10942379.42646  21949565.4534                   21949565.7194
 -12984523.43247 -10105929.10645  21952348.5084                   21952346.5084
 11  8 24  1 18 30.0000000  0  8G05G10G04G12G29G02G25G30
 -17912568.09848 -13944619.12947  20289242.8054                   20289240.1454
  -1507155.41847  -1164243.44145  22122261.1254                   22122258.9804
  17596253.59446  13725973.64544  23962679.6954                   23962679.6454
 -13019269.14548 -10140833.40646  20789853.2344                   20789850.1564
  -9478368.32447  -7378684.75844  23907599.8674                   23907598.3984
  -5057667.84048  -3928461.35246  21082637.3134                   21082632.6454
 -14057471.54748 -10942179.23046  21949614.3754                   21949614.7384
 -12976727.94547 -10099854.69145  21953832.0864                   21953830.5004
 11  8 24  1 19  0.0000000  0  8G05G10G04G12G29G02G25G30
 -17884168.92248 -13922489.87147  20294646.7504                   20294644.1724
  -1377289.85547  -1063049.49245  22146973.1024                   22146971.5554
  17723208.98046  13824899.84844  23986838.7194                   23986838.4224
 -12953143.04748 -10089306.58246  20802436.6414                   20802434.1254
  -9513894.00447  -7406367.06244  23900839.5234                   23900838.4064
  -4981048.12548  -3868757.67646  21097217.4064                   21097213.0474
 -14056681.00448 -10941563.20346  21949764.6484                   21949764.7504
 -12968347.50847 -10093324.46945  21955426.5864                   21955424.8284
 11  8 24  1 19 30.0000000  0  8G05G10G04G12G29G02G25G30
 -17855185.23048 -13899905.14547  20300162.2584                   20300160.1374
  -1247031.24647   -961549.29745  22171761.0944                   22171758.8054
  17850121.07447  13923792.32844  24010988.8054                   24010989.2114
 -12886436.14548 -10037327.18046  20815130.4694                   20815127.8014
  -9549456.02047  -7434077.68744  23894072.3054                   23894070.9964
  -4904298.62548  -3808952.86346  21111822.0234                   21111817.4734
 -14055356.30948 -10940530.95346  21950017.0314                   21950017.3834
 -12959382.10247 -10086338.42645  21957132.4224                   21957130.7074
 11  8 24  1 20  0.0000000  0  8G05G10G04G12G29G02G25G30
 -17825622.60248 -13876869.29347  20305787.5164                   20305785.1684
  -1116388.28147   -859749.61345  22196621.1954                   22196619.9694
  17976983.44947  14022646.05543  24035130.1644                   24035129.7154
 -12819155.53548  -9984900.75446  20827933.5474                   20827930.7274
  -9585059.55147  -7461820.66444  23887296.8204                   23887296.2274
  -4827425.97348  -3749052.09046  21126450.5474                   21126446.2704
 -14053501.77348 -10939085.83246  21950370.2344                   21950370.0824
 -12949836.41847 -10078900.21145  21958949.0944                   21958947.6024
 11  8 24  1 20 30.0000000  0  8G05G10G04G12G29G02G25G30
 -17795479.24648 -13853380.93747  20311524.1254                   20311521.2424
   -985362.15247   -757651.34045  22221554.2424                   22221552.5784
  18103797.15247  14121461.85944  24059262.1174                   24059261.9304
 -12751299.85948  -9932026.20346  20840845.9844                   20840843.4494
  -9620701.61347  -7489593.64544  23880514.4774                   23880513.3674
  -4750429.21948  -3689054.61346  21141102.4614                   21141098.1374
 -14051114.25848 -10937225.39846  21950824.4534                   21950824.3834
 -12939707.59047 -10071007.59845  21960876.4224                   21960875.0354
 11  8 24  1 21  0.0000000  0  8G05G10G04G12G29G02G25G30
 -17764752.41448 -13829437.93047  20317370.8364                   20317368.4064
   -853953.15247   -655254.73845  22246560.9304                   22246559.5164
  18230564.53947  14220241.60944  24083385.5234                   24083384.6334
 -12682867.58648  -9878702.36746  20853868.2974                   20853865.6414
  -9656378.25847  -7517393.58644  23873724.9304                   23873724.5904
  -4673306.55948  -3628959.02346  21155778.6884                   21155774.2234
 -14048189.56248 -10934946.37546  21951380.3594                   21951380.4264
 -12928991.97347 -10062657.74245  21962915.4224                   21962914.1454
 11  8 24  1 21 30.0000000  0  8G05G10G04G12G29G02G25G30
 -17733453.54348 -13805049.17247  20323326.9614                   20323323.9694
   -722175.72347   -552571.05545  22271637.2504                   22271635.8364
  18357273.53946  14318975.87943  24107496.8284                   24107497.1684
 -12613871.32448  -9824939.06246  20866997.9384                   20866994.8874
  -9692100.09047  -7545228.71944  23866927.1884                   23866926.4264
  -4596070.33248  -3568774.93746  21170475.9224                   21170471.4494
 -14044737.84048 -10932256.69546  21952037.6724                   21952037.5554
 -12917700.02047 -10053858.80145  21965064.3914                   21965062.2664
 11  8 24  1 22  0.0000000  0  8G05G10G04G12G29G02G25G30
 -17701563.18048 -13780199.51647  20329395.5234                   20329392.6914
   -590013.65247   -449587.64145  22296786.8594                   22296785.0594
  18483942.63746  14417679.02043  24131601.2734                   24131600.9924
 -12544292.64148  -9770721.90246  20880238.1484                   20880235.3014
  -9727847.12547  -7573083.50444  23860125.4064                   23860124.3834
  -4518702.12948  -3508488.01246  21185198.6884                   21185194.5824
 -14040738.59448 -10929140.36746  21952798.5004                   21952798.6294
 -12905811.69547 -10044595.14545  21967326.8364                   21967325.1484
 11  8 24  1 22 30.0000000  0  8G05G10G04G12G29G02G25G30
 -17669088.18748 -13754894.30947  20335575.2664                   20335572.6094
   -457476.18447   -346311.72345  22322007.2814                   22322006.4494
  18610565.13346  14516345.82843  24155696.9224                   24155696.7304
 -12474139.00048  -9716056.74246  20893587.9064                   20893585.2234
  -9763624.99247  -7600962.28944  23853316.3594                   23853316.0984
  -4441208.85248  -3448103.63746  21199945.3984                   21199940.5744
 -14036196.77348 -10925601.25046  21953662.8444                   21953662.3094
 -12893332.34847 -10034870.94545  21969701.6254                   21969699.8014
 11  8 24  1 23  0.0000000  0  8G05G10G04G12G29G02G25G30
 -17636031.27348 -13729135.65247  20341865.6024                   20341862.8634
   -324569.19147   -242747.87145  22347299.1884                   22347297.7584
  18737137.39846  14614973.48043  24179782.9064                   24179783.2114
 -12403414.30548  -9660946.60546  20907046.4614                   20907043.8244
  -9799435.33647  -7628866.38344  23846501.8444                   23846500.9964
  -4363594.71148  -3387625.07846  21214714.8674                   21214710.1884
 -14031113.96548 -10921640.59046  21954630.1414                   21954629.7624
 -12880263.98047 -10024687.77045  21972187.9844                   21972186.2424
 11  8 24  1 23 30.0000000  0  8G05G10G04G12G29G02G25G30
 -17602388.03148 -13702920.10947  20348267.7344                   20348265.0864
   -191291.19147   -138894.89545  22372661.3444                   22372659.4654
  18863663.64546  14713565.27343  24203860.5394                   24203859.7934
 -12332115.09448  -9605388.79346  20920614.3284                   20920611.8554
  -9835272.88347  -7656791.67644  23839682.6724                   23839681.4184
  -4285855.96148  -3327049.41846  21229507.8284                   21229503.5944
 -14025484.34848 -10917253.84046  21955701.2584                   21955700.7814
 -12866601.15647 -10014041.38745  21974788.2194                   21974786.1334
 11  8 24  1 24  0.0000000  0  8G05G10G04G12G29G02G25G30
 -17568172.32048 -13676258.49647  20354778.7814                   20354775.9694
    -57658.72747    -34765.71945  22398090.4694                   22398088.8134
  18990129.58246  14812110.10543  24227925.8444                   24227925.9104
 -12260256.41448  -9549395.02346  20934288.7344                   20934286.3134
  -9871149.98047  -7684747.80544  23832855.5474                   23832853.8754
  -4208006.98048  -3266387.86346  21244321.9304                   21244317.7304
 -14019320.36748 -10912450.71146  21956874.2424                   21956874.1174
 -12852356.76247 -10002941.83645  21977498.8594                   21977496.7424
 11  8 24  1 24 30.0000000  0  8G05G10G04G12G29G02G25G30
 -17533368.37548 -13649138.51647  20361401.7504                   20361399.0554
     76340.85947     69649.50445  22423590.0864                   22423588.3014
  19116550.51646  14910619.86343  24251982.1724                   24251982.7624
 -12187823.36348  -9492953.69946  20948072.1174                   20948069.4384
  -9907049.93747  -7712721.73444  23826023.5234                   23826022.6914
  -4130032.68848  -3205628.66446  21259159.7584                   21259155.4734
 -14012604.89548 -10907217.84846  21958152.1334                   21958151.6254
 -12837514.14547  -9991376.11745  21980323.2584                   21980321.5234
 11  8 24  1 25  0.0000000  0  8G05G10G04G12G29G02G25G30
 -17497986.91448 -13621568.52047  20368134.7424                   20368132.0004
    210694.05947    174340.30145  22449156.5554                   22449154.6684
  19242915.44946  15009086.05542  24276028.7194                   24276029.2704
 -12114827.63748  -9436073.91446  20961962.7034                   20961960.1954
  -9942982.43047  -7740721.02344  23819185.7584                   23819185.0164
  -4051944.50048  -3144780.71946  21274019.5084                   21274015.3874
 -14005347.25848 -10901562.52346  21959533.0164                   21959533.3014
 -12822083.03947  -9979351.85245  21983259.5864                   21983257.6484
 11  8 24  1 25 30.0000000  0  8G05G10G04G12G29G02G25G30
 -17462023.15648 -13593544.79347  20374978.1254                   20374975.3594
    345403.00447    279308.30145  22474790.9304                   22474789.2274
  19369228.61346  15107511.89143  24300065.7664                   24300065.7154
 -12041265.25848  -9378752.59846  20975961.3754                   20975958.2814
  -9978941.71947  -7768741.16844  23812342.9454                   23812342.1914
  -3973738.59848  -3083841.03946  21288902.2894                   21288897.3594
 -13997541.45748 -10895480.05546  21961018.4924                   21961018.2734
 -12806057.84047  -9966864.64845  21986309.1414                   21986306.9384
 11  8 24  1 26  0.0000000  0  8G05G10G04G12G29G02G25G30
 -17425485.76248 -13565074.06647  20381930.9924                   20381928.1024
    480456.34447    384544.64845  22500490.6484                   22500489.1024
  19495481.28946  15205890.56342  24324090.5784                   24324091.4184
 -11967146.38748  -9320997.63346  20990065.6884                   20990062.8054
 -10014935.12947  -7796787.92244  23805493.7424                   23805492.4304
  -3895423.46148  -3022816.24646  21303804.7584                   21303800.2734
 -13989194.56248 -10888975.95346  21962606.9224                   21962606.6484
 -12789446.10947  -9953920.42245  21989470.2424                   21989468.3244
 11  8 24  1 26 30.0000000  0  9G05G10G04G12G26G29G02G25G30
 -17388357.37548 -13536142.83647  20388996.2344                   20388993.7664
    615868.67647    490060.71545  22526258.8134                   22526257.1174
  19621690.51646  15304235.34843  24348107.8364                   24348108.0784
 -11892454.49648  -9262796.18046  21004278.8834                   21004276.1764
  -7953086.11356  -6184916.41453  24931787.9844                   24931789.7814
 -10050943.47747  -7824846.32044  23798641.6334                   23798640.2934
  -3816983.06648  -2961693.85246  21318731.4304                   21318726.5944
 -13980287.85548 -10882035.64846  21964301.3524                   21964301.7114
 -12772229.60247  -9940504.93745  21992745.8914                   21992744.1334
 11  8 24  1 27  0.0000000  0  9G05G10G04G12G26G29G02G25G30
 -17350656.32448 -13506765.37547  20396170.5314                   20396167.6724
    751618.69547    595839.93844  22552091.0474                   22552089.6094
  19747837.75046  15402531.85943  24372113.1564                   24372113.6374
 -11817208.84448  -9204163.20346  21018597.8284                   21018594.8984
  -7997496.68046  -6219521.88343  24923336.9224                   24923338.2504
 -10086984.20347  -7852929.96544  23791783.3984                   23791782.1254
  -3738436.06648  -2900488.39546  21333678.6644                   21333673.8014
 -13970838.34048 -10874672.36746  21966099.8284                   21966099.6914
 -12754425.74247  -9926631.77745  21996134.3204                   21996132.0274
 11  8 24  1 27 30.0000000  0  9G05G10G04G12G26G29G02G25G30
 -17312379.86748 -13476939.53947  20403454.5004                   20403451.2934
    887706.40247    701882.25445  22577987.6174                   22577985.8094
  19873925.50046  15500782.03143  24396106.9224                   24396106.8714
 -11741407.93448  -9145097.56246  21033022.2974                   21033019.4064
  -8042045.02746  -6254234.73442  24914859.2504                   24914860.3404
 -10123053.30947  -7881035.73044  23784919.0784                   23784918.1134
  -3659780.37548  -2839198.23846  21348646.0234                   21348641.7974
 -13960841.86348 -10866882.89846  21968002.3444                   21968002.0004
 -12736030.75447  -9912298.00045  21999635.0474                   21999633.5004
 11  8 24  1 28  0.0000000  0  9G05G10G04G12G26G29G02G25G30
 -17273527.03148 -13446664.58247  20410847.9224                   20410844.8634
   1024130.37547    808186.64545  22603948.4144                   22603946.8484
  19999954.60546  15598986.52343  24420089.7194                   24420089.1994
 -11665051.36348  -9085598.94546  21047552.4694                   21047549.6094
  -8086727.30946  -6289051.91843  24906356.5314                   24906357.2504
 -10159148.38347  -7909161.73044  23778050.4304                   23778049.1134
  -3581015.03148  -2777822.64546  21363634.5164                   21363630.0124
 -13950295.96548 -10858665.30146  21970008.8054                   21970008.6524
 -12717042.67247  -9897502.06645  22003247.8134                   22003245.7774
 11  8 24  1 28 30.0000000  0  9G05G10G04G12G26G29G02G25G30
 -17234097.71948 -13415940.42647  20418351.0314                   20418348.2034
   1160888.16047    914751.10544  22629972.5394                   22629971.5394
  20125925.52746  15697145.66443  24444060.8834                   24444060.7194
 -11588139.88347  -9025667.93046  21062188.2344                   21062185.5704
  -8131539.83246  -6323970.62142  24897828.5704                   24897829.3524
 -10195267.19547  -7937306.24644  23771177.2424                   23771176.2854
  -3502140.10247  -2716361.64846  21378644.1644                   21378639.7074
 -13939198.87548 -10850018.20746  21972120.7894                   21972120.5784
 -12697460.25047  -9882243.02045  22006974.4384                   22006972.6024
 11  8 24  1 29  0.0000000  0  9G05G10G04G12G26G29G02G25G30
 -18769497.58248 -14612355.88347  20126174.0314                   20126171.3164
   -277425.57447   -206012.88744  22356270.7034                   22356269.3794
  18676434.64546  14567672.21943  24168231.4384                   24168232.0164
 -13086079.29748 -10192893.44146  20777139.6884                   20777137.0864
  -9751888.59446  -7586579.93043  24589486.3284                   24589487.9384
 -11806817.39847  -9193059.64544  23464509.7504                   23464508.6254
  -4998560.91048  -3882403.81646  21093884.5554                   21093880.3714
 -15502956.21948 -12068530.42246  21674547.6094                   21674547.4064
 -14252689.22347 -11094109.73445  21711024.1174                   21711022.8594
 11  8 24  1 29 30.0000000  0  9G05G10G04G12G26G29G02G25G30
 -18728894.84048 -14580717.37547  20133900.6414                   20133897.3524
   -139987.97747    -98918.68844  22382424.3054                   22382422.8834
  18802308.44146  14665755.63743  24192184.8834                   24192184.9884
 -13008041.16848 -10132084.51246  20791989.7814                   20791987.1954
  -9796932.93046  -7621679.25443  24580914.5394                   24580916.2344
 -11842960.34447  -9221222.96144  23457632.3444                   23457630.3834
  -4919448.46948  -3820757.73846  21108939.1804                   21108934.4454
 -15490732.63748 -12059005.54346  21676873.6644                   21676873.3134
 -14231895.29747 -11077906.66045  21714981.2344                   21714979.0434
 11  8 24  1 30  0.0000000  0  9G05G10G04G12G26G29G02G25G30
 -18687721.32848 -14548634.09847  20141735.3204                   20141732.4884
     -2230.45747      8424.79744  22408638.2114                   22408637.1454
  18928117.93846  14763788.95743  24216125.7194                   24216125.8404
 -12929457.10948 -10070850.18446  20806944.1094                   20806941.2734
  -9842104.19946  -7656877.48843  24572319.0634                   24572320.0824
 -11879128.81347  -9249406.18444  23450748.8674                   23450747.9734
  -4840233.55948  -3759031.82046  21124013.2894                   21124008.8284
 -15477959.54748 -12049052.47746  21679304.0474                   21679303.9064
 -14210510.12547 -11061242.88345  21719050.4614                   21719048.5864
 11  8 24  1 30 30.0000000  0  9G05G10G04G12G26G29G02G25G30
 -18645956.65648 -14516090.18047  20149682.8834                   20149680.2814
    135864.47347    116031.20344  22434917.2584                   22434915.7194
  19053883.13747  14861787.77044  24240058.3754                   24240058.4844
 -12850307.97348 -10009175.52746  20822005.6564                   20822002.7234
  -9887379.16446  -7692156.56643  24563703.4844                   24563703.9614
 -11915301.41047  -9277592.59844  23443865.8984                   23443864.6294
  -4760896.61748  -3697210.82446  21139110.5864                   21139105.8984
 -15464615.53548 -12038654.53946  21681843.5554                   21681843.4454
 -14188512.71147 -11044102.03945  21723236.6884                   21723234.7344
 11  8 24  1 31  0.0000000  0  9G05G10G04G12G26G29G02G25G30
 -18603616.86748 -14483098.11747  20157740.3444                   20157737.1254
    274278.81647    223886.49244  22461256.3674                   22461254.9574
  19179588.50847  14959739.95744  24263979.4534                   24263979.9614
 -12770610.43848  -9947073.55946  20837171.7424                   20837168.4844
  -9932770.18446  -7727526.06643  24555065.2114                   24555067.1334
 -11951491.70347  -9305792.80144  23436979.7274                   23436978.1844
  -4681453.18848  -3635306.84046  21154228.0634                   21154223.4844
 -15450714.59048 -12027822.62946  21684488.7114                   21684488.7934
 -14165917.50847 -11026495.38745  21727536.3754                   21727534.0944
 11  8 24  1 31 30.0000000  0  9G05G10G04G12G26G29G02G25G30
 -18560708.30548 -14449662.86747  20165905.0474                   20165902.2734
    413003.50447    331983.62544  22487655.5004                   22487653.3284
  19305227.56347  15057640.47344  24287887.5864                   24287888.0004
 -12690371.89148  -9884550.01646  20852440.7584                   20852437.5824
  -9978280.41446  -7762988.41043  24546405.2894                   24546406.3834
 -11987704.75447  -9334010.71144  23430087.6414                   23430086.5594
  -4601910.08648  -3573325.18046  21169364.4614                   21169359.7624
 -15436261.89847 -12016560.79746  21687239.1024                   21687238.9454
 -14142730.22747 -11008427.37145  21731948.8204                   21731947.0314
 11  8 24  1 32  0.0000000  0  9G05G10G04G12G26G29G02G25G30
 -18517217.49248 -14415773.90647  20174180.9384                   20174178.6134
    552049.52747    440331.14144  22514114.3754                   22514113.5594
  19430813.97747  15155499.97744  24311785.7274                   24311786.2734
 -12609580.11748  -9821595.39846  20867814.7734                   20867811.9304
 -10023893.27746  -7798530.78143  24537724.7274                   24537725.9804
 -12023925.50446  -9362234.60544  23423195.0394                   23423193.6844
  -4522254.15647  -3511255.61746  21184522.7034                   21184518.3794
 -15421242.57448 -12004857.43746  21690097.2974                   21690096.7974
 -14118936.45747 -10989886.76245  21736476.7664                   21736474.1564
 11  8 24  1 32 30.0000000  0  9G05G10G04G12G26G29G02G25G30
 -18473168.35548 -14381449.88747  20182563.3754                   20182560.5784
    691390.62547    548908.57044  22540630.2894                   22540629.1764
  19556324.16847  15253300.04343  24335669.3204                   24335669.7384
 -12528259.48847  -9758228.66446  20883289.2504                   20883286.4494
 -10069629.16446  -7834168.98443  24529021.6884                   24529022.8484
 -12060176.01247  -9390481.68444  23416296.8444                   23416295.5394
  -4442509.14847  -3449116.63346  21199697.2894                   21199693.0784
 -15405679.07848 -11992730.03546  21693058.4144                   21693059.0274
 -14094559.15248 -10970891.46545  21741115.4384                   21741112.9494
 11  8 24  1 33  0.0000000  0  9G05G10G04G12G26G29G02G25G30
 -18428538.62548 -14346673.45347  20191056.2664                   20191053.8054
    831046.57847    657731.38344  22567206.5084                   22567204.2424
  19681780.47746  15351058.14143  24359542.9064                   24359543.3634
 -12446389.02048  -9694433.50446  20898868.7504                   20898865.8324
 -10115462.30546  -7869883.00443  24520300.7814                   24520301.1684
 -12096432.23847  -9418733.21144  23409397.2034                   23409396.1414
  -4362653.20348  -3386891.22346  21214893.6094                   21214889.0044
 -15389547.56648 -11980160.02746  21696128.1954                   21696128.4804
 -14069574.92647 -10951423.24245  21745869.8134                   21745867.7034
 11  8 24  1 33 30.0000000  0  9G05G10G04G12G26G29G02G25G30
 -18383327.70348 -14311444.14847  20199659.5474                   20199656.6914
    971015.48047    766798.02344  22593841.5704                   22593839.6484
  19807183.52746  15448774.76643  24383406.4454                   24383406.9224
 -12363969.20748  -9630210.27746  20914552.4924                   20914549.8834
 -10161389.05146  -7905669.97743  24511560.3134                   24511561.4144
 -12132691.92647  -9446987.42644  23402497.5004                   23402496.3594
  -4282686.04348  -3324579.13346  21230110.7274                   21230106.0984
 -15372846.32848 -11967146.07046  21699306.7974                   21699306.7304
 -14043982.62147 -10931481.18045  21750739.8054                   21750738.4384
 11  8 24  1 34  0.0000000  0  9G05G10G04G12G26G29G02G25G30
 -18337538.16448 -14275763.96547  20208373.1884                   20208370.1684
   1111292.41847    876104.69144  22620534.9534                   22620533.8284
  19932531.26246  15546448.28143  24407259.1254                   24407260.0164
 -12281003.43848  -9565561.63746  20930340.9614                   20930338.0864
 -10207408.37946  -7941529.07843  24502802.5394                   24502804.2584
 -12168956.00847  -9475245.04744  23395597.0164                   23395595.3204
  -4202609.83247  -3262182.07846  21245348.9614                   21245344.4024
 -15355576.31648 -11953688.93046  21702593.1174                   21702592.9494
 -14017783.67647 -10911066.42645  21755725.4614                   21755723.5634
 11  8 24  1 34 30.0000000  0  9G05G10G04G12G26G29G02G25G30
 -18291178.88748 -14239639.82847  20217195.0234                   20217191.6844
   1251865.77747    985642.35244  22647285.5004                   22647283.8984
  20057814.94546  15644071.89143  24431099.9924                   24431100.5664
 -12197501.74648  -9500495.38746  20946230.3204                   20946227.7664
 -10253525.60546  -7977464.47743  24494027.0944                   24494028.3794
 -12205231.37947  -9503511.49644  23388693.6564                   23388691.8244
  -4122434.15248  -3199707.50846  21260605.9454                   21260601.4454
 -15337745.05548 -11939794.43746  21705986.1564                   21705986.1914
 -13990986.09447 -10890185.20345  21760824.5944                   21760822.7034
 11  8 24  1 35  0.0000000  0  9G05G10G04G12G26G29G02G25G30
 -18244253.67248 -14203074.70347  20226124.6254                   20226121.8794
   1392729.79747   1095406.49644  22674090.6564                   22674089.4694
  20183031.08246  15741642.86743  24454927.6094                   24454928.2664
 -12113469.00448  -9435015.33646  20962221.5784                   20962218.5944
 -10299741.18846  -8013476.50843  24485232.6334                   24485234.0004
 -12241520.01647  -9531788.25444  23381788.3524                   23381787.1724
  -4042162.52747  -3137158.18446  21275880.8054                   21275876.5004
 -15319354.96148 -11925464.49646  21709485.7274                   21709485.6174
 -13963592.85948 -10868839.82845  21766037.4064                   21766035.4924
 11  8 24  1 35 30.0000000  0  9G05G10G04G12G26G29G02G25G30
 -18196752.32048 -14166060.63747  20235163.6724                   20235160.8754
   1533892.48047   1205403.34044  22700953.1094                   22700951.6524
  20308190.23446  15839169.44143  24478744.8914                   24478745.0704
 -12028895.55948  -9369113.96146  20978315.4304                   20978312.3794
 -10346041.20346  -8049554.32043  24476421.3674                   24476423.1804
 -12277809.79747  -9560065.91444  23374881.9774                   23374881.0434
  -3961784.18047  -3074525.69946  21291176.6644                   21291171.8204
 -15300394.32448 -11910689.96946  21713093.6804                   21713093.6024
 -13935592.68848 -10847021.50845  21771365.4924                   21771363.3634
 11  8 24  1 36  0.0000000  0  9G05G10G04G12G26G29G02G25G30
 -18148666.80548 -14128591.38347  20244313.7344                   20244311.0474
   1675359.20746   1315637.12944  22727873.8834                   22727872.4614
  20433300.74246  15936658.13342  24502552.9614                   24502552.7384
 -11943774.66848  -9302786.00046  20994513.0004                   20994510.6844
 -10392414.08246  -8085688.95343  24467596.7114                   24467598.3324
 -12314090.89847  -9588336.82444  23367978.5234                   23367976.9184
  -3881291.35247  -3011804.01646  21306493.8834                   21306489.3444
 -15280853.68048 -11895463.49246  21716812.5864                   21716811.8244
 -13906976.60948 -10824723.27745  21776810.9454                   21776809.3484
 11  8 24  1 36 30.0000000  0  9G05G10G04G12G26G29G02G25G30
 -18100008.29348 -14090675.63347  20253573.5634                   20253570.7464
   1817116.85246   1426097.58644  22754848.8674                   22754847.8674
  20558352.13346  16034100.73842  24526349.5704                   24526349.6484
 -11858118.41848  -9236040.88346  21010812.9224                   21010809.9884
 -10438867.26246  -8121886.12543  24458757.3364                   24458758.4534
 -12350372.14547  -9616607.85244  23361073.3834                   23361072.4264
  -3800695.18048  -2949001.80146  21321830.8134                   21321826.0354
 -15260742.73848 -11879792.62946  21720639.0864                   21720638.9384
 -13877755.03148 -10801953.21145  21782371.8444                   21782369.7704
 11  8 24  1 37  0.0000000  0  9G05G10G04G12G26G29G02G25G30
 -18050781.52348 -14052317.07847  20262940.7274                   20262938.1644
   1959158.27047   1536779.16844  22781879.0084                   22781877.1804
  20683340.02046  16131493.84842  24550132.9534                   24550136.1914
 -11771932.26248  -9168882.84046  21027213.5784                   21027210.9184
 -10485401.84046  -8158146.68843  24449902.1414                   24449903.2894
 -12386656.37947  -9644881.20345  23354169.1564                   23354168.1804
  -3720000.27748  -2886122.66446  21337186.3834                   21337181.9774
 -15240064.69948 -11863679.85946  21724574.1174                   21724573.6844
 -13847931.44548 -10778714.03545  21788047.0084                   21788045.2304
 11  8 24  1 37 30.0000000  0  9G05G10G04G12G26G29G02G25G30
 -18000987.38348 -14013516.41847  20272416.3444                   20272413.5744
   2101480.00447   1647679.17644  22808961.7344                   22808960.7274
  20808263.74646  16228836.93042  24573905.3364                   24573907.7734
 -11685218.55948  -9101313.73846  21043714.6804                   21043711.8914
 -10532015.25846  -8194468.73443  24441031.6644                   24441032.6214
 -12422942.82047  -9673156.30544  23347264.1954                   23347262.6524
  -3639207.68048  -2823167.40646  21352560.9924                   21352556.0904
 -15218819.34848 -11847125.03546  21728616.9384                   21728617.0554
 -13817506.34448 -10755006.19145  21793836.5784                   21793834.2934
 11  8 24  1 38  0.0000000  0  9G05G10G04G12G26G29G02G25G30
 -17950626.09048 -13974273.81647  20281999.7504                   20281996.8674
   2244079.78147   1758795.84444  22836097.2034                   22836096.2074
  20933123.82846  16326130.52342  24597665.5784                   24597667.8244
 -11597978.37148  -9033334.37546  21060316.2584                   21060313.2934
 -10578703.74246  -8230849.22743  24432146.7504                   24432148.0434
 -12459229.33247  -9701431.46544  23340358.9144                   23340357.0274
  -3558317.22748  -2760135.88346  21367953.6884                   21367948.8524
 -15197005.32048 -11830127.08646  21732768.4224                   21732768.1454
 -13786478.80548 -10730828.88345  21799740.9774                   21799739.5354
 11  8 24  1 38 30.0000000  0  9G05G10G04G12G26G29G02G25G30
 -17899700.39148 -13934591.41847  20291690.7424                   20291687.6884
   2386952.85547   1870125.50044  22863286.0164                   22863284.7074
  21057917.95746  16423372.76642  24621413.5004                   24621414.7624
 -11510215.33248  -8964947.60246  21077016.8364                   21077014.3364
 -10625466.37146  -8267287.52743  24423247.9454                   24423248.9844
 -12495516.48047  -9729707.12944  23333453.8834                   23333452.3054
  -3477331.40247  -2697030.05146  21383364.7504                   21383360.5234
 -15174623.89848 -11812687.00046  21737026.8054                   21737027.2734
 -13754850.63348 -10706183.54345  21805759.8364                   21805757.9344
 11  8 24  1 39  0.0000000  0  9G05G10G04G12G26G29G02G25G30
 -17848206.89148 -13894466.57847  20301489.3054                   20301486.8594
   2530100.54347   1981669.12544  22890525.8914                   22890524.6024
  21182650.36746  16520566.89542  24645148.8674                   24645150.3244
 -11421926.73448  -8896151.30546  21093817.5004                   21093815.1454
 -10672295.96146  -8303777.97743  24414337.4614                   24414337.7734
 -12531798.70747  -9757978.96544  23326549.8054                   23326548.1684
  -3396246.43447  -2633846.96546  21398794.6484                   21398790.2424
 -15151670.21548 -11794800.99646  21741394.9304                   21741395.0044
 -13722617.51648 -10681066.81645  21811893.3134                   21811891.6374
 11  8 24  1 39 30.0000000  0  9G05G10G04G12G26G29G02G25G30
 -17796142.44148 -13853896.85247  20311396.7194                   20311394.0824
   2673523.80547   2093427.47344  22917818.5004                   22917816.8404
  21307324.43846  16617715.51243  24668873.9614                   24668874.4844
 -11333110.55148  -8826943.89546  21110718.7734                   21110715.8594
 -10719185.36346  -8340315.05143  24405414.4844                   24405414.3554
 -12568070.58247  -9786242.72745  23319646.9924                   23319645.6724
  -3315059.03947  -2570584.07046  21414244.3444                   21414239.6564
 -15128139.71948 -11776465.52746  21745872.7274                   21745872.7034
 -13689775.45348 -10655475.60245  21818143.0634                   21818140.8834
 11  8 24  1 40  0.0000000  0  9G05G10G04G12G26G29G02G25G30
 -17743517.02748 -13812890.00047  20321411.6174                   20321408.8094
   2817210.62947   2205391.20744  22945161.1564                   22945159.5164
  21431930.99646  16714811.51643  24692586.2034                   24692586.1094
 -11243777.82848  -8757333.98846  21127718.4224                   21127715.4884
 -10766140.72347  -8376903.49243  24396479.0944                   24396479.2384
 -12604340.08247  -9814504.63344  23312745.0784                   23312743.6684
  -3233778.59047  -2507248.67246  21429711.5004                   21429706.6724
 -15104040.96148 -11757687.26646  21750458.6024                   21750458.7304
 -13656333.46948 -10629416.90245  21824507.3204                   21824504.9844
 11  8 24  1 40 30.0000000  0  9G05G10G04G12G26G29G02G25G30
 -17690329.82848 -13771445.40647  20331532.3984                   20331529.5434
   2961159.72747   2317559.31244  22972553.4614                   22972552.3054
  21556471.57447  16811856.11743  24716285.1884                   24716285.4574
 -11153928.48848  -8687321.52046  21144815.8754                   21144812.9144
 -10813157.12147  -8413539.53143  24387532.2504                   24387532.4614
 -12640603.73847  -9842761.99244  23305844.8134                   23305842.7734
  -3152404.11348  -2443839.99646  21445196.3754                   21445192.4104
 -15079371.53948 -11738464.31246  21755153.1334                   21755152.6414
 -13622289.82448 -10602889.38345  21830984.8204                   21830983.3954
 11  8 24  1 41  0.0000000  0  9G05G10G04G12G26G29G02G25G30
 -17636586.36348 -13729567.35247  20341759.3834                   20341756.8204
   3105363.32447   2429925.70044  22999994.7664                   22999993.5044
  21680941.18846  16908845.37943  24739970.9694                   24739971.8164
 -11063569.28148  -8616911.75846  21162010.5704                   21162007.9264
 -10860236.80547  -8450224.85543  24378572.7974                   24378572.4964
 -12676865.37547  -9871017.78944  23298943.9774                   23298942.3794
  -3070941.08248  -2380362.32446  21460698.4224                   21460694.1844
 -15054136.02348 -11718800.26646  21759955.0704                   21759955.1914
 -13587649.49248 -10575896.90245  21837577.1644                   21837575.7034
 11  8 24  1 41 30.0000000  0  8G05G10G12G26G29G02G25G30
 -17582262.57448 -13687237.10947  20352096.6884                   20352094.2734
   3249843.43747   2542507.60244  23027488.4534                   23027487.0394
 -10972676.60248  -8546086.30146  21179307.4774                   21179304.4454
 -10907351.31347  -8486937.33643  24369607.4924                   24369606.5864
 -12713098.21547  -9899251.13744  23292049.1564                   23292047.3954
  -2989364.66448  -2316796.28946  21476221.6644                   21476217.2304
 -15028308.64548 -11698675.00846  21764869.8524                   21764869.7504
 -13552387.39148 -10548419.92245  21844287.2504                   21844285.6174
 11  8 24  1 42  0.0000000  0  8G05G10G12G26G29G02G25G30
 -17527372.98848 -13644465.97747  20362541.9694                   20362539.1214
   3394583.73846   2655292.22744  23055031.1644                   23055030.0204
 -10881266.96948  -8474858.02746  21196701.7894                   21196699.2974
 -10954511.36746  -8523685.27343  24360632.1414                   24360633.0274
 -12749314.92647  -9927471.91044  23285157.7114                   23285155.5514
  -2907689.02348  -2253152.94146  21491764.2584                   21491759.7934
 -15001902.64148 -11678098.87946  21769894.8444                   21769895.1914
 -13516517.22348 -10520469.13745  21851113.0864                   21851111.1254
 11  8 24  1 42 30.0000000  0  8G05G10G12G26G29G02G25G30
 -17471924.19148 -13601259.10547  20373093.5554                   20373090.5274
   3539575.75447   2768273.00444  23082622.6564                   23082621.4734
 -10789347.20748  -8403232.25446  21214193.5554                   21214190.9024
 -11001719.12547  -8560470.42643  24351649.3674                   24351649.3204
 -12785519.22747  -9955683.02744  23278267.6094                   23278266.3714
  -2825920.15248  -2189436.93446  21507324.3524                   21507319.7504
 -14974922.94148 -11657075.71546  21775028.6804                   21775028.3244
 -13480044.41448 -10492048.75045  21858053.6254                   21858051.3444
 11  8 24  1 43  0.0000000  0  8G05G10G12G26G29G02G25G30
 -17415914.04748 -13557614.81647  20383752.1024                   20383748.9654
   3684819.59046   2881449.98844  23110261.1414                   23110260.6414
 -10696916.28148  -8331208.16846  21231782.8674                   21231779.7894
 -11048968.65247  -8597288.11343  24342657.9144                   24342658.1884
 -12821706.34047  -9983880.72744  23271381.8674                   23271379.9344
  -2744055.49648  -2125646.28946  21522902.7814                   21522898.0514
 -14947366.09848 -11635602.82846  21780272.7734                   21780272.3444
 -13442966.18448 -10463156.62145  21865109.3834                   21865106.9804
 11  8 24  1 43 30.0000000  0  8G05G10G12G26G29G02G25G30
 -17359342.37548 -13513532.98047  20394517.3524                   20394514.5124
   3830313.46947   2994821.82044  23137948.1804                   23137946.3954
 -10603974.75448  -8258786.21146  21249468.7274                   21249466.4064
 -11096255.76246  -8634135.09043  24333659.6414                   24333659.5204
 -12857874.11347 -10012063.34444  23264498.9844                   23264497.5864
  -2662094.27348  -2061780.39846  21538499.5394                   21538495.0204
 -14919230.55148 -11613679.00046  21785626.5944                   21785626.3674
 -13405281.45348 -10433791.87945  21872280.3984                   21872278.5084
 11  8 24  1 44  0.0000000  0  8G05G10G12G26G29G02G25G30
 -17302208.74248 -13469013.25047  20405389.4454                   20405386.2894
   3976055.85946   3108387.28144  23165682.1334                   23165680.5314
 -10510523.19948  -8185966.83246  21267252.0004                   21267249.3594
 -11143575.58246  -8671007.53143  24324654.0394                   24324654.7114
 -12894019.66847 -10040228.65645  23257620.7584                   23257619.3874
  -2580035.89148  -1997838.80146  21554114.1484                   21554110.2154
 -14890514.58648 -11591302.90646  21791091.5394                   21791091.0704
 -13366989.14848 -10403953.69945  21879567.2344                   21879565.2664
 11  8 24  1 44 30.0000000  0  8G05G10G12G26G29G02G25G30
 -17244515.38748 -13424057.37547  20416367.9614                   20416365.1454
   4122042.61346   3222143.19544  23193462.3524                   23193461.1024
 -10416564.89548  -8112752.58246  21285131.7034                   21285129.2074
 -11190926.41846  -8707904.17643  24315643.7424                   24315644.1174
 -12930142.35947 -10068376.16044  23250746.5234                   23250745.2194
  -2497881.64848  -1933822.51246  21569747.6884                   21569743.7504
 -14861218.84448 -11568475.02746  21796665.8524                   21796665.7624
 -13328090.40648 -10373642.98045  21886969.7734                   21886966.9184
 11  8 24  1 45  0.0000000  0  8G05G10G12G26G29G02G25G30
 -17186275.08648 -13378675.30947  20427450.8754                   20427447.9804
   4268259.10547   3336078.09844  23221286.3914                   23221285.0664
 -10322113.37548  -8039154.01246  21303105.2344                   21303102.8674
 -11238316.65246  -8744831.52343  24306625.4844                   24306626.5204
 -12966252.55147 -10096513.91845  23243875.5554                   23243873.6414
  -2415643.79348  -1869741.04346  21585397.4384                   21585392.6914
 -14831354.71148 -11545204.26246  21802348.8984                   21802348.5004
 -13288597.19548 -10342869.03945  21894484.8054                   21894482.5434
 11  8 24  1 45 30.0000000  0  8G05G10G12G26G29G02G25G30
 -18702891.19948 -14560454.09447  20138848.5234                   20138845.4344
   2839303.23447   2222605.94944  22949365.5394                   22949364.0594
 -11802571.72348  -9192757.93846  21021383.6334                   21021380.8054
 -12861149.18046 -10009376.23443  23997810.5864                   23997811.1604
 -14577754.62947 -11352229.77045  22937216.2114                   22937214.9694
  -3908724.27748  -3033180.37146  21301273.4064                   21301268.9574
 -16376325.39548 -12749077.50446  21508350.6024                   21508350.5704
 -14823912.94948 -11539218.96945  21602323.9144                   21602322.0704
 11  8 24  1 46  0.0000000  0  8G05G10G12G26G29G02G25G30
 -18643529.69948 -14514198.36747  20150144.3054                   20150141.7034
   2986001.21147   2336916.05544  22977281.3984                   22977279.3164
 -11707109.46148  -9118371.77346  21039549.3594                   21039546.8914
 -12908578.64846 -10046334.13743  23988785.1484                   23988785.2544
 -14613804.89547 -11380320.83645  22930356.6254                   22930354.9734
  -3826289.97748  -2968945.82846  21316960.2034                   21316956.1564
 -16345293.23848 -12724896.59846  21514255.9534                   21514255.8134
 -14783201.26648 -11507495.57045  21610070.6564                   21610068.9924
 11  8 24  1 46 30.0000000  0  8G05G10G12G26G29G02G25G30
 -18583614.14848 -14467510.91847  20161545.8754                   20161543.0744
   3132930.78547   2451406.61744  23005240.4924                   23005239.5124
 -11611149.82448  -9043598.05946  21057809.8054                   21057807.0634
 -12956027.47746 -10083307.15243  23979755.1724                   23979756.4304
 -14649827.74247 -11408390.53545  22923501.3754                   22923499.3054
  -3743762.73848  -2904638.87546  21332664.6884                   21332660.5474
 -16313681.53948 -12700264.09446  21520271.6334                   21520271.2464
 -14741885.63348 -11475301.57045  21617932.9844                   21617930.3984
 11  8 24  1 47  0.0000000  0  8G05G10G12G26G29G02G25G30
 -18523158.26648 -14420402.42647  20173050.2894                   20173047.3484
   3280076.43047   2566065.51244  23033241.3834                   23033240.3984
 -11514707.63348  -8968448.31646  21076162.4064                   21076159.4804
 -13003505.30546 -10120302.77343  23970721.3054                   23970721.8674
 -14685834.44947 -11436447.66445  22916649.6024                   22916648.1414
  -3661155.73448  -2840269.77746  21348384.3364                   21348379.8014
 -16281502.62148 -12675189.60546  21526395.2734                   21526394.5044
 -14699978.97748 -11442647.03546  21625907.8284                   21625905.8284
 11  8 24  1 47 30.0000000  0  8G05G10G12G26G29G02G25G30
 -18462139.47348 -14372855.30147  20184661.6644                   20184658.8834
   3427459.37947   2680909.35544  23061288.5314                   23061286.7814
 -11417760.63348  -8892905.21146  21094610.8524                   21094607.8874
 -13050984.93846 -10157299.74243  23961685.6174                   23961686.3014
 -14721799.22747 -11464472.12545  22909805.9694                   22909804.0634
  -3578445.60248  -2775820.31646  21364123.3204                   21364119.0664
 -16248732.19148 -12649654.20346  21532630.8594                   21532630.3954
 -14657457.59448 -11409513.48045  21633999.4614                   21633997.6054
 11  8 24  1 48  0.0000000  0  8G05G10G12G26G29G02G25G30
 -18400574.84848 -14324882.85947  20196377.1644                   20196374.1484
   3575060.17647   2795922.93444  23089375.1884                   23089374.3404
 -11320327.20348  -8816983.07446  21113151.4694                   21113149.0824
 -13098479.23846 -10194308.18043  23952647.5474                   23952648.0594
 -14757736.80147 -11492475.37545  22902967.0314                   22902964.8324
  -3495648.62948  -2711303.18046  21379878.9224                   21379874.8284
 -16215386.43048 -12623670.47346  21538976.4454                   21538976.1134
 -14614338.19148 -11375913.95345  21642204.6884                   21642202.7774
 11  8 24  1 48 30.0000000  0  8G05G10G12G26G29G02G25G30
 -18338456.61748 -14276479.03147  20208197.6334                   20208195.1604
   3722885.22347   2911111.24244  23117504.8054                   23117504.1294
 -11222400.27748  -8740676.39546  21131786.5164                   21131783.7344
 -13145976.21546 -10231318.70343  23943608.7664                   23943609.8324
 -14793636.60247 -11520449.21545  22896135.2034                   22896133.6954
  -3412756.30948  -2646711.75446  21395653.0234                   21395648.7034
 -16181456.05948 -12597231.21546  21545433.1954                   21545433.0704
 -14570612.14148 -11341841.70745  21650525.6884                   21650523.5004
 11  8 24  1 49  0.0000000  0  8G05G10G12G26G29G02G25G30
 -18275796.32048 -14227652.81347  20220121.5944                   20220118.8834
   3870921.16447   3026463.88344  23145676.0084                   23145674.5784
 -11123993.19148  -8663995.55946  21150512.9534                   21150510.4064
 -13193483.10946 -10268336.94943  23934569.1724                   23934569.3094
 -14829507.28147 -11548400.35245  22889309.6644                   22889307.7154
  -3329779.36348  -2582054.40246  21411443.1804                   21411438.3834
 -16146951.42648 -12570344.48846  21551999.4304                   21551998.8594
 -14526290.34848 -11307305.25045  21658959.9454                   21658957.5784
 11  8 24  1 49 30.0000000  0  8G05G10G12G26G29G02G25G30
 -18212593.84848 -14178404.11747  20232148.7274                   20232145.4924
   4019166.66847   3141979.83644  23173885.8134                   23173885.1994
 -11025105.73448  -8586940.39846  21169330.3674                   21169327.7774
 -13240994.82446 -10305358.95344  23925527.5084                   23925528.0004
 -14865345.77047 -11576326.42645  22882489.5394                   22882487.7304
  -3246716.41048  -2517330.01246  21427249.7034                   21427244.6684
 -16111870.71148 -12543008.86746  21558674.6884                   21558674.3834
 -14481371.48448 -11272303.53545  21667507.4774                   21667505.0664
 11  8 24  1 50  0.0000000  0  8G05G10G12G26G29G02G25G30
 -18148858.65648 -14128740.32047  20244276.9064                   20244274.1374
   4167610.71947   3257650.51243  23202133.4844                   23202132.8754
 -10925748.77748  -8509519.40246  21188237.4384                   21188234.7234
 -13288516.50846 -10342388.73044  23916485.1024                   23916485.1024
 -14901158.73447 -11604232.60545  22875675.0234                   22875672.9964
  -3163576.35248  -2452545.54346  21443070.4304                   21443065.9184
 -16076222.19548 -12515230.79346  21565458.3594                   21565458.2624
 -14435864.59048 -11236843.61745  21676166.7814                   21676164.6214
 11  8 24  1 50 30.0000000  0  8G05G10G12G26G29G02G25G30
 -18084568.40248 -14078644.00447  20256511.2114                   20256508.2704
   4316273.91447   3373491.93044  23230423.4844                   23230422.1644
 -10825900.85548  -8431715.85246  21207237.7974                   21207235.1844
 -13336021.21946 -10379405.26644  23907444.8674                   23907444.6334
 -14936921.21947 -11632099.46945  22868869.8444                   22868867.5274
  -3080335.85248  -2387682.81646  21458910.4064                   21458906.0704
 -16039982.25048 -12486991.87146  21572354.6954                   21572354.3754
 -14389746.52748 -11200907.46145  21684942.7274                   21684941.0394
 11  8 24  1 51  0.0000000  0  8G05G10G12G26G29G02G25G30
 -18019731.94148 -14028122.06647  20268848.6954                   20268846.1054
   4465146.25047   3489496.34044  23258753.4454                   23258751.5274
 -10725571.22348  -8353536.92246  21226330.1724                   21226327.2074
 -13383512.92246 -10416411.67644  23898407.7734                   23898408.0164
 -14972638.68847 -11659931.24645  22862072.4774                   22862070.4104
  -2997002.50048  -2322747.73046  21474768.5634                   21474763.8834
 -16003157.96148 -12458297.60946  21579361.9224                   21579361.6414
 -14343024.93848 -11164501.03145  21693833.9144                   21693832.1804
 11  8 24  1 51 30.0000000  0  8G05G10G12G26G29G02G25G30
 -17954355.62148 -13977179.46547  20281289.7894                   20281287.0864
   4614219.65247   3605657.41044  23287120.4144                   23287119.8834
 -10624767.10548  -8274988.28146  21245512.2814                   21245509.6174
 -13430993.66446 -10453409.56344  23889372.0394                   23889372.2344
 -15008314.64847 -11687730.68445  22855283.6174                   22855281.7234
  -2913581.94548  -2257744.70746  21490642.9224                   21490638.0204
 -15965754.60948 -12429152.14146  21586479.7664                   21586479.4494
 -14295705.68848 -11127628.87945  21702838.2424                   21702836.5704
 11  8 24  1 52  0.0000000  0  8G05G10G12G26G29G02G25G30
 -17888446.85248 -13925821.96947  20293831.7424                   20293829.0944
   4763485.35947   3721968.31643  23315524.8364                   23315523.7304
 -10523497.69148  -8196077.05546  21264782.7814                   21264780.6484
 -13478466.41846 -10490401.19943  23880337.7894                   23880338.4804
 -15043953.71147 -11715501.37945  22848501.4614                   22848499.6054
  -2830080.71548  -2192678.80946  21506532.6564                   21506527.9614
 -15927778.48048 -12399560.33646  21593706.1954                   21593706.3014
 -14247795.68448 -11090296.41045  21711955.1174                   21711952.9104
 11  8 24  1 52 30.0000000  0  8G05G10G12G26G29G02G25G30
 -17821985.69548 -13874034.03147  20306478.9774                   20306476.2344
   4912961.31247   3838443.10244  23343970.1724                   23343967.6884
 -10421743.71548  -8116788.25446  21284146.8364                   21284143.8404
 -13525906.64146 -10527367.50443  23871310.5554                   23871310.3094
 -15079532.87147 -11743225.39145  22841730.8204                   22841729.5004
  -2746477.57048  -2127533.50446  21522441.5164                   21522436.7854
 -15889208.31648 -12369505.65646  21601045.9694                   21601045.6804
 -14199274.26648 -11052487.50445  21721188.5164                   21721186.2034
 11  8 24  1 53  0.0000000  0  8G05G10G12G26G29G02G25G30
 -17754987.41448 -13821827.56347  20319228.0314                   20319225.2544
   5062631.21547   3955068.99644  23372450.7894                   23372449.4654
 -10319520.94548  -8037134.16446  21303598.5864                   21303596.0044
 -13573324.27746 -10564316.19143  23862286.7114                   23862286.8984
 -15115064.21147 -11770912.13745  22834969.6254                   22834967.8404
  -2662786.87948  -2062319.97746  21538367.7344                   21538362.6094
 -15850057.76648 -12338998.71946  21608495.6804                   21608495.6094
 -14150155.71548 -11014213.30545  21730535.7504                   21730533.6524
 11  8 24  1 53 30.0000000  0  8G05G10G12G26G29G02G25G30
 -17687464.66048 -13769212.41847  20332077.4614                   20332074.3914
   5212480.78147   4071834.88344  23400966.1954                   23400964.8874
 -10216842.93448  -7957125.33246  21323138.0314                   21323135.0204
 -13620727.82446 -10601253.91843  23853266.1094                   23853265.9144
 -15150557.48447 -11798569.23045  22828215.2584                   22828213.9414
  -2579019.87548  -1997046.98846  21554307.9144                   21554303.1334
 -15810338.33248 -12308048.50446  21616054.5234                   21616053.8874
 -14100452.04348 -10975483.16845  21739993.7664                   21739991.4574
 11  8 24  1 54  0.0000000  0  8G05G10G12G26G29G02G25G30
 -17619403.10948 -13716177.42647  20345028.9534                   20345025.8524
   5362523.25447   4188751.07044  23429518.5394                   23429517.4384
 -10113696.17248  -7876751.25446  21342765.9064                   21342763.1724
 -13668097.73046 -10638165.43843  23844252.1174                   23844251.9064
 -15185995.05947 -11826182.91445  22821471.7734                   22821470.7504
  -2495161.13348  -1931702.52046  21570265.2344                   21570260.9024
 -15770034.23448 -12276642.69946  21623724.0554                   21623723.6804
 -14050148.13347 -10936285.30145  21749566.3054                   21749564.1334
 11  8 24  1 54 30.0000000  0  8G05G10G12G26G29G02G25G30
 -17550826.78148 -13662741.30947  20358078.6024                   20358075.8714
   5512733.03547   4305797.64544  23458102.6174                   23458101.3674
 -10010106.03148  -7796031.68046  21362478.3524                   21362476.0084
 -13715453.62546 -10675066.02343  23835240.4774                   23835240.5944
 -15221397.67647 -11853769.34045  22814734.8914                   22814733.4264
  -2411233.88348  -1866304.67646  21586236.2194                   21586231.5354
 -15729168.30548 -12244799.10946  21631500.7664                   21631500.4694
 -13999267.34848 -10896637.93445  21759248.5784                   21759246.4264
 11  8 24  1 55  0.0000000  0  8G05G10G12G26G29G02G25G30
 -17481710.97748 -13608884.82447  20371231.0164                   20371228.2814
   5663133.63347   4422992.91044  23486722.3054                   23486721.6134
  -9906048.61348  -7714947.99246  21382280.0314                   21382277.9534
 -13762766.23446 -10711932.89843  23826237.3364                   23826236.7854
 -15256738.05947 -11881307.26245  22808009.9844                   22808008.1644
  -2327212.05948  -1800833.12146  21602224.9844                   21602220.2584
 -15687714.75048 -12212497.64146  21639389.1174                   21639388.6684
 -13947784.53547 -10856521.44145  21769045.4774                   21769043.4534
 11  8 24  1 55 30.0000000  0  8G05G10G12G26G29G02G25G30
 -17412058.06648 -13554609.82047  20384485.4224                   20384482.4614
   5813721.42647   4540334.00443  23515378.3524                   23515377.2114
  -9801527.00447  -7633502.60246  21402169.7114                   21402167.0124
 -13810032.60546 -10748763.73443  23817242.6334                   23817242.8794
 -15292015.10547 -11908795.82845  22801296.5394                   22801295.3164
  -2243096.59447  -1735288.60546  21618231.7664                   21618227.2424
 -15645674.55148 -12179739.03146  21647389.0394                   21647389.0044
 -13895701.22748 -10815937.04345  21778956.5634                   21778954.7424
 11  8 24  1 56  0.0000000  0  8G05G10G12G26G29G02G25G30
 -17341876.06248 -13499922.52347  20397840.8364                   20397837.8204
   5964486.76247   4657813.42644  23544068.2274                   23544067.1524
  -9696549.74648  -7551702.15646  21422146.3754                   21422143.6914
 -13857255.92646 -10785561.05143  23808255.8754                   23808255.9654
 -15327233.16847 -11936238.43445  22794595.1644                   22794593.4024
  -2158894.41448  -1669676.52046  21634254.8524                   21634250.7384
 -15603054.20348 -12146528.37146  21655499.1724                   21655499.1024
 -13843024.62948 -10774890.33245  21788980.4454                   21788978.3834
 11  8 24  1 56 30.0000000  0  8G05G10G12G26G29G02G25G30
 -17271166.80548 -13444824.38747  20411295.9304                   20411293.1914
   6115426.69947   4775428.93044  23572791.3594                   23572790.2894
  -9591120.09048  -7469549.19146  21442208.6724                   21442206.5664
 -13904433.27746 -10822322.50843  23799278.7274                   23799278.6604
 -15362391.30147 -11963634.32845  22787904.5634                   22787902.6484
  -2074606.10548  -1603997.32046  21650294.6414                   21650290.0944
 -15559854.54748 -12112866.28546  21663720.0234                   21663719.8984
 -13789756.09448 -10733382.38345  21799117.6954                   21799115.1214
 11  8 24  1 57  0.0000000  0  8G05G10G12G26G29G02G25G30
 -17199944.23048 -13389326.26647  20424849.5474                   20424846.7424
   6266526.21947   4893168.77743  23601544.2894                   23601543.1564
  -9485252.39547  -7387054.89546  21462354.9534                   21462352.4654
 -13951573.48446 -10859055.05543  23790308.0004                   23790307.8094
 -15397500.00847 -11990991.71145  22781223.7584                   22781222.0634
  -1990244.27048  -1538260.82446  21666348.3594                   21666343.4804
 -15516088.00448 -12078762.48846  21672048.5164                   21672048.0084
 -13735908.63748 -10691423.32045  21809364.2584                   21809361.9694
 11  8 24  1 57 30.0000000  0  9G05G10G15G12G26G29G02G25G30
 -17128193.66448 -13333416.71947  20438503.0554                   20438499.9964
   6417799.03547   5011043.66443  23630330.4694                   23630328.7934
 -11106885.94956  -8641325.55153  24685829.1024                   24685830.1524
  -9378932.92647  -7304208.57446  21482586.8834                   21482584.5744
 -13998657.17246 -10895743.55943  23781348.3054                   23781348.0704
 -15432541.23847 -12018296.51245  22774555.4454                   22774553.8204
  -1905792.87148  -1472454.54746  21682418.7114                   21682414.2934
 -15471738.76248 -12044204.63746  21680487.7194                   21680487.3404
 -13681467.04748 -10649001.30545  21819724.2894                   21819721.9694
 11  8 24  1 58  0.0000000  0  9G05G10G15G12G26G29G02G25G30
 -17055925.49648 -13277103.84847  20452255.3204                   20452252.1174
   6569233.05547   5129044.15644  23659147.4844                   23659146.6174
 -11152402.91845  -8676793.17643  24677166.7194                   24677166.7624
  -9272173.15648  -7221019.16446  21502902.6024                   21502899.8484
 -14045689.48446 -10932392.02343  23772398.2194                   23772397.5354
 -15467521.79347 -12045554.03145  22767898.7194                   22767897.3364
  -1821261.05548  -1406585.60246  21698504.1484                   21698500.1484
 -15426815.93048 -12009199.83646  21689036.1564                   21689036.0354
 -13626441.08248 -10606123.92645  21830194.8204                   21830192.7704
 11  8 24  1 58 30.0000000  0  9G05G10G15G12G26G29G02G25G30
 -16983138.22348 -13220386.48447  20466106.0704                   20466102.8554
   6720828.64147   5247170.54343  23687995.5394                   23687994.6724
 -11198051.63746  -8712363.44143  24668480.3594                   24668480.9144
  -9164972.26247  -7137486.01246  21523302.0784                   21523299.6334
 -14092664.01646 -10968995.46544  23763459.2734                   23763459.1454
 -15502437.48847 -12072761.00845  22761254.4224                   22761252.7894
  -1736645.79747  -1340651.64546  21714606.2664                   21714602.1914
 -15381316.83648 -11973745.99646  21697694.4144                   21697693.9694
 -13570828.62947 -10562789.54345  21840778.0704                   21840775.8284
 11  8 24  1 59  0.0000000  0  9G05G10G15G12G26G29G02G25G30
 -16909836.12948 -13163267.95747  20480055.1334                   20480052.0434
   6872580.37147   5365418.61343  23716873.0164                   23716871.8594
 -11243832.60245  -8748036.80543  24659768.5474                   24659769.5434
  -9057335.82448  -7053613.48046  21543784.6564                   21543782.3364
 -14139580.38347 -11005553.57844  23754531.0634                   23754530.9454
 -15537289.10247 -12099918.05945  22754622.6484                   22754620.7194
  -1651950.34848  -1274655.19146  21730723.5784                   21730718.9924
 -15335244.77748 -11937845.69946  21706461.9224                   21706461.2464
 -13514633.54748 -10519001.15645  21851471.4924                   21851469.1764
 11  8 24  1 59 30.0000000  0  9G05G10G15G12G26G29G02G25G30
 -16836020.77348 -13105749.48847  20494101.7274                   20494098.8914
   7024485.81647   5483786.49243  23745779.1884                   23745778.0124
 -11289743.02746  -8783811.00843  24651032.2894                   24651032.7664
  -8949265.98048  -6969403.23046  21564350.1094                   21564347.2704
 -14186434.82447 -11042063.42644  23745614.8284                   23745614.4574
 -15572074.65247 -12127023.63745  22748003.0864                   22748001.2704
  -1567174.77048  -1208596.29346  21746855.6484                   21746851.1134
 -15288599.89848 -11901499.04746  21715338.0634                   21715338.0004
 -13457856.65648 -10474759.43845  21862275.4614                   21862273.6174
 11  8 24  2  0  0.0000000  0  9G05G10G15G12G26G29G02G25G30
 -16761693.48848 -13047832.11747  20508245.6954                   20508242.7814
   7176542.37547   5602272.14543  23774715.3594                   23774713.1254
 -11335780.36346  -8819684.10543  24642271.3284                   24642271.1844
  -8840764.69548  -6884856.80146  21584997.0634                   21584994.2734
 -14233223.49247 -11078522.06644  23736711.5164                   23736711.0044
 -15606791.67247 -12154075.82045  22741396.8054                   22741394.6804
  -1482318.35247  -1142474.40246  21763002.8754                   21762998.5984
 -15241382.05148 -11864705.91846  21724322.7584                   21724322.9534
 -13400498.44147 -10430064.72745  21873190.1414                   21873188.8874
 11  8 24  2  0 30.0000000  0  9G05G10G15G12G26G29G02G25G30
 -16686861.30948 -12989521.32447  20522485.7584                   20522482.5824
   7328742.15647   5720869.35944  23803677.6024                   23803676.2154
 -11381946.98446  -8855657.98843  24633485.4304                   24633486.6724
  -8731839.96948  -6799980.39846  21605724.4774                   21605722.0634
 -14279948.21947 -11114930.85244  23727820.2424                   23727819.5864
 -15641443.57447 -12181077.27045  22734802.3754                   22734800.7114
  -1397386.93848  -1076294.08246  21779165.1254                   21779160.9494
 -15193597.11348 -11827470.91846  21733416.6484                   21733416.2074
 -13342565.30547 -10384922.03945  21884214.9694                   21884212.5984
 11  8 24  2  1  0.0000000  0  9G05G10G15G12G26G29G02G25G30
 -16611509.28148 -12930805.45347  20536824.7274                   20536821.5634
   7481099.00047   5839588.96943  23832670.0634                   23832668.9064
 -11428223.94946  -8891717.75443  24624679.3754                   24624679.9024
  -8622477.74248  -6714763.10246  21626535.5784                   21626533.0864
 -14326589.17247 -11151274.36344  23718944.3914                   23718943.8324
 -15676012.39547 -12208013.98045  22728224.2274                   22728222.2704
  -1312364.20348  -1010042.59446  21795344.2274                   21795340.1374
 -15145229.07048 -11789781.53946  21742620.4924                   21742620.4064
 -13284041.93048 -10339319.41045  21895351.6174                   21895349.3874
 11  8 24  2  1 30.0000000  0  9G05G10G15G12G26G29G02G25G30
 -16535660.92648 -12871702.82847  20551258.2504                   20551255.4224
   7633588.37146   5958411.83643  23861688.2664                   23861686.2934
 -11474630.62546  -8927878.71543  24615847.9774                   24615848.1724
  -8512702.25848  -6629223.77746  21647424.8674                   21647422.7934
 -14373164.66847 -11187566.86344  23710081.3914                   23710080.6954
 -15710518.07047 -12234901.48445  22721657.9534                   22721656.3914
  -1227271.99648   -943736.97746  21811536.9844                   21811532.9964
 -15096300.33648 -11751655.25046  21751931.2114                   21751931.5824
 -13224951.19548 -10293274.68445  21906596.0004                   21906594.2154
 11  8 24  2  2  0.0000000  0  9G05G10G15G12G26G29G02G25G30
 -18034719.72748 -14039800.59447  20265996.8524                   20265993.4534
   6210808.29346   4849752.03143  23590941.4534                   23590940.3284
 -13096570.61346 -10191727.93043  24307203.7974                   24307203.8164
  -9977916.92647  -7770949.51246  21368604.0864                   21368601.3954
 -15995077.00847 -12451394.58244  23401441.4384                   23401440.8014
 -17320364.21147 -13489327.01245  22415314.3594                   22415312.7624
  -2717512.41048  -2104963.26646  21527953.3914                   21527949.4184
 -16622214.16448 -12940679.02346  21461559.3594                   21461559.6214
 -14740696.71148 -11474375.09045  21618159.3364                   21618157.3954
 11  8 24  2  2 30.0000000  0  9G05G10G15G12G26G29G02G25G30
 -17957845.11348 -13979898.29347  20280625.6884                   20280622.8594
   6363593.20746   4968805.19543  23620015.7504                   23620014.6334
 -13143190.66446 -10228055.08643  24298331.1954                   24298331.5474
  -9867283.80947  -7684741.91046  21389657.0164                   21389654.5744
 -16041472.32447 -12487546.69544  23392612.8914                   23392612.2934
 -17354699.34447 -13516081.62545  22408780.8594                   22408778.5434
  -2632243.41448  -2038519.88746  21544179.5784                   21544175.3404
 -16572126.79748 -12901649.90246  21471090.7344                   21471090.7274
 -14680436.01648 -11427418.70345  21629626.6804                   21629624.5314
 11  8 24  2  3  0.0000000  0  9G05G10G15G12G26G29G02G25G30
 -17880469.85948 -13919605.88747  20295349.5394                   20295346.8594
   6516512.07447   5087962.73443  23649115.2974                   23649114.1054
 -13189923.57046 -10264470.23843  24289438.7734                   24289438.1484
  -9756235.93448  -7598211.11346  21410788.5084                   21410786.0904
 -16087782.23847 -12523632.24644  23383800.4384                   23383799.8484
 -17388956.04747 -13542775.12945  22402261.9534                   22402259.9224
  -2546896.00848  -1972015.40645  21560420.7504                   21560416.3054
 -16521470.84048 -12862177.73846  21480730.3284                   21480730.1254
 -14619601.91448 -11380015.50845  21641202.8134                   21641200.4614
 11  8 24  2  3 30.0000000  0  9G05G10G15G12G26G29G02G25G30
 -17802604.66448 -13858931.70747  20310166.9614                   20310163.7704
   6669553.40646   5207215.68843  23678238.7034                   23678237.1454
 -13236775.60246 -10300978.15643  24280523.2504                   24280522.8594
  -9644784.61748  -7511365.95346  21431996.9534                   21431994.5434
 -16134012.16047 -12559655.48044  23375002.5704                   23375002.3054
 -17423141.42247 -13569413.03945  22395756.7664                   22395754.2194
  -2461479.15648  -1905456.80546  21576674.8594                   21576670.6294
 -16470255.82448 -12822269.94546  21490476.0704                   21490476.1254
 -14558204.62948 -11332173.47345  21652886.2114                   21652884.5314
 11  8 24  2  4  0.0000000  0  9G05G10G15G12G26G29G02G25G30
 -17724224.71148 -13797856.41447  20325081.8284                   20325079.3014
   6822741.08646   5326582.65643  23707388.3284                   23707387.8554
 -13283717.62146 -10337556.24643  24271590.4144                   24271590.3094
  -9532905.68448  -7424187.58246  21453287.3834                   21453284.4534
 -16180131.96147 -12595592.89844  23366226.8594                   23366226.1054
 -17457227.23447 -13595973.36345  22389270.0634                   22389268.2344
  -2375966.45347  -1838823.52046  21592947.5164                   21592943.0634
 -16418455.72348 -12781906.25046  21500333.4224                   21500333.3754
 -14496218.67648 -11283872.73045  21664681.8914                   21664679.7734
 11  8 24  2  4 30.0000000  0  9G05G10G15G12G26G29G02G25G30
 -17645346.34848 -13736392.75047  20340092.3524                   20340089.0664
   6976057.54346   5446049.95343  23736564.1024                   23736563.2274
 -13330761.82847 -10374213.90643  24262637.7894                   24262637.7114
  -9420616.74648  -7336689.72846  21474654.8204                   21474652.2854
 -16226152.81247 -12631453.21144  23357468.9144                   23357468.3524
 -17491225.99247 -13622465.85245  22382800.4224                   22382798.2274
  -2290372.85547  -1772127.19145  21609235.6804                   21609230.7894
 -16366085.92248 -12741098.60946  21510298.8754                   21510299.2504
 -14433660.02048 -11235125.72745  21676586.7344                   21676584.3954
 11  8 24  2  5  0.0000000  0  9G05G10G15G12G26G29G02G25G30
 -17565970.69148 -13674541.59447  20355196.5234                   20355193.7384
   7129501.05946   5565616.29343  23765763.6724                   23765762.3754
 -13377904.36346 -10410948.20743  24253667.2114                   24253666.8094
  -9307919.43748  -7248873.66046  21496100.6724                   21496097.8874
 -16272070.27747 -12667232.96144  23348730.7274                   23348730.5314
 -17525134.85247 -13648888.26645  22376347.5164                   22376345.9384
  -2204697.30547  -1705367.02046  21625539.0704                   21625534.2114
 -16313146.14548 -12699846.84446  21520373.3914                   21520373.0434
 -14370529.09448 -11185932.80545  21688599.7274                   21688597.6844
 11  8 24  2  5 30.0000000  0  9G05G10G15G12G26G29G02G25G30
 -17486103.69948 -13612307.56647  20370395.1174                   20370391.9224
   7283064.68047   5685276.26243  23794986.1414                   23794984.1884
 -13425147.41446 -10447760.83643  24244676.6644                   24244676.6414
  -9194820.26648  -7160744.44946  21517622.7664                   21517620.0314
 -16317885.21147 -12702932.82444  23340012.5474                   23340012.1484
 -17558956.53947 -13675242.75845  22369911.3674                   22369909.8134
  -2118944.52747  -1638546.67245  21641857.0394                   21641852.9694
 -16259641.59848 -12658155.00046  21530554.8984                   21530554.8134
 -14306831.55548 -11136298.36345  21700721.1024                   21700718.7934
 11  8 24  2  6  0.0000000  0  9G05G10G15G12G26G29G02G25G30
 -17405743.18048 -13549688.97747  20385687.0864                   20385684.1884
   7436749.77746   5805030.83643  23824231.2504                   23824229.9734
 -13472484.42247 -10484646.70343  24235668.6484                   24235668.6564
  -9081318.30547  -7072301.38346  21539220.9614                   21539218.4454
 -16363590.25847 -12738547.05544  23331315.7894                   23331314.8524
 -17592685.05147 -13701524.64845  22363493.4534                   22363491.1604
  -2033110.54347  -1571663.04346  21658190.7584                   21658185.9414
 -16205568.99248 -12616020.51246  21540844.4774                   21540844.4964
 -14242564.83648 -11086220.39845  21712950.9064                   21712948.8404
 11  8 24  2  6 30.0000000  0  9G05G10G15G12G26G29G02G25G30
 -17324887.07448 -13486684.21547  20401073.5784                   20401070.3134
   7590558.16047   5924881.46944  23853499.9774                   23853499.3984
 -13519908.46146 -10521600.35543  24226644.0004                   24226643.6094
  -8967412.00447  -6983543.24246  21560896.7894                   21560894.3484
 -16409177.59047 -12774069.55944  23322640.8134                   23322639.7304
 -17626314.02347 -13727728.96545  22357093.4384                   22357091.5634
  -1947190.91047  -1504712.66446  21674540.8284                   21674535.9924
 -16150924.75048 -12573440.59446  21551242.9384                   21551242.9694
 -14177725.93748 -11035696.58645  21725289.3134                   21725287.2034
 11  8 24  2  7  0.0000000  0  9G05G10G15G12G26G29G02G25G30
 -17243544.47748 -13423300.36346  20416552.8054                   20416549.4344
   7744479.23847   6044819.92644  23882789.7894                   23882789.3794
 -13567424.27746 -10558625.54344  24217602.4064                   24217601.7704
  -8853111.66847  -6894478.05546  21582647.6644                   21582644.9224
 -16454650.88747 -12809503.23044  23313986.7974                   23313985.9924
 -17659849.28147 -13753860.26645  22350712.3054                   22350710.1214
  -1861193.68747  -1437701.82446  21690905.5084                   21690901.2194
 -16095717.32448 -12530421.83246  21561748.7034                   21561748.3134
 -14112323.92248 -10984733.99245  21737734.5314                   21737732.8554
 11  8 24  2  7 30.0000000  0  9G05G10G15G12G26G29G02G25G30
 -17161703.15248 -13359527.89146  20432126.3834                   20432123.5594
   7898525.00447   6164855.55544  23912103.7974                   23912102.8054
 -13615015.21546 -10595709.30943  24208545.2894                   24208545.2504
  -8738405.35547  -6805096.53546  21604475.4224                   21604472.8594
 -16499992.75447 -12844834.45744  23305358.5474                   23305357.4104
 -17693274.36347 -13779905.70745  22344351.5864                   22344349.4964
  -1775104.37548  -1370619.25046  21707287.5474                   21707282.9184
 -16039933.14848 -12486953.65246  21572364.0704                   21572363.9184
 -14046345.82048 -10933322.49245  21750290.0314                   21750288.0274
 11  8 24  2  8  0.0000000  0  9G05G10G15G12G26G29G02G25G30
 -17079382.44148 -13295381.88347  20447791.3364                   20447788.2624
   8052675.09846   6284972.46943  23941437.7274                   23941436.2854
 -13662696.16846 -10632863.12543  24199471.9774                   24199471.8524
  -8623313.67247  -6715414.71546  21626376.9224                   21626374.4964
 -16545217.08647 -12880074.13744  23296752.5474                   23296751.4224
 -17726605.19547 -13805877.69945  22338008.8204                   22338007.0744
  -1688940.80548  -1303478.80546  21723684.1414                   21723679.3554
 -15983590.66448 -12443050.43446  21583085.5164                   21583085.8524
 -13979810.63748 -10881476.91045  21762951.0474                   21762949.0004
 11  8 24  2  8 30.0000000  0  9G05G10G15G12G26G29G02G25G30
 -16996566.80548 -13230850.20346  20463550.7114                   20463547.8554
   8206944.87146   6405182.71143  23970794.5394                   23970793.2814
 -13710446.72346 -10670071.19543  24190386.2664                   24190384.6764
  -8507821.27347  -6625420.66046  21648354.4144                   21648351.6214
 -16590302.57847 -12915205.60544  23288173.2734                   23288172.0434
 -17759822.05147 -13831760.88345  22331687.7344                   22331686.0124
  -1602685.35547  -1236266.76646  21740098.0394                   21740093.4804
 -15926673.03948 -12398699.04746  21593916.5474                   21593916.6564
 -13912702.22748 -10829184.64845  21775721.5234                   21775719.4574
 11  8 24  2  9  0.0000000  0  9G05G10G15G12G26G29G02G25G30
 -16913277.80547 -13165949.67247  20479399.8134                   20479396.9414
   8361311.73846   6525468.57443  24000169.3984                   24000168.2504
 -13758284.07846 -10707346.93043  24181282.0944                   24181281.5044
  -8391950.95348  -6535132.10546  21670403.6024                   21670401.0234
 -16635265.26647 -12950241.39144  23279617.2504                   23279616.5204
 -17792942.31647 -13857568.81645  22325385.1024                   22325383.5084
  -1516357.54747  -1168998.33645  21756525.2974                   21756520.8364
 -15869200.88748 -12353915.57046  21604853.2194                   21604853.6644
 -13845041.71148 -10776462.18745  21788596.6804                   21788594.6334
 11  8 24  2  9 30.0000000  0  9G05G10G15G12G26G29G02G25G30
 -16829500.83248 -13100668.89847  20495342.3204                   20495339.6684
   8515789.50846   6645840.78143  24029565.5784                   24029564.4184
 -13806189.11747 -10744675.37943  24172165.8594                   24172165.1484
  -8275689.25447  -6444538.58246  21692527.1334                   21692524.9024
 -16680085.41447 -12985166.10244  23271087.8284                   23271086.9574
 -17825948.12947 -13883287.55145  22319104.3524                   22319101.9844
  -1429941.41047  -1101661.07846  21772969.9534                   21772965.8714
 -15811158.81248 -12308688.00446  21615898.2504                   21615898.4494
 -13776814.32848 -10723298.01645  21801580.4064                   21801577.8134
 11  8 24  2 10  0.0000000  0  9G05G10G15G12G26G29G02G25G30
 -16745259.45748 -13035026.25047  20511372.9304                   20511369.8204
   8670354.27746   6766280.84043  24058978.3524                   24058977.5124
 -13854180.84446 -10782071.36344  24163033.1024                   24163032.9224
  -8159060.09847  -6353658.74646  21714721.6564                   21714718.9924
 -16724781.00447 -13019993.75844  23262582.6174                   23262581.8484
 -17858858.72347 -13908932.11345  22312841.1334                   22312839.2974
  -1343458.19547  -1034271.55546  21789427.2974                   21789422.8594
 -15752569.27748 -12263033.83246  21627047.3984                   21627047.7934
 -13708043.10948 -10669710.07045  21814666.6724                   21814664.4884
 11  8 24  2 10 30.0000000  0  9G05G10G15G12G26G29G02G25G30
 -16660537.17648 -12969008.86747  20527494.6724                   20527491.8284
   8825022.05546   6886801.13742  24088410.2034                   24088409.5164
 -13902238.04746 -10819518.43744  24153888.4144                   24153887.6684
  -8042047.77748  -6262480.31646  21736988.1174                   21736985.4384
 -16769329.76247 -13054707.00444  23254105.2664                   23254104.1604
 -17891653.68447 -13934486.56245  22306600.3054                   22306599.0864
  -1256889.42248   -966815.36746  21805900.7974                   21805896.4384
 -15693414.64848 -12216939.33646  21638304.3284                   21638304.4534
 -13638711.09448 -10615685.13745  21827860.1644                   21827858.0904
 11  8 24  2 11  0.0000000  0  9G05G10G15G12G26G29G02G25G30
 -16575326.00448 -12902610.53946  20543710.2344                   20543707.2464
   8979800.22746   7007407.50042  24117863.9384                   24117862.8714
 -13950348.13746 -10857006.64844  24144734.0394                   24144732.8204
  -7924644.46947  -6170997.23046  21759328.8054                   21759326.4654
 -16813718.34847 -13089295.43444  23245658.2344                   23245657.1094
 -17924320.80147 -13959941.39845  22300384.4224                   22300382.3594
  -1170225.33648   -899284.91045  21822392.4064                   21822387.6914
 -15633686.03148 -12170397.56646  21649670.2584                   21649670.5704
 -13568809.85248 -10561216.66445  21841162.1804                   21841159.6134
 11  8 24  2 11 30.0000000  0  9G05G10G15G12G26G29G02G25G30
 -16489650.48847 -12835850.38347  20560013.4454                   20560010.6524
   9134663.62946   7128080.23443  24147333.6334                   24147332.5124
 -13998530.96146 -10894551.60243  24135563.8914                   24135563.2584
  -7806876.45747  -6079229.96946  21781739.6484                   21781737.2584
 -16857965.53147 -13123773.69944  23237238.1484                   23237237.5394
 -17956881.10547 -13985313.02745  22294188.4064                   22294186.3094
  -1083488.56247   -831697.80545  21838897.8674                   21838893.0474
 -15573406.95348 -12123426.86346  21661140.9924                   21661141.2274
 -13498363.69948 -10506323.57045  21854567.5474                   21854565.3954
 11  8 24  2 12  0.0000000  0  9G05G10G15G12G26G29G02G25G30
 -16403495.23448 -12768716.40646  20576408.0554                   20576405.3364
   9289626.82846   7248830.74243  24176821.8134                   24176821.5274
 -14046766.38746 -10932137.50044  24126384.3594                   24126384.9454
  -7688728.87547  -5987166.92646  21804222.2734                   21804219.9734
 -16902050.30147 -13158125.40644  23228849.2424                   23228848.3014
 -17989314.71147 -14010585.92645  22288016.5944                   22288014.4454
   -996661.36347   -764040.24645  21855420.5394                   21855416.0514
 -15512561.01648 -12076014.45746  21672719.5084                   21672719.7704
 -13427356.63348 -10450993.41445  21868079.7504                   21868077.7464
 11  8 24  2 12 30.0000000  0  9G05G10G15G12G26G29G02G25G30
 -16316873.66448 -12701219.06646  20592892.0004                   20592888.6334
   9444676.21546   7369648.45343  24206326.9844                   24206325.6094
 -14095062.78146 -10969770.92644  24117194.5084                   24117193.5704
  -7570215.56647  -5894818.90246  21826774.8834                   21826772.0274
 -16945980.29347 -13192356.50044  23220489.6484                   23220488.2934
 -18021631.19147 -14035767.55945  22281866.7114                   22281864.6174
   -909755.20747   -696321.17645  21871958.1804                   21871953.7114
 -15451160.50848 -12028169.91846  21684403.8834                   21684403.6994
 -13355801.69948 -10395236.34045  21881696.5394                   21881694.2034
 11  8 24  2 13  0.0000000  0  9G05G10G15G12G26G29G02G25G30
 -16229789.97748 -12633361.63346  20609463.1804                   20609460.5664
   9599806.72746   7490529.32043  24235847.2664                   24235846.6334
 -14143420.34847 -11007451.96944  24107991.9694                   24107991.6954
  -7451342.16447  -5802190.28546  21849395.6414                   21849393.1804
 -16989754.75847 -13226466.38344  23212159.5864                   23212158.1604
 -18053831.07447 -14060858.35245  22275739.2504                   22275737.4104
   -822772.84048   -628542.70745  21888510.6804                   21888505.8404
 -15389209.35948 -11979896.30546  21696192.7114                   21696192.8164
 -13283703.23448 -10339055.73445  21895416.2344                   21895414.6844
 11  8 24  2 13 30.0000000  0  9G05G10G15G12G26G29G02G25G30
 -16142245.22348 -12565144.92247  20626122.5634                   20626119.5354
   9755017.50046   7611472.73443  24265383.4694                   24265382.1994
 -14191834.75446 -11045177.35244  24098779.2034                   24098777.7034
  -7332109.67247  -5709281.86746  21872084.9924                   21872082.1644
 -17033368.62147 -13260451.14144  23203859.5164                   23203859.0554
 -18085910.52347 -14085855.30145  22269634.9304                   22269633.0514
   -735712.73047   -560703.65245  21905077.1564                   21905072.4964
 -15326707.04748 -11931193.20346  21708086.4534                   21708086.8794
 -13211061.48848 -10282451.79345  21909239.4454                   21909237.2194
 11  8 24  2 14  0.0000000  0  9G05G10G15G12G26G29G02G25G30
 -16054234.36748 -12496565.01646  20642870.3914                   20642867.3134
   9910312.96946   7732482.15643  24294935.0474                   24294933.5984
 -14240296.38347 -11082939.53544  24089558.0704                   24089556.2274
  -7212514.35947  -5616090.72346  21894843.0554                   21894840.4804
 -17076811.18047 -13294302.41444  23195592.7974                   23195591.8404
 -18117860.90647 -14110751.69145  22263555.0554                   22263553.0234
   -648567.81647   -492798.52045  21921660.3204                   21921655.5904
 -15263647.83648 -11882056.16446  21720086.3054                   21720086.4654
 -13137871.21548 -10225420.43445  21923167.0944                   21923164.9884
 11  8 24  2 14 30.0000000  0  9G05G10G15G12G26G29G02G25G30
 -15965772.76648 -12427633.88746  20659704.3594                   20659701.4734
  10065677.28546   7853545.21544  24324499.7344                   24324498.6954
 -14288815.83247 -11120746.76644  24080324.4694                   24080322.8954
  -7092572.08247  -5522629.22746  21917667.2344                   21917665.0394
 -17120092.09047 -13328027.71944  23187356.8834                   23187355.6374
 -18149693.21147 -14135556.07045  22257497.5634                   22257495.2344
   -561351.35947   -424837.64545  21938257.1724                   21938252.6214
 -15200046.09448 -11832496.36346  21732189.1724                   21732189.4804
 -13064147.43747 -10167973.34845  21937195.8284                   21937194.3014
 11  8 24  2 15  0.0000000  0  9G05G10G15G12G26G29G02G25G30
 -15876846.89848 -12358340.98446  20676626.0554                   20676623.0784
  10221123.38747   7974672.02743  24354080.0554                   24354079.3284
 -14337374.68447 -11158584.70343  24071083.9454                   24071082.7544
  -6972270.12147  -5428887.44946  21940559.9304                   21940557.3204
 -17163192.08647 -13361612.06644  23179155.2194                   23179153.9104
 -18181389.68047 -14160254.60945  22251465.8204                   22251463.4614
   -474047.84048   -356808.93045  21954870.8444                   21954865.7344
 -15135887.40248 -11782502.57446  21744398.2814                   21744397.9804
 -12989876.21547 -10110099.68445  21951329.7974                   21951327.9344
 11  8 24  2 15 30.0000000  0  9G05G10G15G12G26G29G02G25G30
 -15787458.99248 -12288688.06246  20693636.2034                   20693633.2384
  10376648.62546   8095860.49243  24383675.5864                   24383674.9454
 -14385970.35247 -11196451.32844  24061835.7504                   24061835.0704
  -6851611.44547  -5334867.71546  21963520.3984                   21963518.1214
 -17206107.68047 -13395052.71144  23170988.7194                   23170987.5634
 -18212948.62547 -14184845.98845  22245460.2504                   22245457.8794
   -386657.30148   -288712.41445  21971500.5704                   21971495.3404
 -15071173.28148 -11732075.97346  21756712.8524                   21756713.0354
 -12915059.73847 -10051801.14545  21965566.8914                   21965564.6484
 11  8 24  2 16  0.0000000  0  9G05G10G15G12G26G29G02G25G30
 -15697620.86747 -12218684.30546  20710731.6724                   20710728.6954
  10532240.75846   8217101.06343  24413283.9304                   24413282.6024
 -14434609.68447 -11234351.97344  24052580.3444                   24052579.0864
  -6730608.84848  -5240579.98846  21986546.7814                   21986544.3364
 -17248845.32847 -13428354.71144  23162855.6724                   23162854.3634
 -18244377.65647 -14209336.14145  22239479.6254                   22239477.2934
   -299189.48847   -220555.68045  21988145.1024                   21988140.2854
 -15005914.69948 -11681225.12546  21769131.0234                   21769131.2734
 -12839709.50847  -9993086.68745  21979905.0864                   21979903.5784
 11  8 24  2 16 30.0000000  0  9G05G10G15G12G26G29G02G25G30
 -15607334.51248 -12148331.29347  20727912.7424                   20727909.3404
  10687897.69546   8338392.13743  24442904.3204                   24442903.1884
 -14483289.91847 -11272284.51244  24043316.5474                   24043315.7814
  -6609264.96947  -5146026.33646  22009637.7584                   22009635.0354
 -17291400.79747 -13461514.73044  23154758.0474                   23154756.1254
 -18275674.32447 -14233723.14846  22233524.1094                   22233521.8204
   -211643.85547   -152338.31245  22004804.1094                   22004799.8244
 -14940112.53148 -11629950.69946  21781653.0004                   21781653.1374
 -12763826.95747  -9933957.44545  21994345.2424                   21994343.4734
 11  8 24  2 17  0.0000000  0  9G05G10G15G12G26G29G02G25G30
 -15516590.88748 -12077621.96146  20745180.5944                   20745177.7464
  10843628.32046   8459740.61342  24472538.5554                   24472538.3754
 -14531997.17647 -11310238.10244  24034047.0634                   24034046.1994
  -6487571.49647  -5051200.26246  22032795.1724                   22032792.4654
 -17333759.22347 -13494521.22344  23146696.9844                   23146695.9064
 -18306825.14547 -14257996.50046  22227596.1954                   22227593.9614
   -124009.34447    -84051.68745  22021480.6484                   22021476.0474
 -14873756.86348 -11578244.98046  21794280.0474                   21794280.0824
 -12687402.87147  -9874406.21145  22008887.8914                   22008886.8914
 11  8 24  2 17 30.0000000  0  9G05G10G15G12G26G29G02G25G30
 -15425406.48048 -12006569.16446  20762531.9534                   20762528.7934
  10999415.56646   8581133.25042  24502184.5004                   24502183.3524
 -14580742.60547 -11348221.44544  24024772.0474                   24024770.6254
  -6365545.37548  -4956114.99646  22056015.5864                   22056013.3834
 -17375931.46547 -13527382.64144  23138671.9534                   23138670.8284
 -18337842.58647 -14282165.91846  22221693.7814                   22221691.5634
    -36300.19548    -15706.91045  22038171.3134                   22038166.7814
 -14806863.38748 -11526120.18046  21807009.4304                   21807009.7584
 -12610453.36748  -9814445.55545  22023531.4844                   22023529.3524
 11  8 24  2 18  0.0000000  0  9G05G10G15G12G26G29G02G25G30
 -15333776.06648 -11935168.82446  20779969.4614                   20779965.7854
  11155264.28145   8702573.73842  24531841.5004                   24531840.5944
 -14629516.55546 -11386227.03944  24015490.0864                   24015489.1174
  -6243182.35248  -4860767.20346  22079300.8444                   22079298.7734
 -17417906.69147 -13560090.54744  23130684.2664                   23130683.3554
 -18368717.39547 -14306224.18746  22215818.8134                   22215816.3674
     51490.68448     52701.56345  22054877.4614                   22054872.7854
 -14739426.32448 -11473571.82046  21819842.2194                   21819841.9734
 -12532973.36348  -9754071.53545  22038275.3914                   22038273.4144
 11  8 24  2 18 30.0000000  0  9G05G10G15G12G26G29G02G25G30
 -15241699.39848 -11863420.76646  20797490.5394                   20797487.7704
  11311174.73046   8824062.35942  24561510.5004                   24561510.3164
 -14678313.73047 -11424250.70744  24006205.0394                   24006203.5164
  -6120482.82848  -4765157.19146  22102649.6484                   22102647.3834
 -17459678.84447 -13592640.20744  23122735.5314                   23122734.1254
 -18399445.02047 -14330167.76646  22209970.8914                   22209968.6564
    139366.13747    121175.94545  22071599.1884                   22071594.6644
 -14671444.52748 -11420598.97746  21832778.6414                   21832778.2624
 -12454962.21548  -9693283.62145  22053120.0634                   22053118.4844
 11  8 24  2 19  0.0000000  0  9G05G10G15G12G26G29G02G25G30
 -16724591.43048 -13018921.03946  20515305.7664                   20515302.5554
   9891734.09446   7718004.68042  24291399.5784                   24291399.1684
 -16302548.32847 -12689887.96544  23697122.0864                   23697121.4024
  -7572861.42248  -5896880.78945  21826271.8444                   21826268.6374
 -19076661.38347 -14852626.52344  22815033.4144                   22815032.3524
 -20005439.84847 -15581592.26246  21904360.5704                   21904358.4024
  -1348086.74648  -1037878.26245  21788546.5394                   21788541.9144
 -16178332.74648 -12594797.58646  21546027.5944                   21546027.8134
 -13951834.92247 -10859677.93845  21768275.1334                   21768273.0164
 11  8 24  2 19 30.0000000  0  9G05G10G15G12G26G29G02G25G30
 -16631641.47348 -12946492.49246  20532993.3364                   20532990.4964
  10047748.10246   7839574.07442  24321087.6954                   24321087.5904
 -16351395.84447 -12727950.88344  23687827.4844                   23687826.4774
  -7449510.43448  -5800763.15245  21849744.0864                   21849741.6724
 -19118028.84847 -14884860.83644  22807161.8524                   22807160.1454
 -20035878.68048 -15605310.79346  21898567.8204                   21898565.7584
  -1260055.04748   -969282.13745  21805298.4304                   21805294.0434
 -16109278.19948 -12540988.84046  21559168.3054                   21559168.0594
 -13872779.92647 -10798076.62145  21783318.6804                   21783316.8834
 11  8 24  2 20  0.0000000  0  9G05G10G15G12G26G29G02G25G30
 -16538247.59848 -12873718.03946  20550765.5234                   20550762.5394
  10203820.84046   7961189.16442  24350788.0554                   24350786.7114
 -16400253.69546 -12766021.83644  23678530.3674                   23678528.3984
  -7325827.46948  -5704386.84045  21873280.4614                   21873277.6724
 -19159177.89847 -14916924.97744  22799331.1174                   22799330.0474
 -20066159.46147 -15628906.14846  21892805.6414                   21892803.6884
  -1171934.19948   -900616.55545  21822067.5474                   21822063.0234
 -16039678.72348 -12486755.47746  21572412.6254                   21572412.3484
 -13793195.37547 -10736062.67245  21798463.1884                   21798461.1564
 11  8 24  2 20 30.0000000  0  9G05G10G15G12G26G29G02G25G30
 -16444418.63348 -12800604.54746  20568620.7894                   20568618.0164
  10359943.22746   8082842.94943  24380497.2114                   24380495.4304
 -16449125.79347 -12804103.89144  23669229.9774                   23669228.6604
  -7201822.30948  -5607759.45745  21896877.8444                   21896875.3954
 -19200111.51647 -14948821.21544  22791541.9224                   22791540.7464
 -20096286.92247 -15652382.03946  21887072.5944                   21887070.7704
  -1083730.88748   -831886.70345  21838851.9384                   21838847.2464
 -15969542.57048 -12432103.92246  21585758.8444                   21585758.6724
 -13713090.00048 -10673642.89145  21813706.6024                   21813704.2854
 11  8 24  2 21  0.0000000  0  9G05G10G15G12G26G29G02G25G30
 -16350167.88348 -12727162.39846  20586556.1564                   20586552.8134
  10516102.02346   8204525.14543  24410213.6564                   24410212.3984
 -16498020.02047 -12842203.18844  23659925.6564                   23659924.3284
  -7077508.73048  -5510891.74645  21920533.7034                   21920531.3444
 -19240837.14847 -14980555.41844  22783791.8674                   22783790.7814
 -20126269.72747 -15675745.20346  21881367.2274                   21881365.0744
   -995455.86747   -763100.98045  21855650.2664                   21855645.8594
 -15898882.20348 -12377043.89146  21599205.2034                   21599205.1454
 -13632476.82048 -10610827.42645  21829046.8834                   21829044.8984
 11  8 24  2 21 30.0000000  0  9G05G10G15G12G26G29G02G25G30
 -16255472.25048 -12653373.59046  20604576.0394                   20604572.9734
  10672320.00846   8326253.43743  24439940.0784                   24439939.4384
 -16546908.49647 -12880298.03144  23650622.4454                   23650621.6214
  -6952864.16448  -5413766.11745  21944252.7734                   21944250.5434
 -19281325.62947 -15012104.82844  22776086.7504                   22776085.6884
 -20156080.28948 -15698974.14846  21875693.8444                   21875691.7504
   -907083.98048   -694239.76245  21872466.5784                   21872461.9924
 -15827673.73048 -12321556.76246  21612755.7424                   21612755.9064
 -13551332.60247 -10547598.14845  21844487.9844                   21844486.2584
 11  8 24  2 22  0.0000000  0  9G05G10G15G12G26G29G02G25G30
 -16160348.55148 -12579251.21546  20622677.6094                   20622674.4104
  10828580.13346   8448014.52343  24469675.5784                   24469674.9304
 -16595803.02747 -12918397.55944  23641318.1094                   23641316.9264
  -6827906.45348  -5316396.48846  21968031.7584                   21968029.2624
 -19321588.25847 -15043478.21144  22768425.3284                   22768424.1454
 -20185730.98448 -15722078.51246  21870051.9144                   21870049.5314
   -818629.42648   -625314.13745  21889298.6254                   21889294.3674
 -15755933.37948 -12265655.18846  21626407.4224                   21626407.3484
 -13469674.05147 -10483968.10945  21860027.0864                   21860025.4884
 11  8 24  2 22 30.0000000  0  9G05G10G15G12G26G29G02G25G30
 -16064801.05948 -12504798.62146  20640859.6174                   20640856.2504
  10984878.25646   8569805.26243  24499418.5704                   24499417.6844
 -16644703.03946 -12956501.41444  23632012.6414                   23632011.4264
  -6702640.78948  -5218786.88746  21991868.8674                   21991866.6604
 -19361623.40647 -15074674.37944  22760806.7274                   22760805.6914
 -20215222.15648 -15745058.57446  21864440.0164                   21864437.6684
   -730094.51648   -556325.90245  21906146.4224                   21906141.8754
 -15683664.85548 -12209342.05946  21640159.2894                   21640159.3524
 -13387505.40648 -10419940.57445  21875662.9304                   21875660.9614
 11  8 24  2 23  0.0000000  0  8G05G15G12G26G29G02G25G30
 -15968836.13348 -12430020.74646  20659121.0634                   20659117.7934
 -16693609.63347 -12994610.34044  23622706.5164                   23622704.8284
  -6577073.93848  -5120942.60945  22015763.7114                   22015760.9304
 -19401431.39147 -15105693.52344  22753231.5234                   22753230.0274
 -20244555.52048 -15767915.66446  21858857.8204                   21858855.7704
   -641483.02347   -487277.98445  21923008.8364                   21923004.4964
 -15610873.86748 -12152621.80946  21654011.4224                   21654011.6134
 -13304832.97747 -10355520.49645  21891394.7424                   21891393.5784
 11  8 24  2 23 30.0000000  0  9G05G21G15G12G26G29G02G25G30
 -15872437.88748 -12354905.22346  20677464.7974                   20677461.9064
 -14188748.06656 -11054177.66052  25112486.4064                   25112485.0394
 -16742501.53547 -13032707.84444  23613401.7504                   23613400.5314
  -6451190.87548  -5022851.92246  22039718.0634                   22039715.9964
 -19440990.26647 -15136518.55944  22745703.8204                   22745702.9224
 -20273710.55548 -15790633.79746  21853309.7114                   21853307.6024
   -552776.58248   -418156.08245  21939888.9454                   21939884.5394
 -15537543.64148 -12095481.37146  21667965.6564                   21667965.4614
 -13221640.59048 -10290695.24645  21907226.0704                   21907224.5594
 11  8 24  2 24  0.0000000  0  9G05G21G15G12G26G29G02G25G30
 -15775632.21148 -12279472.22346  20695886.2974                   20695883.7544
 -14197051.20346 -11060647.56343  25110908.1334                   25110904.9184
 -16791399.49647 -13070810.08244  23604097.6724                   23604095.5274
  -6325018.08648  -4924535.47345  22063727.8914                   22063725.3244
 -19480320.30547 -15167165.27744  22738219.2344                   22738218.0664
 -20302708.76648 -15813229.73046  21847791.3914                   21847789.2234
   -463998.91847   -348978.68845  21956783.0004                   21956778.1884
 -15463699.50448 -12037940.48446  21682017.5944                   21682017.8714
 -13137954.07448 -10225484.97345  21923150.8204                   21923149.2384
 11  8 24  2 24 30.0000000  0  9G05G21G15G12G26G29G02G25G30
 -15678399.09048 -12203706.14546  20714389.3914                   20714386.2894
 -14205338.50046 -11067105.22742  25109328.9774                   25109328.1454
 -16840278.46547 -13108897.48844  23594795.7344                   23594794.2664
  -6198535.91848  -4825977.95745  22087797.1414                   22087794.7114
 -19519395.14847 -15197613.14544  22730783.8984                   22730782.7544
 -20331525.38348 -15835684.16846  21842307.8754                   21842305.4224
   -375127.21548   -279728.01645  21973694.4614                   21973690.0204
 -15389320.58648 -11979982.89146  21696171.5554                   21696171.4804
 -13053753.16848 -10159873.87545  21939173.8204                   21939172.1054
 11  8 24  2 25  0.0000000  0  9G05G21G15G12G26G29G02G25G30
 -15580754.66848 -12127619.57846  20732970.5314                   20732967.5164
 -14213624.14146 -11073561.54743  25107753.7734                   25107752.1954
 -16889149.18447 -13146978.50444  23585495.4614                   23585494.7544
  -6071761.30548  -4727192.56345  22111921.2664                   22111918.9694
 -19558224.79347 -15227869.95745  22723394.5084                   22723393.2304
 -20360171.74248 -15858005.93846  21836856.8134                   21836854.6644
   -286175.03147   -210414.61345  21990621.3134                   21990617.4734
 -15314422.34048 -11921620.61746  21710424.0474                   21710424.1134
 -12969053.73448 -10093874.30945  21955291.9064                   21955290.0164
 11  8 24  2 25 30.0000000  0  9G05G21G15G12G26G29G02G25G30
 -15482694.66848 -12051209.18446  20751630.3834                   20751627.6764
 -14221902.59846 -11080012.20343  25106177.6484                   25106177.1174
 -16938002.01647 -13185045.55144  23576199.3914                   23576197.6884
  -5944690.60548  -4628176.44545  22136102.1564                   22136099.4774
 -19596799.07447 -15257927.76645  22716054.6174                   22716053.0824
 -20388639.44148 -15880188.48846  21831439.0944                   21831437.0204
   -197135.89847   -141033.46145  22007565.3204                   22007560.6454
 -15238999.82048 -11862849.82446  21724776.6414                   21724776.3914
 -12883851.44948 -10027482.91845  21971505.0234                   21971503.3714
 11  8 24  2 26  0.0000000  0  9G05G21G15G12G26G29G02G25G30
 -15384225.88348 -11974480.25446  20770368.8054                   20770365.7734
 -14230179.25046 -11086461.49643  25104602.6804                   25104601.9064
 -16986839.38747 -13223100.59044  23566905.6724                   23566904.8364
  -5817332.18048  -4528936.12545  22160337.2274                   22160335.0984
 -19635119.49647 -15287787.77044  22708761.7424                   22708760.6524
 -20416931.43048 -15902234.12146  21826055.4304                   21826052.9064
   -108014.83647    -71588.47745  22024524.2274                   22024519.8834
 -15163060.02348 -11803675.96146  21739227.4304                   21739227.4924
 -12798153.83648  -9960705.56645  21987813.2734                   21987811.4344
 11  8 24  2 26 30.0000000  0  9G05G21G15G12G26G29G02G25G30
 -15285348.64548 -11897433.05146  20789184.2504                   20789181.1564
 -14238452.39146 -11092908.09443  25103027.9144                   25103027.6134
 -17035655.90247 -13261139.33644  23557616.0784                   23557614.9344
  -5689686.52047  -4429471.99245  22184627.9304                   22184625.7234
 -19673180.16847 -15317445.37944  22701519.4454                   22701517.7304
 -20445042.77048 -15924138.99646  21820706.2664                   21820703.8054
    -18808.75048     -2077.22345  22041499.5704                   22041495.2034
 -15086602.17648 -11744098.41846  21753776.9144                   21753776.5984
 -12711960.67248  -9893542.06345  22004215.0084                   22004213.7774
 11  8 24  2 27  0.0000000  0  9G05G21G15G12G26G29G02G25G30
 -15186070.13348 -11820073.16846  20808076.2894                   20808073.1484
 -14246727.03546 -11099355.81343  25101454.6334                   25101451.9804
 -17084453.32047 -13299163.21144  23548330.0864                   23548328.5004
  -5561761.61347  -4329790.26245  22208971.0784                   22208968.5634
 -19710982.00447 -15346901.28544  22694325.9304                   22694323.9774
 -20472976.16048 -15945905.21546  21815390.4224                   21815387.9304
     70477.82847     67496.74645  22058490.2734                   22058485.9804
 -15009632.67248 -11684122.18846  21768423.6174                   21768423.8984
 -12625278.85248  -9825997.80145  22020710.0704                   22020708.3874
 11  8 24  2 27 30.0000000  0  9G05G21G15G12G26G29G02G25G30
 -15086384.61348 -11742396.14146  20827046.0004                   20827043.2424
 -14254995.98046 -11105799.19142  25099880.0004                   25099877.7464
 -17133220.81347 -13337163.77044  23539049.5784                   23539049.0744
  -5433551.85547  -4229886.56345  22233368.6414                   22233366.0784
 -19748513.37147 -15376146.44145  22687183.4224                   22687182.2424
 -20500721.46148 -15967524.87946  21810111.0164                   21810108.1564
    159852.69947    137139.50845  22075497.5704                   22075493.9574
 -14932145.44948 -11623742.54346  21783169.1094                   21783168.5744
 -12538102.88748  -9758068.48045  22037298.9614                   22037297.4494
 11  8 24  2 28  0.0000000  0  9G05G21G15G12G26G29G02G25G30
 -14986300.95748 -11664408.87546  20846091.4534                   20846088.1844
 -14263266.71546 -11112243.84443  25098306.6564                   25098304.3404
 -17181962.16447 -13375143.96544  23529774.5164                   23529773.7584
  -5305067.19547  -4129768.67245  22257818.3364                   22257815.8914
 -19785777.18047 -15405183.11745  22680092.8364                   22680090.7464
 -20528282.91848 -15989001.28946  21804865.9614                   21804863.6254
    249309.29347    206845.94945  22092520.5004                   22092516.3794
 -14854148.90648 -11562966.02046  21798011.0864                   21798011.1724
 -12450441.72347  -9689761.09045  22053980.4064                   22053978.7304
 11  8 24  2 28 30.0000000  0  9G05G21G15G12G26G29G02G25G30
 -14885813.11748 -11586106.67246  20865213.5554                   20865210.3524
 -14271531.02746 -11118683.52743  25096733.9224                   25096732.3794
 -17230665.66847 -13413094.66844  23520506.5704                   23520505.1054
  -5176302.03147  -4029432.19945  22282321.2894                   22282319.1604
 -19822760.99647 -15434001.61744  22673054.9384                   22673053.1254
 -20555649.58248 -16010325.91446  21799658.0314                   21799655.7464
    338856.84047    276623.28145  22109561.0394                   22109556.4924
 -14775636.00848 -11501787.14846  21812951.6724                   21812951.8444
 -12362288.79347  -9621070.50445  22070755.4144                   22070753.5084
 11  8 24  2 29  0.0000000  0  9G05G21G15G12G26G29G02G25G30
 -14784929.72348 -11507496.23446  20884410.7274                   20884407.9224
 -14279796.29746 -11125123.91443  25095159.8134                   25095160.5904
 -17279334.82847 -13451018.59844  23511245.8284                   23511244.0274
  -5047266.09848  -3928884.74245  22306876.3134                   22306873.8364
 -19859467.89147 -15462604.32045  22666069.5234                   22666067.7624
 -20582825.85248 -16031502.18046  21794486.6804                   21794484.3014
    428488.64547    346466.27045  22126617.3834                   22126612.8054
 -14696615.37148 -11440212.62946  21827988.6174                   21827989.0434
 -12273653.25448  -9552003.85245  22087622.1644                   22087620.2154
 11  8 24  2 29 30.0000000  0  9G05G21G15G12G26G29G02G25G30
 -14683667.79348 -11428590.82846  20903680.4534                   20903677.5274
 -14288077.28146 -11131576.52743  25093584.7344                   25093583.7854
 -17327981.38347 -13488924.93444  23501987.9774                   23501986.2194
  -4917976.55947  -3828139.67245  22331479.2274                   22331476.8134
 -19895908.74647 -15490999.73045  22659135.0314                   22659133.5784
 -20609823.73448 -16052539.45746  21789349.1024                   21789346.6334
    518190.71548    416364.00845  22143687.0084                   22143682.8324
 -14617103.21948 -11378255.12546  21843119.3594                   21843119.5124
 -12184551.83648  -9482574.19145  22104577.6484                   22104576.1564
 11  8 24  2 30  0.0000000  0  9G05G21G15G12G26G29G02G25G30
 -14582014.19148 -11349380.23446  20923024.6334                   20923021.6214
 -14296359.69946 -11138030.36742  25092009.0784                   25092007.0204
 -17376587.22347 -13526799.52344  23492738.6414                   23492737.2584
  -4788421.53547  -3727187.73045  22356132.6564                   22356130.7894
 -19932064.64147 -15519173.10544  22652254.5164                   22652252.5784
 -20636625.85548 -16073424.18446  21784248.6254                   21784246.2504
    607978.53147    486328.55545  22160773.2974                   22160768.8914
 -14537086.25848 -11315904.24646  21858346.0704                   21858346.5004
 -12094971.77747  -9412771.56645  22121624.3364                   22121622.7814
 11  8 24  2 30 30.0000000  0  9G05G21G15G12G26G29G02G25G30
 -14479963.28548 -11269860.05146  20942444.2344                   20942441.2304
 -14304635.82046 -11144479.27043  25090433.9064                   25090431.6644
 -17425141.26647 -13564633.77344  23483499.1254                   23483497.6994
  -4658595.75447  -3626024.80145  22380837.7894                   22380835.1094
 -19967923.97347 -15547115.37544  22645430.9694                   22645428.8554
 -20663221.94948 -16094148.37546  21779187.3834                   21779185.1024
    697860.27748    556366.27745  22177876.9304                   22177872.7234
 -14456558.35548 -11253155.25446  21873670.1564                   21873670.1564
 -12004907.42648  -9342591.57845  22138763.1334                   22138761.3364
 11  8 24  2 31  0.0000000  0  9G05G21G15G12G26G29G02G25G30
 -14377525.75048 -11190038.59846  20961937.1884                   20961934.1914
 -14312914.49646 -11150930.16442  25088858.1644                   25088856.9304
 -17473648.23847 -13602431.32444  23474267.9844                   23474266.3404
  -4528510.48047  -3524659.68445  22405592.4844                   22405590.0704
 -20003490.82047 -15574829.73844  22638662.5554                   22638661.3364
 -20689617.80948 -16114716.53946  21774164.6094                   21774162.4574
    787828.02747    626471.03145  22194997.4844                   22194992.9654
 -14375529.33648 -11190015.76246  21889089.5314                   21889089.5554
 -11914369.18048  -9272042.30545  22155991.9614                   22155990.2074
 11  8 24  2 31 30.0000000  0  9G05G21G15G12G26G29G02G25G30
 -14274710.45748 -11109922.78146  20981502.4614                   20981499.1644
 -14321202.60946 -11157388.34043  25087281.6484                   25087279.9304
 -17522112.18047 -13640195.35244  23465046.4774                   23465044.2034
  -4398175.39847  -3423099.89845  22430394.2814                   22430392.0784
 -20038768.16847 -15602318.52045  22631949.3054                   22631947.8284
 -20715817.42248 -16135131.78146  21769178.9924                   21769176.5234
    877875.66847    696638.05545  22212133.2274                   22212128.2814
 -14294007.75448 -11126492.45746  21904602.7194                   21904602.5704
 -11823366.03547  -9201130.77745  22173308.7664                   22173307.2304
 11  8 24  2 32  0.0000000  0  9G05G21G15G12G26G29G02G25G30
 -14171502.65248 -11029501.10546  21001142.1484                   21001139.4184
 -14329483.86746 -11163841.23843  25085705.7734                   25085703.7544
 -17570512.73047 -13677909.98444  23455835.3054                   23455834.1914
  -4267576.27347  -3321334.38345  22455246.6884                   22455244.3914
 -20073735.41047 -15629565.66445  22625295.6024                   22625293.8794
 -20741801.66448 -16155379.21946  21764234.0394                   21764231.8444
    968020.43747    766880.76245  22229286.8914                   22229282.3674
 -14211978.48848 -11062573.55546  21920211.9144                   21920212.1174
 -11731883.35247  -9129845.59045  22190718.2424                   22190716.2974
 11  8 24  2 32 30.0000000  0  9G05G21G15G12G26G29G02G25G30
 -14067919.39148 -10948786.88346  21020853.6254                   21020850.6174
 -14337773.52746 -11170300.59843  25084127.5704                   25084126.4614
 -17618861.70747 -13715584.44544  23446634.6884                   23446633.5164
  -4136731.00047  -3219377.05545  22480145.3134                   22480143.5354
 -20108403.47347 -15656579.68445  22618698.0084                   22618696.4924
 -20767582.96548 -16175468.50446  21759328.3444                   21759325.4924
   1058247.94948    837187.92645  22246456.4844                   22246452.2194
 -14129458.11748 -10998271.97746  21935915.3284                   21935915.5824
 -11639938.40647  -9058200.19945  22208214.3674                   22208212.3134
 11  8 24  2 33  0.0000000  0  9G05G21G15G12G26G29G02G25G30
 -13963962.55148 -10867781.54346  21040635.8444                   21040632.5474
 -14346071.61746 -11176766.64143  25082549.1334                   25082547.0944
 -17667155.47346 -13753215.85944  23437444.1954                   23437443.4384
  -4005641.92647  -3117229.75045  22505090.7814                   22505088.9884
 -20142768.19547 -15683357.32445  22612159.0474                   22612157.3014
 -20793158.14148 -16195397.19546  21754461.6804                   21754459.1644
   1148558.91448    907560.12945  22263642.3674                   22263637.8134
 -14046448.28548 -10933589.00446  21951711.5864                   21951711.6724
 -11547533.08247  -8986196.06345  22225798.5944                   22225796.4344
 11  8 24  2 33 30.0000000  0  9G05G21G15G12G26G29G02G25G30
 -13859635.44148 -10786487.69946  21060488.6724                   21060485.7234
 -14354379.42646 -11183240.23443  25080967.7584                   25080966.2194
 -17715391.95747 -13790802.67244  23428264.7664                   23428264.4694
  -3874313.13347  -3014895.66045  22530082.5314                   22530079.7194
 -20176826.82847 -15709896.46945  22605677.7344                   22605676.2934
 -20818526.31648 -16215164.56646  21749634.4534                   21749631.5434
   1238952.57048    977996.75045  22280843.4774                   22280838.8014
 -13962951.80148 -10868526.81346  21967600.4614                   21967600.3324
 -11454670.81647  -8913835.86345  22243469.6954                   22243468.1724
 11  8 24  2 34  0.0000000  0  9G05G21G15G12G26G29G02G25G30
 -13754938.17248 -10704905.40246  21080412.0084                   21080408.9344
 -14362695.73046 -11189720.50442  25079384.7734                   25079382.6294
 -17763566.16047 -13828340.94144  23419098.3834                   23419096.9304
  -3742745.59048  -2912375.52045  22555118.9304                   22555116.2894
 -20210573.61347 -15736192.60545  22599256.1884                   22599254.0744
 -20843682.72748 -16234766.93846  21744846.8134                   21744844.5744
   1329431.29348   1048499.64545  22298060.8524                   22298056.6914
 -13878968.50048 -10803085.28546  21983581.9224                   21983581.7854
 -11361352.00047  -8841119.92645  22261227.6484                   22261226.0704
 11  8 24  2 34 30.0000000  0  9G05G21G15G12G26G29G02G25G30
 -13649868.41848 -10623032.87146  21100405.7814                   21100403.0084
 -14371016.07846 -11196203.84843  25077801.6334                   25077799.5904
 -17811670.23847 -13865824.57844  23409944.3674                   23409942.7234
  -3610937.00047  -2809667.55145  22580201.1334                   22580198.9884
 -20243999.94947 -15762239.05945  22592895.5944                   22592893.4264
 -20868619.98848 -16254198.53146  21740101.5314                   21740099.0204
   1420000.57447   1119073.11345  22315296.0784                   22315291.4024
 -13794495.57048 -10737262.22346  21999656.5864                   21999656.4774
 -11267574.16847  -8768046.30145  22279073.0474                   22279071.3874
 11  8 24  2 35  0.0000000  0  9G05G21G15G12G26G29G02G25G30
 -13544428.67648 -10540872.03946  21120470.5004                   21120467.8054
 -14379341.31346 -11202690.97343  25076216.8524                   25076216.3404
 -17859700.85547 -13903250.94944  23400804.7344                   23400802.9414
  -3478890.65247  -2706774.32045  22605328.5234                   22605326.5824
 -20277102.21147 -15788032.97345  22586595.4614                   22586594.0354
 -20893335.78548 -16273457.55946  21735398.0554                   21735395.8204
   1510660.54347   1189717.26645  22332548.0634                   22332543.3594
 -13709535.06348 -10671059.23446  22015824.1024                   22015824.2034
 -11173339.88347  -8694616.99645  22297005.0634                   22297003.3204
 11  8 24  2 35 30.0000000  0  9G05G21G15G12G26G29G02G25G30
 -15014050.33248 -11686031.77046  20840810.7814                   20840807.5044
 -15963104.35546 -12436792.00443  24774837.2344                   24774836.6024
 -19483089.22747 -15168228.84844  23091884.1804                   23091882.4414
  -4922038.03547  -3831304.77045  22330706.4844                   22330704.5164
 -21885310.50847 -17041182.24245  22280564.1644                   22280562.7584
 -22493261.41048 -17520152.81346  21430942.4304                   21430939.7344
     25981.88347     32824.81245  22050022.9844                   22050018.4694
 -15199518.81648 -11832085.54346  21732289.7034                   21732289.9224
 -12654081.25047  -9848441.45345  22015229.3524                   22015227.9614
 11  8 24  2 36  0.0000000  0  9G05G21G15G12G26G29G02G25G30
 -14907888.78948 -11603308.49246  20861012.8054                   20861009.6724
 -15971450.98846 -12443295.84843  24773248.9144                   24773247.0594
 -19530974.94147 -15205542.32044  23082771.3364                   23082770.0474
  -4789536.75447  -3728057.05145  22355921.0164                   22355918.3834
 -21917764.55147 -17066471.06345  22274387.9534                   22274386.2814
 -22517538.75448 -17539070.18846  21426322.3674                   21426320.1914
    116813.02348    103602.33645  22067307.2194                   22067302.9654
 -15113600.46548 -11765136.19146  21748639.3594                   21748639.7384
 -12558952.91848  -9774315.49245  22033331.6334                   22033330.0234
 11  8 24  2 36 30.0000000  0  9G05G21G15G12G26G29G02G25G30
 -14801355.95748 -11520295.89546  20881285.0394                   20881282.3714
 -15979795.89846 -12449798.38342  24771660.9774                   24771658.8874
 -19578770.51247 -15242785.56644  23073676.3134                   23073674.2384
  -4656798.94547  -3624625.02345  22381180.4534                   22381177.8524
 -21949875.68447 -17091492.66845  22268277.4454                   22268275.9654
 -22541579.66048 -17557803.33246  21421747.8754                   21421745.4414
    207743.80147    174457.48445  22084611.0004                   22084606.3364
 -15027192.81348 -11697805.55946  21765082.0944                   21765081.9384
 -12463367.86748  -9699833.64845  22051520.7974                   22051519.3484
 11  8 24  2 37  0.0000000  0  9G05G21G15G12G26G29G02G25G30
 -14694481.36748 -11437017.00846  20901622.7814                   20901619.5314
 -15988166.46146 -12456320.83243  24770067.3364                   24770065.3204
 -19626499.05547 -15279976.58244  23064593.6174                   23064592.5904
  -4523854.43847  -3521031.92645  22406478.5084                   22406476.0514
 -21981666.89547 -17116264.98845  22262228.1564                   22262226.3914
 -22565408.46148 -17576371.19146  21417213.4064                   21417210.4964
    298748.09047    245369.91445  22101928.3914                   22101923.8444
 -14940324.65648 -11630116.07846  21781612.6564                   21781612.6094
 -12367355.34448  -9625018.69945  22069790.9384                   22069789.4064
 11  8 24  2 37 30.0000000  0  9G05G21G15G12G26G29G02G25G30
 -14587240.02748 -11353452.32846  20922030.0634                   20922026.9654
 -15996535.47746 -12462842.09443  24768476.0554                   24768474.4384
 -19674130.23047 -15317091.71944  23055530.3204                   23055527.9844
  -4390678.73047  -3417258.67245  22431821.3754                   22431818.5864
 -22013107.01247 -17140763.73445  22256244.7814                   22256243.1844
 -22588995.47748 -17594750.65246  21412724.7974                   21412722.1954
    389853.40248    316361.06245  22119265.6804                   22119260.6914
 -14852970.70748 -11562048.07446  21798235.4454                   21798235.3484
 -12270890.57447  -9549851.35545  22088148.0554                   22088146.4224
 11  8 24  2 38  0.0000000  0  9G05G21G15G12G26G29G02G25G30
 -14479641.99648 -11269609.71946  20942505.4774                   20942502.3444
 -16004911.09846 -12469368.51243  24766881.6564                   24766881.0944
 -19721669.09447 -15354134.96145  23046483.5784                   23046481.8244
  -4257282.31347  -3313313.43445  22457205.7974                   22457203.2934
 -22044200.12147 -17164992.08245  22250327.8204                   22250326.3714
 -22612345.98448 -17612945.82446  21408281.0314                   21408279.0944
    481052.37948    387425.18745  22136619.8674                   22136615.9494
 -14765140.74648 -11493609.15246  21814949.2194                   21814948.8984
 -12173983.81648  -9474339.60545  22106588.7504                   22106586.9884
 11  8 24  2 38 30.0000000  0  9G05G21G15G12G26G29G02G25G30
 -14371696.14848 -11185496.08246  20963046.8674                   20963043.5204
 -16013300.56646 -12475905.69543  24765284.8444                   24765284.1484
 -19769118.33247 -15391108.34044  23037453.9694                   23037452.4184
  -4123675.06347  -3209203.91045  22482630.4304                   22482627.9734
 -22074949.07047 -17188952.25045  22244476.8914                   22244474.9804
 -22635464.08248 -17630959.88746  21403882.1334                   21403879.3674
    572338.71948    458557.39845  22153991.0864                   22153986.9184
 -14676843.61348 -11424806.19946  21831751.1804                   21831751.7114
 -12076644.28947  -9398490.62945  22125112.0634                   22125110.5904
 11  8 24  2 39  0.0000000  0  9G05G21G15G12G26G29G02G25G30
 -14263415.43848 -11101121.51646  20983651.9064                   20983648.9024
 -16021715.05546 -12482462.38743  24763683.8284                   24763681.4064
 -19816485.77747 -15428017.98845  23028440.7734                   23028438.7664
  -3989870.10547  -3104940.33645  22508092.3524                   22508090.1884
 -22105360.72747 -17212649.60545  22238689.4144                   22238688.1134
 -22658357.84448 -17648799.15646  21399525.1484                   21399522.7584
    663702.37947    529749.85245  22171376.9774                   22171372.8874
 -14588091.93848 -11355649.06346  21848640.1954                   21848640.1564
 -11978885.19147  -9322314.71145  22143715.1174                   22143713.4414
 11  8 24  2 39 30.0000000  0  9G05G21G15G12G26G29G02G25G30
 -14154779.77748 -11016470.36746  21004324.7274                   21004321.6644
 -16030132.55146 -12489021.46943  24762082.5704                   24762079.7274
 -19863746.01247 -15464844.09045  23019447.7664                   23019445.1414
  -3855848.81647  -3000508.19145  22533596.0164                   22533593.7934
 -22135409.04347 -17236063.81645  22232971.5554                   22232969.8554
 -22681002.40248 -17666444.23446  21395216.3984                   21395213.8754
    755166.08647    601020.27045  22188782.0004                   22188777.0474
 -14498865.48848 -11286121.95346  21865619.2034                   21865619.2114
 -11880686.62147  -9245796.34445  22162401.2274                   22162400.0824
 11  8 24  2 40  0.0000000  0  9G05G21G15G12G26G29G02G25G30
 -14045793.06348 -10931545.67246  21025064.0314                   21025060.7734
 -16038554.98846 -12495584.33643  24760479.8364                   24760477.8524
 -19910897.25047 -15501585.27745  23010474.3054                   23010473.0594
  -3721615.30147  -2895910.67645  22559139.5314                   22559137.2424
 -22165091.94947 -17259193.30545  22227323.2894                   22227321.1804
 -22703396.96948 -17683894.52046  21390954.7194                   21390952.0944
    846728.69947    672367.75845  22206206.0634                   22206201.3554
 -14409167.94548 -11216227.77346  21882688.5554                   21882688.3594
 -11782052.73447  -9168938.77045  22181170.6884                   22181168.7974
 11  8 24  2 40 30.0000000  0  9G05G21G15G12G26G29G02G25G30
 -13936471.95348 -10846360.39846  21045867.2034                   21045864.3054
 -16046997.05146 -12502162.55143  24758872.8444                   24758871.4924
 -19957950.35547 -15538249.97344  23001520.5864                   23001518.3714
  -3587186.73847  -2791161.17245  22584720.6334                   22584718.3524
 -22194419.89147 -17282046.20745  22221742.0704                   22221739.9064
 -22725553.09848 -17701159.00446  21386738.3444                   21386735.8054
    938376.78547    743781.84445  22223645.9064                   22223641.6564
 -14319015.63748 -11145979.23846  21899843.9224                   21899844.1174
 -11683000.42647  -9091755.15645  22200020.0944                   22200018.2034
 11  8 24  2 41  0.0000000  0  9G05G21G15G12G26G29G02G25G30
 -13826817.84848 -10760915.64846  21066733.8364                   21066730.7194
 -16055458.36746 -12508755.75043  24757262.2424                   24757261.1994
 -20004901.69547 -15574835.39144  22992586.1254                   22992584.6994
  -3452565.15247  -2686261.26245  22610338.2194                   22610336.1174
 -22223388.39147 -17304619.01645  22216229.5634                   22216227.2774
 -22747467.42248 -17718235.07446  21382568.6334                   21382565.9844
   1030111.37147    815263.32845  22241102.3754                   22241098.2274
 -14228409.90648 -11075377.39146  21917085.7734                   21917085.6954
 -11583531.34847  -9014246.80545  22218948.5234                   22218946.6134
 11  8 24  2 41 30.0000000  0  9G05G21G15G12G26G29G02G25G30
 -13716834.39848 -10675214.26646  21087662.8054                   21087660.0434
 -16063940.84046 -12515365.40643  24755649.1644                   24755646.3244
 -20051749.14847 -15611339.84845  22983671.1644                   22983669.4964
  -3317754.89547  -2581214.34845  22635991.5704                   22635989.7154
 -22251995.03547 -17326909.85945  22210786.0394                   22210783.7624
 -22769139.18448 -17735122.13346  21378444.4614                   21378442.0474
   1121931.62147    886811.55145  22258575.1484                   22258570.9414
 -14137354.34048 -11004425.00446  21934412.7894                   21934412.9734
 -11483649.52347  -8936416.81345  22237955.4534                   22237953.8054
 11  8 24  2 42  0.0000000  0  9G05G21G15G12G26G29G02G25G30
 -13606511.44548 -10589248.34046  21108656.5864                   21108653.2234
 -16072432.03146 -12521981.86743  24754033.1884                   24754030.3054
 -20098476.80947 -15647750.96945  22974779.3284                   22974777.8364
  -3182746.49247  -2476013.02045  22661683.0474                   22661681.1844
 -22280223.43447 -17348905.97745  22205414.0004                   22205412.1094
 -22790553.48848 -17751808.58246  21374369.4454                   21374366.9964
   1213850.44547    958436.59045  22276066.6564                   22276062.7774
 -14045838.54748 -10933114.00846  21951827.9144                   21951827.7274
 -11383345.13347  -8858257.54745  22257042.4304                   22257040.5634
 11  8 24  2 42 30.0000000  0  9G05G21G15G12G26G29G02G25G30
 -13495858.79348 -10503025.50446  21129712.9924                   21129710.1484
 -16080940.03546 -12528611.48443  24752413.4844                   24752411.4344
 -20145089.43447 -15684072.44545  22965909.0004                   22965906.9064
  -3047550.30547  -2370665.36745  22687410.1094                   22687408.0234
 -22308077.66848 -17370610.53145  22200113.6484                   22200111.8874
 -22811714.77348 -17768297.87146  21370342.3204                   21370339.8014
   1305860.85247   1030132.99645  22293575.4224                   22293571.5164
 -13953872.27048 -10861451.99646  21969328.5704                   21969328.4304
 -11282628.21947  -8779776.84445  22276208.3754                   22276206.3054
 11  8 24  2 43  0.0000000  0  9G05G21G15G12G26G29G02G25G30
 -13384875.50848 -10416545.02746  21150832.3284                   21150829.5204
 -16089462.00446 -12535251.93043  24750791.4064                   24750790.3874
 -20191580.17647 -15720298.95345  22957061.7814                   22957060.3324
  -2912166.22747  -2265171.31345  22713172.7734                   22713171.1414
 -22335550.51247 -17392017.90245  22194885.7734                   22194884.1374
 -22832617.53148 -17784585.71546  21366364.6564                   21366362.2504
   1397966.74247   1101903.80945  22311102.9064                   22311098.1484
 -13861454.46148 -10789438.13346  21986914.8134                   21986915.1454
 -11181498.17647  -8700974.21545  22295452.8754                   22295450.7344
 11  8 24  2 43 30.0000000  0  9G05G21G15G12G26G29G02G25G30
 -13273565.88348 -10329810.25046  21172013.6484                   21172011.0634
 -16098000.09846 -12541904.94543  24749168.0944                   24749166.0084
 -20237947.65247 -15756429.40245  22948238.3984                   22948236.5434
  -2776598.89147  -2159534.45745  22738970.2584                   22738968.8794
 -22362640.28147 -17413126.76245  22189730.2194                   22189728.7734
 -22853261.02348 -17800671.52346  21362436.4534                   21362433.9384
   1490166.70747   1173747.92645  22328647.9224                   22328643.2304
 -13768589.15248 -10717075.55546  22004586.6254                   22004586.5634
 -11079959.48847  -8621853.15245  22314774.6644                   22314773.0164
 11  8 24  2 44  0.0000000  0  9G05G21G15G12G26G29G02G25G30
 -13161945.47748 -10242833.32046  21193254.5634                   21193251.5394
 -16106568.05546 -12548581.21143  24747536.6644                   24747535.4924
 -20284201.96547 -15792471.66845  22939436.1644                   22939434.5434
  -2640864.20347  -2053767.21145  22764800.5004                   22764797.9344
 -22389356.57848 -17433944.62145  22184646.7504                   22184644.5514
 -22873655.94548 -17816563.64146  21358555.3674                   21358552.6024
   1582448.03547   1245655.44545  22346208.4694                   22346204.2424
 -13675291.85248 -10644376.37946  22022340.3284                   22022340.5274
 -10978028.05947  -8542426.07045  22334171.5314                   22334170.2774
 11  8 24  2 44 30.0000000  0 10G05G21G15G12G26G29G02G25G30G18
 -13050007.47748 -10155608.89546  21214555.7664                   21214552.5984
 -16115156.79746 -12555273.69543  24745902.2034                   24745900.6484
 -20330331.02747 -15828416.34045  22930658.8984                   22930656.6414
  -2504956.15247  -1947864.86745  22790662.6724                   22790660.6214
 -22415686.40247 -17454461.32045  22179635.9614                   22179634.1414
 -22893790.60248 -17832252.95746  21354724.0314                   21354721.3954
   1674820.14847   1317633.70345  22363786.3444                   22363782.0044
 -13581555.71548 -10571335.24646  22040178.1954                   22040178.3134
 -10875697.49647  -8462687.97345  22353644.4224                   22353642.7934
 -15836761.47356 -12332026.65652  24668808.7424                   24668808.2544
 11  8 24  2 45  0.0000000  0 10G05G21G15G12G26G29G02G25G30G18
 -12937754.59848 -10068139.12546  21235916.6254                   21235914.0164
 -16123767.44946 -12561983.26643  24744263.7114                   24744261.2194
 -20376331.88347 -15864261.10945  22921904.6884                   22921902.8404
  -2368878.39547  -1841830.27745  22816557.2814                   22816555.3484
 -22441626.84447 -17474674.60945  22174699.5704                   22174698.0084
 -22913662.97348 -17847737.88746  21350942.0944                   21350939.9184
   1767283.28147   1389682.89845  22381381.7424                   22381376.9024
 -13487383.50848 -10497954.31346  22058098.1954                   22058098.6134
 -10772971.00047  -8382641.35545  22373192.5394                   22373190.9844
 -15878422.09446 -12364489.37543  24660880.6254                   24660880.1214
 11  8 24  2 45 30.0000000  0 10G05G21G15G12G26G29G02G25G30G18
 -12825169.98448  -9980410.85546  21257340.9384                   21257338.2584
 -16132381.02346 -12568695.10943  24742624.4924                   24742622.1414
 -20422181.90647 -15899988.35245  22913180.2194                   22913178.1294
  -2232614.46147  -1735650.62145  22842487.4304                   22842485.4884
 -22467155.00847 -17494566.65645  22169841.7274                   22169840.0824
 -22933251.57848 -17863001.69946  21347214.7034                   21347211.8914
   1859857.28147   1461818.48445  22398997.8444                   22398993.1524
 -13392758.33648 -10424220.42646  22076104.7894                   22076105.1054
 -10669831.94547  -8302273.27345  22392820.0314                   22392818.0904
 -15919899.04746 -12396808.90243  24652986.0944                   24652987.3754
 11  8 24  2 46  0.0000000  0 10G05G21G15G12G26G29G02G25G30G18
 -12712279.09848  -9892443.93446  21278823.2114                   21278820.1994
 -16141021.28546 -12575427.68443  24740981.2504                   24740978.4534
 -20467900.98047 -15935613.55145  22904479.6094                   22904477.7074
  -2096190.47747  -1629346.26645  22868448.6024                   22868446.2384
 -22492290.35547 -17514152.58645  22165059.1484                   22165056.9494
 -22952576.66848 -17878060.17646  21343537.2504                   21343534.3954
   1952519.43047   1534022.75045  22416631.1414                   22416626.4414
 -13297705.51648 -10350153.30546  22094192.7034                   22094193.4534
 -10566306.25547  -8221603.90945  22412519.8674                   22412518.1294
 -15961213.68446 -12429001.93042  24645125.6804                   24645125.1764
 11  8 24  2 46 30.0000000  0 10G05G21G15G12G26G29G02G25G30G18
 -12599095.37548  -9804248.82446  21300361.2974                   21300358.8134
 -16149699.68446 -12582189.99643  24739328.8364                   24739327.0004
 -20513497.21947 -15971143.02745  22895802.6954                   22895801.2854
  -1959620.22347  -1522927.91045  22894436.4384                   22894434.1644
 -22517040.14147 -17533438.10945  22160349.0474                   22160347.2154
 -22971646.87148 -17892920.03546  21339907.9144                   21339905.5594
   2045258.89847   1606287.27345  22434278.4144                   22434274.3204
 -13202238.53948 -10275763.47746  22112359.7814                   22112359.7154
 -10462407.66447  -8140643.98445  22432291.0784                   22432289.0984
 -16002375.19146 -12461075.88743  24637292.6644                   24637290.8404
 11  8 24  2 47  0.0000000  0 10G05G21G15G12G26G29G02G25G30G18
 -12485583.83648  -9715798.27346  21321962.0084                   21321959.0594
 -16158379.19946 -12588953.22343  24737676.8364                   24737675.0594
 -20558930.01247 -16006545.14845  22887156.8204                   22887155.1844
  -1822869.81647  -1416369.18845  22920459.6954                   22920457.6954
 -22541363.80547 -17552391.57045  22155720.6724                   22155718.5354
 -22990422.58648 -17907550.42646  21336335.2504                   21336332.7424
   2138113.47747   1678641.48445  22451947.9844                   22451943.5664
 -13106322.71148 -10201023.88346  22130611.6644                   22130611.6374
 -10358101.89847  -8059366.76645  22452139.6644                   22452138.1334
 -16043345.68845 -12493000.72343  24629495.7664                   24629495.7074
 11  8 24  2 47 30.0000000  0 10G05G21G15G12G26G29G02G25G30G18
 -12371766.44548  -9627109.38746  21343621.1024                   21343618.1414
 -16167080.02346 -12595733.00443  24736020.5944                   24736019.7304
 -20604215.59047 -16041832.54345  22878539.5084                   22878537.3204
  -1685961.55147  -1309687.44545  22946512.3444                   22946510.0474
 -22565276.82848 -17571025.06645  22151169.8054                   22151167.9414
 -23008920.74648 -17921964.53946  21332815.1884                   21332812.6644
   2231064.40247   1751070.76245  22469636.4224                   22469631.4964
 -13009979.66448 -10125951.39846  22148945.5084                   22148945.3634
 -10253411.03947  -7977789.49245  22472061.8984                   22472060.1414
 -16084142.61346 -12524790.41842  24621731.6094                   24621731.1764
 11  8 24  2 48  0.0000000  0 10G05G21G15G12G26G29G02G25G30G18
 -12257641.46548  -9538180.83246  21365337.7894                   21365335.1524
 -16175797.73046 -12602525.90243  24734362.5864                   24734360.1524
 -20649346.27047 -16076999.25445  22869951.0394                   22869949.4614
  -1548893.89847  -1202881.53545  22972595.3364                   22972593.1254
 -22588771.69947 -17589332.72345  22146698.9844                   22146697.1954
 -23027134.39848 -17936156.95746  21329348.7194                   21329346.6954
   2324116.60547   1823578.96545  22487343.9304                   22487339.3554
 -12913207.43848 -10050544.48846  22167360.4774                   22167360.7194
 -10148333.48847  -7895910.90645  22492057.3054                   22492055.4614
 -16124760.58646 -12556440.74643  24614002.9304                   24614001.6604
 11  8 24  2 48 30.0000000  0 10G05G21G15G12G26G29G02G25G30G18
 -12143215.64548  -9449017.84846  21387112.7274                   21387109.5084
 -16184537.94946 -12609336.41843  24732699.2664                   24732697.0784
 -20694324.36747 -16112047.07044  22861392.7734                   22861390.4184
  -1411674.96147  -1095957.71945  22998707.1094                   22998704.9184
 -22611849.67647 -17607315.52745  22142307.5164                   22142305.3524
 -23045066.20748 -17950129.76646  21325936.9304                   21325933.9344
   2417265.31247   1896162.36745  22505068.9694                   22505064.2894
 -12816013.65648  -9974809.10946  22185855.7814                   22185855.7074
 -10042877.29747  -7813737.26245  22512124.7584                   22512123.6564
 -16165203.48046 -12587954.46542  24606306.2504                   24606305.9774
 11  8 24  2 49  0.0000000  0 10G05G21G15G12G26G29G02G25G30G18
 -12028497.72748  -9359627.27346  21408942.6414                   21408939.8634
 -16193307.14846 -12616169.44543  24731030.1954                   24731028.1884
 -20739152.04747 -16146977.65645  22852862.1484                   22852860.2034
  -1274313.65647   -988922.97345  23024846.5554                   23024844.6524
 -22634512.97747 -17624975.21545  22137994.6644                   22137992.7504
 -23062719.75448 -17963885.73846  21322577.6484                   21322574.9534
   2510505.18047   1968816.80145  22522812.2274                   22522807.4844
 -12718406.57448  -9898751.66046  22204430.1484                   22204430.1024
  -9937050.94547  -7731275.20345  22532263.5394                   22532261.7114
 -16205475.37946 -12619335.09043  24598643.0084                   24598642.9224
 11  8 24  2 49 30.0000000  0 10G05G21G15G12G26G29G02G25G30G18
 -11913476.68848  -9270000.48446  21430830.7034                   21430827.4844
 -16202092.29346 -12623014.90243  24729358.1414                   24729356.2934
 -20783813.24647 -16181778.54345  22844363.1484                   22844361.3324
  -1136799.68847   -881769.27345  23051014.8444                   23051012.0124
 -22656745.29348 -17642299.06345  22133763.9224                   22133762.2424
 -23080078.98048 -17977412.37946  21319274.1884                   21319271.3984
   2603850.18448   2041553.14545  22540574.8524                   22540570.3524
 -12620375.38348  -9822363.74646  22223084.6644                   22223085.0554
  -9830844.20347  -7648516.71945  22552473.5864                   22552471.9224
 -16245561.91446 -12650571.18043  24591014.4304                   24591014.4884
 11  8 24  2 50  0.0000000  0 10G05G21G15G12G26G29G02G25G30G18
 -11798158.39548  -9180142.07846  21452774.7194                   21452771.8594
 -16210897.11346 -12629875.73843  24727682.9614                   24727680.3204
 -20828307.73447 -16216449.51245  22835895.7424                   22835894.3164
   -999139.17247   -774501.37145  23077210.3204                   23077208.6564
 -22678546.07448 -17659286.65245  22129615.4924                   22129613.0124
 -23097144.80148 -17990710.39546  21316026.4534                   21316024.1954
   2697297.07448   2114368.89145  22558357.3984                   22558352.8444
 -12521925.96948  -9745649.94146  22241818.8834                   22241819.0784
  -9724263.18447  -7565466.60245  22572755.3984                   22572753.6844
 -16285465.18446 -12681664.53943  24583420.9924                   24583420.5084
 11  8 24  2 50 30.0000000  0 10G05G21G15G12G26G29G02G25G30G18
 -11682554.10948  -9090060.81646  21474773.5164                   21474770.5354
 -16219730.79346 -12636759.04343  24726001.7194                   24725999.7814
 -20872641.12147 -16250994.94545  22827460.0164                   22827457.4614
   -861344.36347   -667128.81345  23103432.0554                   23103429.7664
 -22699920.70748 -17675942.18445  22125547.6644                   22125545.8594
 -23113923.57048 -18003784.72746  21312833.6564                   21312831.1724
   2790837.77747   2187257.72745  22576157.8134                   22576153.3674
 -12423069.47748  -9668618.93446  22260630.5084                   22260630.7424
  -9617319.49647  -7482133.89545  22593106.4384                   22593104.7814
 -16325192.46946 -12712620.73443  24575861.1954                   24575860.5234
 11  8 24  2 51  0.0000000  0 10G05G21G15G12G26G29G02G25G30G18
 -11566653.86748  -8999748.94546  21496828.5234                   21496825.6724
 -16228581.62146 -12643655.69143  24724316.5004                   24724315.8444
 -20916797.96147 -16285402.80545  22819056.6804                   22819054.5004
   -723405.60247   -559644.09845  23129680.6414                   23129678.9144
 -22720853.42248 -17692253.35945  22121564.5554                   22121562.5274
 -23130400.67248 -18016623.99246  21309697.7664                   21309695.7194
   2884484.94947   2260229.53145  22593977.7274                   22593973.7854
 -12323796.27748  -9591263.21946  22279521.8284                   22279521.6994
  -9510003.80547  -7398511.30145  22613527.4064                   22613525.5434
 -16364730.49646 -12743429.42243  24568337.7974                   24568336.4774
 11  8 24  2 51 30.0000000  0 10G05G21G15G12G26G29G02G25G30G18
 -11450465.98048  -8909212.93046  21518938.3364                   21518935.4804
 -16237456.16046 -12650570.84043  24722628.6724                   24722626.8954
 -20960781.39847 -16319675.55545  22810687.3204                   22810685.0984
   -585332.07447   -452054.37945  23155955.3984                   23155953.1604
 -22741346.76247 -17708222.16045  22117664.6484                   22117662.8714
 -23146579.54748 -18029230.88346  21306619.2814                   21306616.4654
   2978233.29747   2333280.15245  22611817.5394                   22611813.2814
 -12224114.95748  -9513589.49246  22298490.5394                   22298490.7274
  -9402325.10547  -7314605.84445  22634018.0164                   22634016.3754
 -16404083.77746 -12774094.18842  24560847.9144                   24560847.1884
 11  8 24  2 52  0.0000000  0 10G05G21G15G12G26G29G02G25G30G18
 -12909413.08648 -10046054.82846  21241310.0394                   21241307.2664
 -17821778.96146 -13885108.01243  24421141.7734                   24421140.3954
 -22580013.82847 -17581415.05145  22502557.1954                   22502555.4454
  -2022546.28547  -1571961.59045  22882462.4454                   22882460.6054
 -24336822.01248 -18951449.61345  21814056.0474                   21814053.5904
 -24737882.44948 -19269207.13746  21003804.3754                   21003801.3984
   1496662.15247   1178809.11745  22329884.1804                   22329879.6954
 -13699448.85248 -10663200.33246  22017744.1564                   22017743.9064
 -10869706.82847  -8458020.21145  22354784.6334                   22354783.0634
 -18018676.58246 -14032218.36343  24253601.7274                   24253600.6294
 11  8 24  2 52 30.0000000  0 10G05G21G15G12G26G29G02G25G30G18
 -12792666.36348  -9955083.35946  21263525.9304                   21263522.8954
 -17830710.91046 -13892067.91043  24419442.2504                   24419439.8874
 -22623650.01247 -17615417.22345  22494253.6724                   22494251.3284
  -1884221.32447  -1464175.94545  22908784.7344                   22908782.6914
 -24356435.69148 -18966732.96545  21810323.4144                   21810321.5864
 -24753466.70748 -19281350.69946  21000838.6954                   21000836.0004
   1590604.69147   1252011.07445  22347761.1804                   22347756.2584
 -13598968.23448 -10584903.77046  22036864.7344                   22036864.7504
 -10761320.05147  -8373563.01645  22375409.9224                   22375409.0944
 -18057666.07046 -14062599.59443  24246181.2114                   24246181.4614
 11  8 24  2 53  0.0000000  0 10G05G21G15G12G26G29G02G25G30G18
 -12675641.53948  -9863895.18846  21285795.1024                   21285792.5594
 -17839669.64846 -13899048.64543  24417737.6724                   24417734.7304
 -22667104.85247 -17649278.06645  22485984.2114                   22485982.4774
  -1745772.49647  -1356293.77345  22935130.5314                   22935128.5594
 -24375601.74247 -18981667.52045  21806676.2424                   21806674.0984
 -24768747.50447 -19293257.78546  20997930.6884                   20997927.6954
   1684647.63347   1325291.25845  22365656.7734                   22365652.3014
 -13498089.18848 -10506296.74246  22056061.6884                   22056061.5234
 -10652581.03147  -8288831.34445  22396102.7114                   22396100.9844
 -18096468.94546 -14092835.55943  24238798.7344                   24238796.6884
 11  8 24  2 53 30.0000000  0 10G05G21G15G12G26G29G02G25G30G18
 -12558340.23848  -9772491.57046  21308117.1414                   21308113.9104
 -17848655.20746 -13906050.30943  24416027.0704                   24416024.9574
 -22710374.94947 -17682994.98445  22477750.6644                   22477748.3444
  -1607202.35247  -1248317.07445  22961499.6954                   22961497.7774
 -24394316.27048 -18996250.23845  21803114.9774                   21803112.7194
 -24783721.89547 -19304926.12546  20995081.4614                   20995078.4694
   1778792.01247   1398650.47745  22383572.1414                   22383567.8634
 -13396813.84448 -10427380.91446  22075333.2114                   22075333.5274
 -10543492.21147  -8203827.07845  22416861.5234                   22416859.7194
 -18135083.70746 -14122924.82843  24231450.2034                   24231449.2544
 11  8 24  2 54  0.0000000  0 10G05G21G15G12G26G29G02G25G30G18
 -12440771.70748  -9680879.73046  21330489.2974                   21330486.5164
 -17857674.74246 -13913078.44943  24414310.4774                   24414308.9224
 -22753463.91447 -17716570.74245  22469550.4614                   22469548.9964
  -1468520.83247  -1140253.58245  22987890.0004                   22987888.2154
 -24412582.76247 -19010483.84445  21799639.1484                   21799636.7154
 -24798394.10248 -19316358.99646  20992289.3444                   20992286.4574
   1873031.51647   1472083.81645  22401505.3524                   22401501.1294
 -13295151.66448 -10348163.64546  22094679.2664                   22094679.3674
 -10434063.29747  -8118557.84045  22437685.4614                   22437683.3984
 -18173515.81346 -14152871.84443  24224135.8054                   24224135.0314
 11  8 24  2 54 30.0000000  0 10G05G21G15G12G26G29G02G25G30G18
 -12322922.52748  -9589049.20346  21352915.8054                   21352912.8364
 -17866712.14146 -13920120.49243  24412590.9924                   24412588.7344
 -22796352.60547 -17749990.44945  22461389.1954                   22461387.2664
  -1329714.71147  -1032092.99245  23014303.8364                   23014301.8204
 -24430381.75848 -19024353.16045  21796251.9844                   21796249.8754
 -24812745.77348 -19327542.09846  20989558.3984                   20989555.3484
   1967382.85947   1545604.30545  22419459.0944                   22419455.5004
 -13193089.12548 -10268634.41046  22114100.8204                   22114100.8284
 -10324281.23047  -8033013.39845  22458575.8674                   22458574.3874
 -18211748.07446 -14182663.07043  24216861.2814                   24216860.1804
 11  8 24  2 55  0.0000000  0 10G05G21G15G12G26G29G02G25G30G18
 -12204808.04748  -9497011.94946  21375391.8204                   21375388.9064
 -17875781.27046 -13927187.30543  24410865.5394                   24410863.3794
 -22839050.64147 -17783261.58645  22453263.5554                   22453262.1844
  -1190800.13347   -923847.90245  23040738.6564                   23040736.5084
 -24447722.84848 -19037865.67245  21792952.0084                   21792950.4454
 -24826787.53148 -19338483.69946  20986885.9774                   20986883.4264
   2061833.13347   1619201.87945  22437432.8524                   22437428.7384
 -13090642.15648 -10188805.61345  22133595.8914                   22133595.9064
 -10214162.23047  -7947206.41045  22479531.0864                   22479529.3014
 -18249792.50446 -14212308.01643  24209621.9304                   24209619.6524
 11  8 24  2 55 30.0000000  0 10G05G21G15G12G26G29G02G25G30G18
 -12086433.30548  -9404771.89546  21397917.5864                   21397914.7384
 -17884885.66846 -13934281.58243  24409132.7504                   24409130.5474
 -22881557.91847 -17816384.09845  22445175.0394                   22445172.9964
  -1051782.80947   -815522.75445  23067192.7274                   23067190.6454
 -24464605.64547 -19051021.08645  21789739.4614                   21789737.6564
 -24840519.55148 -19349183.95746  20984273.0314                   20984270.0784
   2156379.97747   1692874.71145  22455424.5554                   22455419.6994
 -12987816.05548 -10108681.39146  22153163.1334                   22153163.3674
 -10103711.90247  -7861141.24245  22500549.1884                   22500547.1134
 -18287650.58246 -14241807.68843  24202417.0164                   24202416.0354
 11  8 24  2 56  0.0000000  0 10G05G21G15G12G26G29G02G25G30G18
 -11967791.93048  -9312324.06346  21420495.0004                   21420491.9734
 -17894016.37946 -13941396.35543  24407395.5554                   24407392.9924
 -22923862.23047 -17849348.43445  22437124.8134                   22437122.8524
   -912656.93047   -707113.00444  23093667.6884                   23093665.5594
 -24481017.68047 -19063809.66045  21786615.9304                   21786613.8914
 -24853930.64548 -19359634.14846  20981721.0634                   20981718.2814
   2251032.96147   1766630.25445  22473436.4924                   22473431.7234
 -12884604.51648 -10028256.81646  22172804.1564                   22172803.9884
  -9992924.27047  -7774813.23045  22521630.8754                   22521629.3134
 -18325312.10946 -14271154.31343  24195250.7504                   24195249.0084
 11  8 24  2 56 30.0000000  0 10G05G21G15G12G26G29G02G25G30G18
 -11848883.29348  -9219667.98046  21443122.0554                   21443119.1564
 -17903171.02046 -13948529.77743  24405652.4924                   24405650.9184
 -22965957.31347 -17882149.74245  22429114.3834                   22429112.2344
   -773422.28947   -598618.53144  23120163.1334                   23120161.2424
 -24496952.85947 -19076226.65245  21783583.3594                   21783581.6054
 -24867015.51648 -19369830.13346  20979231.2114                   20979228.3634
   2345795.77348   1840471.39145  22491469.2664                   22491464.9304
 -12781007.38348  -9947531.78145  22192517.7814                   22192517.5354
  -9881799.53947  -7688222.54345  22542777.8914                   22542776.0434
 -18362772.91446 -14300344.37943  24188121.6724                   24188120.7664
 11  8 24  2 57  0.0000000  0 10G05G21G15G12G26G29G02G25G30G18
 -11729713.21948  -9126808.18046  21465799.5164                   21465796.5164
 -17912353.43046 -13955684.82443  24403905.5084                   24403903.6884
 -23007843.61347 -17914788.37945  22421143.7584                   22421141.6914
   -634085.64147   -490044.55144  23146677.6564                   23146675.8404
 -24512411.38747 -19088272.23445  21780642.1254                   21780640.1094
 -24879775.02047 -19379772.59446  20976803.1334                   20976800.4734
   2440665.01247   1914395.43045  22509522.5164                   22509518.2624
 -12677030.85948  -9866511.12546  22212303.5164                   22212303.8204
  -9770344.16047  -7601374.20745  22563986.7274                   22563984.9064
 -18400035.34846 -14329380.02743  24181030.6094                   24181029.0744
 11  8 24  2 57 30.0000000  0 10G05G21G15G12G26G29G02G25G30G18
 -11610291.24648  -9033752.09846  21488524.8834                   21488521.7464
 -17921570.46146 -13962866.84843  24402151.5864                   24402149.3054
 -23049524.76247 -17947267.14145  22413211.6484                   22413209.9614
   -494656.69947   -381398.66045  23173210.3914                   23173208.7624
 -24527396.89847 -19099949.23445  21777790.1884                   21777788.7114
 -24892213.79347 -19389465.13746  20974435.9534                   20974433.4534
   2535634.65647   1988397.71545  22527594.3524                   22527590.6564
 -12572684.38747  -9785202.19546  22232160.0394                   22232160.0434
  -9658567.89547  -7514275.81645  22585257.1484                   22585255.0314
 -18437105.25846 -14358265.49243  24173976.6804                   24173975.1054
 11  8 24  2 58  0.0000000  0 10G05G21G15G12G26G29G02G25G30G18
 -11490614.64148  -8940497.59446  21511298.2894                   21511295.4384
 -17930817.83246 -13970072.53543  24400392.5234                   24400389.6994
 -23090992.59047 -17979579.69145  22405321.0704                   22405318.4024
   -355133.31647   -272679.18044  23199760.5474                   23199759.2424
 -24541901.00847 -19111251.10545  21775030.4384                   21775028.1414
 -24904323.78948 -19398901.48446  20972131.6804                   20972128.7894
   2630710.18447   2062482.50045  22545686.8054                   22545682.4694
 -12467965.78147  -9703603.28146  22252087.5474                   22252087.6334
  -9546468.93847  -7426925.98445  22606588.7734                   22606587.3164
 -18473976.53946 -14386996.35943  24166960.2814                   24166957.9884
 11  8 24  2 58 30.0000000  0 10G05G21G15G12G26G29G02G25G30G18
 -11370698.34448  -8847056.32446  21534117.6094                   21534114.4064
 -17940108.50046 -13977311.96143  24398624.2894                   24398621.3874
 -23132256.58447 -18011733.40245  22397468.3444                   22397466.6294
   -215531.23047   -163898.36345  23226326.2194                   23226324.4494
 -24555933.03547 -19122185.12945  21772360.3134                   21772358.1954
 -24916115.95348 -19408090.17246  20969887.5944                   20969884.7584
   2725879.55947   2136640.40645  22563796.9694                   22563792.5864
 -12362890.28947  -9621726.28545  22272082.5164                   22272082.5944
  -9434062.71147  -7339336.72744  22627979.0634                   22627977.5204
 -18510660.28946 -14415580.95343  24159979.5634                   24159978.6254
 11  8 24  2 59  0.0000000  0 10G05G21G15G12G26G29G02G25G30G18
 -11250523.82848  -8753413.84446  21556985.9844                   21556983.1804
 -17949421.57846 -13984568.82043  24396851.6804                   24396849.7734
 -23173292.33247 -18043709.25845  22389660.1564                   22389657.5354
    -75831.96547    -55041.84844  23252910.6954                   23252908.4144
 -24569468.69947 -19132732.37545  21769784.3284                   21769782.1374
 -24927566.52048 -19417012.66846  20967708.5394                   20967706.2814
   2821164.15247   2210888.10945  22581929.0944                   22581925.0824
 -12257439.69147  -9539556.99245  22292149.0394                   22292149.4774
  -9321331.37147  -7251494.12545  22649430.7504                   22649429.6094
 -18547134.41446 -14444002.32043  24153038.4144                   24153037.1644
 11  8 24  2 59 30.0000000  0 10G05G21G15G12G26G29G02G25G30G18
 -11130107.57048  -8659582.98446  21579900.6174                   21579897.6334
 -17958771.77047 -13991854.62143  24395072.9614                   24395070.1484
 -23214110.89547 -18075515.88745  22381891.8754                   22381889.9144
     63946.62947     53876.48444  23279508.9924                   23279507.4454
 -24582518.77047 -19142901.23845  21767301.0394                   21767298.4654
 -24938687.08648 -19425678.02746  20965592.7894                   20965589.9654
   2916550.44147   2285215.07045  22600080.4454                   22600075.8324
 -12151630.80147  -9457108.51245  22312283.9454                   22312284.1644
  -9208292.06647  -7163411.55145  22670941.7034                   22670939.8404
 -18583412.09846 -14472270.48843  24146136.2424                   24146134.1564
 11  8 24  3  0  0.0000000  0 10G05G21G15G12G26G29G02G25G30G18
 -11009437.25048  -8565554.16846  21602863.1174                   21602860.3674
 -17968145.17247 -13999158.51243  24393288.7664                   24393285.8094
 -23254694.60547 -18107139.52045  22374169.5084                   22374167.1804
    203816.44947    162865.90244  23306125.5234                   23306123.6174
 -24595065.67247 -19152678.01645  21764913.3754                   21764911.7154
 -24949460.88748 -19434073.18046  20963542.3984                   20963539.4844
   3012053.35247   2359632.89845  22618254.0164                   22618250.0164
 -12045451.85547  -9374371.69545  22332488.7814                   22332489.2934
  -9094933.26647  -7075080.02745  22692512.9454                   22692511.1484
 -18619477.48046 -14500373.37143  24139271.4924                   24139270.2154
 11  8 24  3  0 30.0000000  0 10G05G21G15G12G26G29G02G25G30G18
 -10888523.85548  -8471335.93446  21625872.5944                   21625869.3404
 -17977550.28146 -14006487.12943  24391499.2194                   24391496.3524
 -23295048.88347 -18138584.35545  22366490.2894                   22366487.7814
    343766.02747    271917.47344  23332757.1254                   23332755.5434
 -24607114.93447 -19162067.02345  21762620.4304                   21762618.3484
 -24959894.20748 -19442203.01646  20961556.5864                   20961554.4264
   3107664.86347   2434135.33245  22636448.6254                   22636444.1524
 -11938914.31347  -9291355.44145  22352762.6024                   22352762.5824
  -8981266.71147  -6986508.71145  22714142.9614                   22714141.6844
 -18655338.33247 -14528316.77743  24132448.8054                   24132446.0044
 11  8 24  3  1  0.0000000  0 10G05G21G15G12G26G29G02G25G30G18
 -10767374.98848  -8376934.21946  21648926.2974                   21648923.2664
 -17986992.60546 -14013844.72743  24389701.7974                   24389699.5904
 -23335175.58647 -18169851.86745  22358854.3754                   22358851.6954
    483787.40647    381025.00844  23359402.3594                   23359400.9184
 -24618668.06647 -19171069.44545  21760421.8134                   21760419.7664
 -24969989.30147 -19450069.30546  20959635.7894                   20959633.1334
   3203380.57847   2508718.97345  22654662.1954                   22654658.2974
 -11832025.82047  -9208065.72345  22373103.0784                   22373102.9884
  -8867300.40647  -6897703.79745  22735830.2814                   22735828.4694
 -18690998.37946 -14556103.76643  24125661.3054                   24125659.7624
 11  8 24  3  1 30.0000000  0 10G05G21G15G12G26G29G02G25G30G18
 -10645983.07048  -8282343.11346  21672026.5864                   21672023.0474
 -17996462.46946 -14021223.75843  24387899.8364                   24387897.4654
 -23375061.64147 -18200931.85545  22351264.1564                   22351262.0784
    623887.44947    490193.80144  23386062.9454                   23386060.9804
 -24629712.19547 -19179675.23045  21758320.5554                   21758318.4144
 -24979734.01648 -19457662.56346  20957781.3134                   20957778.8364
   3299211.02747   2583392.01645  22672898.6804                   22672894.4774
 -11724779.37947  -9124497.08645  22393510.8524                   22393511.4024
  -8753027.56647  -6808660.02745  22757575.1954                   22757574.2074
 -18726446.44147 -14583725.53543  24118916.2424                   24118913.9454
 11  8 24  3  2  0.0000000  0 10G05G21G15G12G26G29G02G25G30G18
 -10524370.32448  -8187579.93446  21695168.5554                   21695165.8134
 -18005980.24646 -14028640.17643  24386088.6484                   24386086.0204
 -23414723.66847 -18231837.29345  22343716.4614                   22343714.4304
    764043.65647    599406.38344  23412733.7734                   23412731.4884
 -24640263.89147 -19187897.30145  21756312.2504                   21756310.1804
 -24989145.62548 -19464996.25446  20955990.4304                   20955987.3834
   3395136.59447   2658139.16845  22691152.4454                   22691148.0594
 -11617197.58647  -9040667.14145  22413983.4064                   22413983.6134
  -8638471.01247  -6719395.19544  22779375.4144                   22779373.5354
 -18761701.45746 -14611196.88343  24112207.4304                   24112206.3364
 11  8 24  3  2 30.0000000  0 10G05G21G15G12G26G29G02G25G30G18
 -10402517.59848  -8092629.77346  21718356.3914                   21718353.6884
 -18015524.68446 -14036077.34843  24384271.9144                   24384269.7704
 -23454136.92247 -18262548.86745  22336216.4144                   22336214.4304
    904274.44947    708677.09444  23439418.2274                   23439416.1484
 -24650298.78947 -19195716.67245  21754403.1644                   21754400.7584
 -24998200.32848 -19472051.84846  20954267.1954                   20954264.3634
   3491179.33647   2732977.62945  22709429.0004                   22709424.6764
 -11509261.70747  -8956561.28145  22434522.8984                   22434523.1334
  -8523612.33247  -6629894.94144  22801232.0314                   22801230.0594
 -18796740.69547 -14638500.05943  24105540.2344                   24105538.4774
 11  8 24  3  3  0.0000000  0 10G05G21G15G12G26G29G02G25G30G18
 -10280432.19548  -7997498.28546  21741588.5084                   21741585.0784
 -18025100.92646 -14043539.28543  24382449.8524                   24382447.6844
 -23493303.85947 -18293068.50445  22328762.6334                   22328760.6484
   1044571.44147    817999.37544  23466116.0784                   23466114.6454
 -24659818.59447 -19203134.66445  21752591.3524                   21752589.2624
 -25006901.08248 -19478831.63346  20952611.4454                   20952608.7464
   3587334.80547   2807903.92645  22727726.6254                   22727722.2504
 -11400979.61347  -8872185.64845  22455128.4144                   22455128.6414
  -8408459.77347  -6540165.68845  22823144.5784                   22823143.0554
 -18831568.15646 -14665638.28143  24098911.6254                   24098910.7894
 11  8 24  3  3 30.0000000  0 10G05G21G15G12G26G29G02G25G30G18
 -10158124.30548  -7902193.44546  21764863.0234                   21764860.1174
 -18034716.98046 -14051032.26243  24380620.4534                   24380617.6844
 -23532228.00447 -18323398.96145  22321355.9694                   22321353.8874
   1184924.42247    927365.28144  23492824.0784                   23492822.6134
 -24668828.00447 -19210154.95745  21750876.6884                   21750874.4774
 -25015252.93448 -19485339.54346  20951021.9144                   20951019.1524
   3683595.98847   2882912.60245  22746044.6884                   22746040.3364
 -11292361.83247  -8787548.44545  22475797.5394                   22475797.7464
  -8293023.89147  -6450215.68845  22845111.9304                   22845109.9494
 -18866190.92247 -14692616.94143  24092323.9694                   24092321.1374
 11  8 24  3  4  0.0000000  0 10G05G21G15G12G26G29G02G25G30G18
 -10035584.28548  -7806707.71146  21788181.4614                   21788178.5044
 -18044361.83246 -14058547.69543  24378784.8834                   24378781.9964
 -23570894.86347 -18353528.93045  22313998.2974                   22313995.8794
   1325342.35546   1036781.80944  23519544.9144                   23519543.2624
 -24677311.89547 -19216765.75045  21749262.1884                   21749259.9104
 -25023241.56348 -19491564.42246  20949501.7974                   20949498.9734
   3779975.46147   2958013.45745  22764384.7734                   22764380.8834
 -11183399.37147  -8702642.65245  22496532.3594                   22496532.7734
  -8177296.14847  -6360038.23845  22867133.7034                   22867132.3364
 -18900595.85946 -14719425.88743  24085776.3284                   24085774.2734
 11  8 24  3  4 30.0000000  0 10G05G21G15G12G26G29G02G25G30G18
  -9912827.89548  -7711053.38346  21811541.0314                   21811538.1764
 -18054048.93046 -14066096.05543  24376940.9924                   24376938.7464
 -23609314.78147 -18383466.47745  22306686.9924                   22306684.6454
   1465809.12946   1146236.37544  23546275.3524                   23546273.0824
 -24685280.86348 -19222975.30945  21747746.1564                   21747743.7384
 -25030878.03148 -19497514.89546  20948049.0554                   20948045.7234
   3876460.05547   3033196.21944  22782745.4064                   22782741.0394
 -11074108.30547  -8617480.80945  22517329.6254                   22517329.8834
  -8061292.80147  -6269646.03145  22889208.4534                   22889206.8984
 -18934795.01246 -14746074.51243  24079269.1884                   24079266.6094
 11  8 24  3  5  0.0000000  0 10G05G21G15G12G26G29G02G25G30G18
  -9789865.36348  -7615238.42646  21834940.0474                   21834937.1524
 -18063786.22346 -14073683.46943  24375088.1334                   24375086.0944
 -23647492.29747 -18413215.13345  22299422.1644                   22299419.5864
   1606313.70747   1255720.41444  23573012.8834                   23573010.4614
 -24692739.43447 -19228787.16045  21746326.4454                   21746324.5204
 -25038167.73848 -19503195.16046  20946661.5634                   20946658.7894
   3973042.45347   3108455.20344  22801124.4384                   22801119.8484
 -10964499.47347  -8532071.35945  22538187.3284                   22538188.0004
  -7945024.90647  -6179047.72344  22911333.8984                   22911332.3634
 -18968794.89546 -14772567.82443  24072798.8364                   24072796.4574
 11  8 24  3  5 30.0000000  0 10G05G21G15G12G26G29G02G25G30G18
  -9666684.49648  -7519253.34046  21858380.6564                   21858377.5394
 -18073559.42646 -14081298.88343  24373228.7894                   24373226.1484
 -23685409.76647 -18442761.16045  22292206.7974                   22292204.1484
   1746867.40647   1365242.71544  23599759.2734                   23599756.9454
 -24699670.13347 -19234187.68045  21745007.5234                   21745005.0314
 -25045093.53548 -19508591.86346  20945343.5704                   20945340.6644
   4069737.85547   3183802.24244  22819525.0784                   22819520.4414
 -10854561.08247  -8446405.10245  22559108.2814                   22559108.4184
  -7828480.91447  -6088234.24244  22933510.6804                   22933509.9104
 -19002580.39546 -14798894.11743  24066369.7974                   24066367.4534
 11  8 24  3  6  0.0000000  0 10G05G21G15G12G26G29G02G25G30G18
  -9543283.13748  -7423096.44946  21881863.1484                   21881860.5124
 -18083364.57046 -14088939.22743  24371363.0634                   24371359.7894
 -23723059.27347 -18472098.38745  22285042.1174                   22285039.8634
   1887472.03147   1474804.71544  23626515.1024                   23626513.0394
 -24706065.44947 -19239171.01245  21743790.7974                   21743788.2894
 -25051648.95348 -19513699.95746  20944096.1174                   20944093.4414
   4166551.23447   3259241.21945  22837947.9454                   22837944.0554
 -10744291.56347  -8360480.82845  22580092.0084                   22580092.1844
  -7711659.55147  -5997204.63344  22955741.7894                   22955740.3244
 -19036146.33646 -14825049.29743  24059980.8444                   24059979.9104
 11  8 24  3  6 30.0000000  0 10G05G21G15G12G26G29G02G25G30G18
  -9419663.68048  -7326769.60946  21905387.4384                   21905383.8714
 -18093201.89846 -14096604.62543  24369490.6484                   24369488.0394
 -23760437.92247 -18501224.56645  22277928.7664                   22277926.5434
   2028124.80946   1584404.23444  23653279.8284                   23653279.0004
 -24711922.57848 -19243734.97745  21742675.8984                   21742673.7114
 -25057831.74248 -19518517.69146  20942919.5944                   20942917.1524
   4263483.07847   3334772.50844  22856393.8134                   22856389.1174
 -10633693.95747  -8274300.89845  22601138.0944                   22601138.2384
  -7594564.09047  -5905961.44945  22978023.9694                   22978022.2584
 -19069491.42646 -14851032.41043  24053636.4694                   24053633.5124
 11  8 24  3  7  0.0000000  0 10G05G21G15G12G26G29G02G25G30G18
  -9295836.88348  -7230281.19946  21928950.6414                   21928947.7234
 -18103080.31346 -14104301.98844  24367610.7814                   24367608.4064
 -23797551.41047 -18530144.11745  22270866.5634                   22270864.4844
   2168814.00847   1694032.14844  23680052.5784                   23680051.1954
 -24717247.23848 -19247884.03145  21741663.0864                   21741660.4924
 -25063647.91448 -19523049.75446  20941812.8914                   20941809.7544
   4360525.31647   3410389.81244  22874859.9694                   22874855.6174
 -10522779.62147  -8187874.17645  22622244.4064                   22622245.1334
  -7477206.08247  -5814513.67644  23000357.0004                   23000354.8754
 -19102623.30946 -14876849.31343  24047331.4144                   24047329.9884
 11  8 24  3  7 30.0000000  0 10G05G21G15G12G26G29G02G25G30G18
  -9171810.52348  -7133637.28146  21952551.9774                   21952548.8094
 -18113005.03146 -14112035.46943  24365721.9384                   24365719.5554
 -23834401.41847 -18558858.37145  22263854.1414                   22263851.6484
   2309531.82847   1803682.33244  23706830.6804                   23706828.7584
 -24722041.19948 -19251619.55545  21740750.3834                   21740748.0124
 -25069100.32848 -19527298.36746  20940775.1334                   20940772.5664
   4457673.54747   3486089.71945  22893346.5864                   22893342.7154
 -10411556.61347  -8101206.92645  22643409.2114                   22643409.6764
  -7359593.82047  -5722867.79744  23022737.6954                   23022736.0474
 -19135546.09846 -14902503.42243  24041066.7504                   24041064.5784
 11  8 24  3  8  0.0000000  0 10G05G21G15G12G26G29G02G25G30G18
  -9047578.94948  -7036833.44546  21976192.5944                   21976189.5044
 -18122968.69946 -14119799.29343  24363825.0704                   24363823.2274
 -23870977.17647 -18587358.92245  22256893.8984                   22256891.3834
   2450283.53147   1913358.91844  23733615.1094                   23733613.1954
 -24726294.09448 -19254933.46545  21739941.0004                   21739938.8594
 -25074178.79748 -19531255.58646  20939809.0394                   20939805.9064
   4554936.08247   3561878.69144  22911855.0234                   22911851.2664
 -10300019.93847  -8014295.23845  22664633.8914                   22664634.7424
  -7241722.53547  -5631020.07445  23045168.0554                   23045166.1804
 -19168250.93446 -14927987.60943  24034843.0864                   24034841.1564
 11  8 24  3  8 30.0000000  0 10G05G21G15G12G26G29G02G25G30G18
 -10498555.03948  -8167464.17246  21700080.7344                   21700078.2894
 -19708386.93846 -15355190.07443  24062130.9534                   24062128.2734
 -25482691.59047 -19843240.24245  21950194.9144                   21950192.2154
   1015655.33647    795466.78544  23460614.2584                   23460612.2274
 -26305417.66848 -20485419.33645  21439443.9454                   21439441.2074
 -26654295.85248 -20762515.60246  20639122.5944                   20639119.7424
   3076901.78147   2410163.63744  22630594.3444                   22630590.0274
 -11763583.68847  -9154734.55545  22386127.0004                   22386127.5164
  -8699006.37947  -6766565.94944  22767856.5164                   22767854.5124
 -20776152.83646 -16180898.13343  23728869.0554                   23728867.0744
 11  8 24  3  9  0.0000000  0 10G05G21G15G12G26G29G02G25G30G18
 -10373903.31348  -8070332.96146  21723801.6094                   21723798.1254
 -19718412.98446 -15363002.53143  24060222.6334                   24060220.1604
 -25518692.96947 -19871293.21145  21943344.1804                   21943341.5634
   1156481.31647    905201.25844  23487412.4384                   23487410.7234
 -26308562.95347 -20487870.17245  21438844.9384                   21438843.1684
 -26658602.55548 -20765871.45346  20638302.9694                   20638300.2304
   3174410.93047   2486144.77044  22649149.8834                   22649145.2934
 -11651412.09447  -9067328.12945  22407472.4614                   22407473.1094
  -8580610.06647  -6674309.11744  22790385.8754                   22790384.2734
 -20808402.50046 -16206027.66043  23722731.8444                   23722729.6914
 11  8 24  3  9 30.0000000  0 10G05G21G15G12G26G29G02G25G30G18
 -10249053.17648  -7973047.13346  21747559.6484                   21747556.8554
 -19728478.35246 -15370845.59043  24058307.4614                   24058304.6374
 -25554410.22347 -19899124.79345  21936547.4534                   21936544.8714
   1297332.48447   1014955.37544  23514215.4694                   23514214.2424
 -26311157.95747 -20489892.21945  21438351.3674                   21438349.0164
 -26662528.19147 -20768930.36746  20637556.1174                   20637553.4654
   3272036.00047   2562216.22744  22667727.5164                   22667722.8444
 -11538935.33247  -8979683.92245  22428876.5234                   22428876.6094
  -8461963.96147  -6581857.63345  22812963.8204                   22812962.3874
 -20840431.28146 -16230985.07843  23716637.6564                   23716634.8634
 11  8 24  3 10  0.0000000  0 10G05G21G15G12G26G29G02G25G30G18
 -10124006.96148  -7875608.52346  21771355.2664                   21771352.4654
 -19738583.49246 -15378719.64143  24056384.5704                   24056382.1564
 -25589840.71947 -19926732.93445  21929805.2274                   21929802.7384
   1438205.95747   1124726.87144  23541023.0784                   23541020.6884
 -26313200.24648 -20491483.57445  21437962.9224                   21437960.7734
 -26666070.47348 -20771690.56346  20636881.7114                   20636878.6454
   3369777.57847   2638378.50044  22686327.2974                   22686322.7304
 -11426156.56647  -8891804.37945  22450337.5634                   22450337.6374
  -8343071.30147  -6489214.03144  22835588.0474                   22835586.7854
 -20872238.05946 -16255769.51643  23710583.8914                   23710581.4804
 11  8 24  3 10 30.0000000  0 10G05G21G15G12G26G29G02G25G30G18
  -9998768.37548  -7778020.01246  21795187.3524                   21795184.2704
 -19748730.44946 -15386626.29744  24054453.6024                   24054450.6214
 -25624982.44147 -19954116.04745  21923117.6564                   21923115.2894
   1579096.96947   1234512.00844  23567833.5704                   23567832.7274
 -26314688.52747 -20492643.23445  21437679.7194                   21437677.2464
 -26669228.66048 -20774151.46546  20636281.0634                   20636278.0944
   3467634.53547   2714630.66845  22704949.0474                   22704944.5824
 -11313080.23047  -8803692.97345  22471855.1254                   22471855.2974
  -8223936.79347  -6396381.96544  22858258.6484                   22858257.4224
 -20903823.48847 -16280381.48843  23704573.4304                   23704571.8014
 11  8 24  3 11  0.0000000  0 10G05G21G15G12G26G29G02G25G30G18
  -9873343.69548  -7680286.48846  21819054.6024                   21819051.5124
 -19758923.39847 -15394568.79744  24052513.6884                   24052511.5004
 -25659836.57047 -19981275.04745  21916484.9844                   21916482.9574
   1719998.72747   1344305.53544  23594646.4614                   23594644.5514
 -26315624.06348 -20493372.17645  21437501.3594                   21437499.3874
 -26672004.12148 -20776314.13346  20635752.5944                   20635750.0354
   3565603.67647   2790970.24245  22723591.8754                   22723587.6374
 -11199713.25447  -8715355.07845  22493428.0234                   22493428.6804
  -8104567.55547  -6303367.00444  22880973.9144                   22880972.6844
 -20935190.78147 -16304823.43843  23698605.0864                   23698603.5084
 11  8 24  3 11 30.0000000  0 10G05G21G15G12G26G29G02G25G30G18
  -9747733.28148  -7582408.24646  21842957.8284                   21842954.7304
 -19769160.21946 -15402545.48044  24050565.5634                   24050563.3364
 -25694398.01647 -20008206.00045  21909908.0234                   21909906.1054
   1860910.54347   1454106.87944  23621460.7664                   23621459.3954
 -26316001.69948 -20493666.39145  21437429.7974                   21437427.3634
 -26674392.75448 -20778175.38346  20635298.2034                   20635295.4884
   3663687.68047   2867399.31644  22742256.2664                   22742252.0984
 -11086056.52047  -8626791.42645  22515056.9694                   22515056.6024
  -7984964.60247  -6210169.91045  22903733.5784                   22903732.2304
 -20966336.95746 -16329093.13743  23692678.1334                   23692675.7734
 11  8 24  3 12  0.0000000  0 10G05G21G15G12G26G29G02G25G30G18
  -9621932.09048  -7484381.33246  21866896.9064                   21866893.7814
 -19779433.57047 -15410550.59844  24048610.8754                   24048608.7384
 -25728656.03547 -20034900.50045  21903388.8984                   21903386.7704
   2001836.99247   1563919.65244  23648278.7344                   23648276.5274
 -26315811.48848 -20493518.13345  21437465.8834                   21437463.1134
 -26676384.91047 -20779727.69546  20634918.7344                   20634916.0904
   3761894.40647   2943924.00844  22760943.9844                   22760940.1914
 -10972105.46547  -8537998.39845  22536740.6334                   22536740.9454
  -7865123.66047  -6116787.39844  22926538.6414                   22926537.3054
 -20997253.66446 -16353184.00443  23686794.9224                   23686792.0984
 11  8 24  3 12 30.0000000  0 10G05G21G15G12G26G29G02G25G30G18
  -9495947.55548  -7386211.56346  21890871.0164                   21890867.4454
 -19789749.41047 -15418588.88744  24046647.5084                   24046644.5634
 -25762613.19547 -20061360.57445  21896927.2974                   21896925.0434
   2142769.94147   1673737.49244  23675096.8984                   23675096.0044
 -26315055.84048 -20492929.27345  21437609.3594                   21437607.3094
 -26677983.41048 -20780973.26246  20634614.5554                   20634612.1024
   3860218.82447   3020540.42644  22779654.7034                   22779650.9104
 -10857868.46947  -8448982.59045  22558479.3444                   22558479.3484
  -7745053.22747  -6023226.02744  22949387.3674                   22949385.5004
 -21027945.47746 -16377099.64843  23680953.7584                   23680951.4304
 11  8 24  3 13  0.0000000  0 10G05G21G15G12G26G29G02G25G30G18
  -9369769.21948  -7287890.78546  21914881.7584                   21914878.7274
 -19800095.39847 -15426650.64844  24044678.7194                   24044675.7854
 -25796253.48847 -20087573.73845  21890525.7734                   21890523.2934
   2283719.18747   1783568.00844  23701918.8364                   23701917.4924
 -26313719.59048 -20491887.98845  21437864.0234                   21437861.5514
 -26679173.49648 -20781900.58646  20634388.2194                   20634385.3524
   3958674.31247   3097258.96544  22798390.7344                   22798386.2384
 -10743335.92647  -8359736.47745  22580273.8674                   22580274.4614
  -7624743.92247  -5929478.54744  22972281.5554                   22972279.6914
 -21058398.89846 -16400829.49643  23675159.3444                   23675157.3594
 11  8 24  3 13 30.0000000  0 10G05G21G15G12G26G29G02G25G30G18
  -9243405.85948  -7189425.81346  21938927.8754                   21938924.9884
 -19810478.19947 -15434741.09444  24042703.3674                   24042700.3324
 -25829580.34447 -20113542.66845  21884183.7504                   21884181.3244
   2424675.68447   1893404.16044  23728742.1024                   23728740.3164
 -26311806.76647 -20490397.43445  21438227.6564                   21438225.4264
 -26679959.27347 -20782512.86746  20634239.4064                   20634236.1524
   4057254.91847   3174074.99245  22817149.9924                   22817145.5594
 -10628517.26247  -8270267.42645  22602123.6024                   22602123.9064
  -7504205.32047  -5835552.37944  22995219.3204                   22995217.2854
 -21088619.43446 -16424377.92643  23669408.2034                   23669406.4844
 11  8 24  3 14  0.0000000  0 10G05G21G15G12G26G29G02G25G30G18
  -9116866.00848  -7090823.34446  21963007.6484                   21963004.5984
 -19820903.99647 -15442865.04744  24040719.3914                   24040716.7974
 -25862596.71947 -20139269.66445  21877900.8284                   21877898.5204
   2565630.05547   2003238.69544  23755565.3204                   23755563.5204
 -26309320.34848 -20488459.91045  21438700.4534                   21438698.6174
 -26680344.52048 -20782813.05146  20634165.1724                   20634162.4184
   4155955.41847   3250984.45745  22835932.4304                   22835927.8484
 -10513421.43847  -8180582.38745  22624025.3444                   22624025.8054
  -7383446.62547  -5741454.71944  23018198.6484                   23018197.2504
 -21118612.13746 -16447748.78943  23663701.2194                   23663698.8914
